GFSWCAN_prec_cthk_003.txt.gz
RH
92 90 90 83 80 78 74 74 74 77 73 67 66 67 69 67 70 74 74 73 73 78 68 64 61 58 60 66 74 73 75 71 72 76 81 84 87 78 78 74 81 85 99 99 98 97 89 73 76 91 90 80 85 85
92 95 95 91 95 97 91 89 83 80 79 80 79 79 82 83 82 81 76 76 79 78 74 63 69 58 65 67 73 82 83 79 81 85 86 87 89 90 89 86 78 82 82 81 82 77 71 75 78 84 80 79 83 92
79 84 86 94 98 96 91 91 91 89 87 90 88 89 88 90 88 82 80 74 76 81 79 72 71 66 76 76 82 87 90 86 88 86 90 93 92 88 92 86 88 87 86 86 81 72 79 79 83 87 90 92 86 88
58 68 67 78 91 95 96 92 93 94 91 91 92 92 91 91 88 86 89 90 93 93 89 83 82 76 78 85 84 87 89 92 91 90 94 95 95 92 86 82 85 88 91 90 81 82 84 83 91 87 88 90 88 89
57 51 58 52 61 77 80 78 87 89 92 96 95 93 91 91 92 95 95 93 96 99 93 87 86 83 83 84 86 89 91 89 91 95 92 90 89 94 84 80 81 84 83 97 96 86 90 79 84 84 86 88 90 89
56 55 49 49 45 44 50 59 73 82 86 91 96 97 98 98 98 98 97 92 96 99 98 90 83 80 82 86 86 87 86 89 95 94 87 85 88 97 88 75 70 80 88 92 87 88 86 83 78 83 89 88 82 77
56 57 53 51 47 42 41 44 47 54 65 78 87 90 92 94 98 99 95 90 94 99 98 95 87 79 80 87 91 91 91 93 95 94 85 90 90 97 90 77 54 79 85 80 79 81 79 79 84 84 81 75 70 66
54 52 53 56 61 50 45 46 49 52 55 63 68 75 85 87 94 95 95 91 93 99 99 98 90 86 87 92 96 94 93 95 93 92 89 93 84 92 84 67 68 70 75 75 75 78 89 85 81 76 73 62 56 54
53 50 49 52 47 47 46 44 49 50 52 58 63 64 75 82 84 86 92 93 97 99 98 97 95 96 92 94 97 96 95 96 95 88 85 91 76 81 68 72 71 70 75 81 84 87 84 79 73 69 62 57 56 53
47 46 45 47 50 50 49 46 45 46 49 55 58 65 74 81 83 86 91 98 98 98 98 97 96 98 94 97 98 98 97 97 97 78 81 84 70 69 71 72 73 77 76 81 85 79 76 73 72 64 64 65 63 60
51 49 44 43 45 48 50 51 50 50 52 56 58 64 70 74 84 87 91 92 95 96 96 93 95 96 97 98 98 98 98 96 94 70 86 85 74 73 74 76 77 77 76 74 73 72 74 75 70 68 63 61 56 59
54 53 50 50 50 49 50 51 52 53 56 55 56 60 65 68 72 77 78 81 85 88 85 89 88 88 90 90 93 95 94 93 89 83 86 78 71 74 74 73 75 73 67 65 68 70 75 75 64 56 57 56 60 70
59 60 59 56 53 51 50 50 51 52 49 51 48 53 52 62 66 64 64 72 79 78 79 79 74 69 72 77 82 83 88 92 90 92 87 78 82 76 73 71 71 73 74 69 68 70 57 48 50 59 65 76 77 76
61 59 59 58 56 55 55 55 51 47 48 43 47 52 51 54 50 53 59 73 76 74 71 66 67 66 73 76 79 85 79 77 78 79 72 67 76 67 66 67 66 60 51 43 42 42 43 50 58 69 82 86 85 80
68 67 67 66 63 60 59 59 58 56 52 52 50 52 47 47 51 53 54 58 63 67 68 66 63 61 64 67 71 73 75 66 55 44 40 52 66 58 44 39 37 35 32 34 40 45 50 58 64 81 92 90 83 86
73 72 70 69 68 66 66 63 63 63 57 55 47 48 47 50 53 57 58 59 63 63 59 56 60 63 63 65 63 60 53 38 36 45 48 47 45 37 34 34 33 34 37 42 49 63 75 75 79 97 98 88 90 85
77 75 71 72 72 70 70 69 66 59 60 55 52 51 57 58 61 62 59 58 57 53 53 58 56 51 47 56 52 44 43 41 42 45 48 51 43 38 42 40 40 40 44 50 52 74 86 89 98 98 93 90 90 83
80 77 76 75 75 76 77 77 75 72 65 60 58 59 60 60 60 56 52 55 52 51 52 58 56 54 53 43 43 42 42 47 56 60 54 41 38 40 38 43 43 46 49 53 63 84 93 98 98 97 90 91 86 84
79 76 77 78 78 79 79 79 79 72 65 63 61 62 63 59 53 50 51 54 58 64 72 69 71 57 53 51 51 50 54 51 50 50 43 43 44 44 40 43 45 47 54 62 89 96 98 98 98 95 95 89 85 80
75 73 72 74 79 82 82 79 74 75 68 65 62 59 57 56 56 56 55 56 64 69 68 65 54 47 47 42 44 46 47 46 47 48 43 41 46 50 49 50 48 51 59 87 97 97 98 98 97 96 91 85 78 64
85 82 82 80 82 78 73 69 66 63 61 59 61 65 65 65 62 58 59 64 73 67 62 58 49 42 44 47 47 50 49 49 50 54 56 54 49 55 50 46 49 56 78 96 98 98 98 98 96 89 84 79 65 53
89 86 86 85 83 77 71 69 70 73 71 69 68 70 69 68 67 70 71 69 65 53 51 49 52 55 55 57 57 54 50 53 60 62 55 54 56 60 59 58 62 67 84 98 98 98 96 93 89 86 80 67 55 49
94 92 90 87 84 80 75 77 80 78 78 73 75 78 75 75 72 71 68 53 48 51 55 57 55 54 56 50 51 50 55 68 69 68 66 69 70 69 69 67 66 72 87 98 98 96 93 89 83 75 75 67 57 50
98 98 97 95 89 90 82 82 81 81 81 82 79 76 70 70 73 72 57 46 46 54 59 61 63 60 59 61 62 64 72 76 78 80 82 81 77 76 78 75 73 74 88 95 91 88 85 80 77 79 79 72 60 49
99 98 97 91 87 87 84 83 80 80 76 81 77 70 66 73 72 68 53 46 57 56 59 62 66 66 71 71 69 74 83 81 81 91 92 95 90 84 85 85 83 82 86 88 89 87 87 87 85 82 75 64 56 46
97 95 87 81 85 85 81 79 78 76 77 77 72 68 74 80 82 69 50 59 59 66 71 69 68 71 78 82 81 81 83 86 92 92 97 97 93 92 90 89 91 92 89 88 90 91 89 86 79 73 62 54 49 45
94 83 80 79 84 83 82 79 76 77 73 69 71 83 92 92 76 56 59 62 71 74 72 72 75 77 75 79 85 89 91 90 92 96 97 94 88 89 96 97 93 93 93 96 95 90 85 77 70 60 56 55 50 48
76 72 74 78 79 77 79 76 75 73 69 71 82 90 95 85 68 76 77 81 83 77 75 76 77 79 81 81 83 84 85 86 89 91 90 94 92 91 93 96 97 97 96 96 93 89 82 75 69 65 62 63 60 56
65 68 81 81 91 94 85 80 78 72 78 86 91 85 81 79 80 82 82 82 80 75 74 76 78 80 85 87 82 80 82 84 86 89 87 95 97 94 94 96 98 98 97 98 97 94 90 85 79 76 73 68 66 67
79 88 92 92 96 86 76 88 84 86 90 93 93 90 83 81 89 87 88 89 84 75 73 75 79 84 86 86 82 80 83 86 87 87 90 94 96 97 98 97 96 97 98 99 98 96 93 91 89 83 80 76 73 72
85 89 91 94 92 84 88 93 91 90 95 96 94 89 84 91 89 88 90 85 82 80 81 88 91 91 91 91 91 88 88 90 91 94 95 95 96 96 97 99 99 98 98 98 98 96 96 94 91 88 85 83 81 79
85 87 89 92 91 93 93 92 94 93 92 92 91 93 93 92 86 76 79 83 85 91 92 91 92 92 93 94 95 95 91 89 91 95 96 97 98 98 98 98 98 98 98 98 96 93 89 88 88 87 88 89 90 92
89 89 89 92 92 89 89 92 90 88 89 91 91 91 92 94 93 86 88 91 93 92 89 88 89 89 92 95 98 99 98 96 95 97 97 98 98 98 98 98 98 96 94 94 95 95 94 94 93 93 93 95 97 97

GFSWCAN_prec_cthk_009.txt.gz
RH
96 89 75 55 47 47 48 46 49 48 45 46 47 47 46 44 43 43 43 46 47 49 48 51 54 54 61 71 77 75 79 77 84 83 83 83 85 85 80 74 75 81 87 92 89 88 82 68 65 75 74 73 81 74
95 94 90 83 68 60 53 54 55 57 54 59 59 58 57 57 52 48 50 50 51 56 56 60 58 59 68 73 79 80 81 79 80 84 83 85 89 91 88 86 78 86 83 84 83 75 63 69 75 70 81 81 75 84
96 95 94 92 90 85 75 67 58 60 62 71 71 67 69 70 76 75 60 54 56 61 61 64 57 64 70 75 80 83 80 78 80 82 89 93 93 91 91 87 87 87 87 85 83 70 66 74 70 73 73 77 81 84
92 94 96 93 92 89 80 73 63 63 69 76 69 71 78 81 83 79 72 69 69 71 76 75 68 68 72 76 78 80 84 85 85 89 93 95 95 93 88 86 89 92 93 86 78 77 75 70 77 78 79 83 87 83
88 89 91 90 92 90 86 80 78 74 71 76 77 78 82 88 87 81 81 82 88 93 90 85 78 80 83 84 84 82 82 86 91 94 95 93 94 95 84 84 85 85 83 91 85 76 84 74 76 84 87 85 78 76
76 77 76 78 82 86 87 85 83 81 84 79 84 90 92 93 92 92 90 87 90 96 96 89 82 76 80 82 82 83 84 87 92 93 93 87 86 94 86 76 75 74 83 87 90 82 79 80 84 90 81 72 78 78
70 70 68 64 60 68 64 73 76 81 84 89 93 96 98 98 97 97 93 90 93 96 96 89 82 77 74 74 76 79 81 87 92 93 86 88 87 97 95 89 67 80 82 84 76 80 84 84 80 76 75 82 75 68
72 68 69 72 68 62 58 54 50 56 63 76 85 90 97 97 97 96 96 96 98 99 99 94 85 86 84 84 85 80 79 85 85 85 86 88 84 88 90 75 74 74 77 76 78 77 78 74 72 72 74 73 73 71
64 66 66 63 65 68 65 67 58 52 53 55 65 74 79 84 90 93 97 96 94 97 97 93 87 92 89 88 91 88 85 86 85 79 82 89 81 85 82 77 78 74 73 66 66 65 64 71 70 75 67 60 55 57
64 63 64 67 62 57 59 66 71 68 67 69 69 69 71 72 70 70 81 83 80 98 98 91 85 91 86 85 86 80 83 87 86 74 83 85 74 65 70 67 62 58 56 57 61 67 74 64 57 52 52 49 46 43
66 64 65 65 62 60 61 62 63 68 79 79 75 78 79 77 71 73 71 73 75 77 79 74 69 77 79 80 86 92 94 93 88 76 83 77 67 51 48 47 55 63 67 72 75 75 70 58 53 46 38 39 40 38
64 66 67 66 65 64 61 61 64 66 68 71 79 78 76 76 79 83 82 81 79 81 75 66 66 71 76 79 83 85 87 84 73 70 74 64 50 42 49 55 61 63 68 72 72 66 51 45 39 36 36 36 37 40
62 63 63 65 68 67 68 72 70 66 66 67 65 71 76 82 86 82 77 75 71 65 67 70 76 77 80 80 81 77 78 72 64 65 58 54 53 57 57 61 63 64 64 66 64 58 52 41 33 36 38 35 41 44
64 61 64 67 66 67 67 71 73 72 71 62 63 66 64 64 67 68 69 67 69 70 71 76 77 74 73 73 73 69 66 65 69 64 61 64 60 59 63 70 80 79 73 66 54 44 40 39 37 33 35 40 45 51
64 65 66 63 64 63 66 68 70 70 70 62 60 63 61 66 65 66 67 67 68 68 69 67 67 67 68 67 62 60 61 61 63 60 65 61 64 67 66 64 61 58 52 48 44 42 39 39 41 39 39 40 49 56
73 70 68 67 67 71 73 71 68 68 63 57 56 54 54 55 56 55 57 59 62 64 63 61 62 62 59 60 62 60 63 56 55 60 59 55 57 58 57 53 47 43 42 42 38 37 39 41 42 46 42 44 56 69
65 65 69 70 70 71 70 71 73 72 66 60 56 54 55 55 55 57 60 66 68 64 57 53 56 53 53 58 59 53 52 49 47 46 47 47 49 46 43 39 39 43 45 44 43 43 46 47 50 53 48 50 63 89
77 78 76 75 77 78 79 79 77 72 68 63 59 58 57 58 63 62 61 64 65 66 62 61 56 56 54 53 46 42 41 41 44 46 43 36 40 42 43 48 52 50 48 47 48 49 51 53 59 69 60 67 81 99
75 77 78 80 82 84 86 86 79 72 67 65 64 64 66 67 68 71 70 73 72 73 68 62 61 54 45 39 40 39 41 45 49 47 42 38 44 53 58 52 49 46 47 51 57 59 64 72 76 76 68 84 99 98
80 82 86 89 89 88 89 84 83 84 81 80 76 75 73 69 67 64 64 63 64 67 66 65 54 45 46 42 43 45 45 45 48 48 45 46 52 54 46 48 53 57 63 67 68 75 88 87 81 75 88 98 98 98
82 84 86 88 90 90 89 83 84 81 79 76 71 69 64 59 60 59 61 66 64 62 55 44 38 36 41 41 41 45 46 53 56 66 68 61 47 50 55 64 73 73 76 78 78 78 88 83 75 84 98 98 98 98
83 88 90 91 90 88 83 81 78 76 70 67 66 66 64 59 56 57 62 62 57 49 47 41 41 43 42 43 47 52 56 63 66 64 60 63 70 70 71 76 75 73 81 83 82 83 81 79 79 94 98 97 96 95
89 92 91 90 88 84 77 77 79 76 76 70 65 63 60 59 56 61 62 51 44 47 51 50 47 48 48 48 52 56 66 72 67 65 68 77 84 87 88 81 91 95 90 82 89 88 85 82 81 87 98 98 95 88
92 95 93 88 85 84 78 80 77 76 71 72 75 73 69 65 63 63 57 47 47 51 48 48 52 52 55 59 65 67 66 70 72 75 82 86 82 77 78 88 96 98 93 90 90 86 85 86 86 88 95 96 92 92
95 93 87 81 78 74 74 74 73 74 74 81 79 70 66 68 73 66 56 47 49 46 49 55 60 62 61 62 66 69 69 72 75 78 81 83 79 76 76 84 90 93 90 91 97 97 92 95 98 97 94 95 95 94
94 85 76 69 70 71 73 72 75 76 79 81 76 72 73 83 80 68 51 47 50 55 61 66 69 71 73 78 79 79 73 74 74 74 79 85 86 86 79 80 82 86 90 92 96 96 96 96 96 96 97 96 93 83
92 80 75 72 75 76 79 78 79 84 84 83 80 83 90 91 76 55 52 57 61 70 79 81 80 83 85 86 91 92 84 81 76 75 79 84 87 81 77 81 84 89 89 87 92 93 93 95 98 98 98 94 85 78
83 79 81 83 88 88 91 87 85 83 83 82 83 86 86 76 63 63 71 73 78 77 78 80 84 90 91 92 94 94 84 76 74 78 86 88 89 84 82 83 86 88 90 91 94 94 95 98 98 98 97 94 90 86
81 79 82 83 85 87 86 83 78 74 76 80 84 81 74 74 75 77 79 83 82 83 83 82 85 94 96 97 95 94 89 82 80 81 85 84 85 87 86 83 86 91 96 97 98 99 99 99 99 99 98 98 97 96
72 76 80 76 82 81 68 71 67 70 80 85 89 89 83 75 74 82 80 80 84 85 87 89 92 91 87 88 90 88 87 89 93 90 87 87 89 89 85 82 84 88 95 97 98 99 98 98 99 99 99 99 99 99
68 71 76 75 76 70 70 74 79 82 81 82 83 86 78 79 79 85 84 81 80 83 89 91 93 89 86 89 91 91 95 93 91 89 89 90 91 91 92 92 90 90 91 93 96 98 98 98 98 98 98 98 98 98
80 83 85 86 81 77 83 86 85 82 80 82 81 83 81 89 88 82 78 82 82 83 87 91 91 91 91 92 90 90 91 90 90 91 92 92 92 92 92 93 95 96 98 98 98 98 98 98 98 98 98 98 98 98
66 72 79 88 92 91 86 90 85 79 75 74 72 77 81 86 91 90 88 89 91 93 93 89 90 93 94 94 92 91 93 94 95 96 96 96 96 97 97 98 98 98 98 98 98 98 98 98 98 98 98 98 98 98

GFSWCAN_prec_cthk_012.txt.gz
RH
98 87 71 54 45 45 49 52 52 50 51 52 52 51 50 50 48 45 41 39 37 37 38 39 41 44 47 50 55 60 67 66 77 82 85 82 82 80 80 74 78 78 86 90 89 91 87 72 79 86 81 76 77 71
98 96 85 66 54 49 49 48 47 48 48 49 50 50 48 46 46 44 42 41 41 41 40 40 41 47 53 56 58 70 75 76 81 83 86 87 90 87 85 84 77 86 82 83 80 76 72 78 81 80 83 79 76 83
98 97 95 89 75 73 67 56 51 49 48 50 50 51 51 50 50 50 58 53 55 61 60 57 49 48 51 57 61 72 76 79 81 81 88 92 92 89 91 89 92 90 84 83 87 70 75 80 78 81 79 82 84 83
98 99 95 92 91 89 74 68 62 57 54 55 55 56 60 60 61 68 74 70 72 77 77 67 61 59 57 63 70 79 80 84 88 90 93 96 96 95 92 93 93 93 90 91 86 82 80 81 85 83 89 90 82 80
97 98 99 98 98 98 97 92 81 72 72 71 67 64 62 66 65 75 75 74 76 81 81 78 71 67 70 75 81 84 87 92 92 92 93 95 95 98 91 89 88 85 80 91 83 86 91 78 85 86 86 82 88 87
94 95 98 97 96 96 95 94 92 88 88 85 79 78 74 74 75 76 79 77 80 88 89 84 78 73 78 82 85 83 83 86 90 90 89 86 86 94 91 85 74 73 81 86 89 93 90 91 90 87 84 85 82 79
83 83 88 89 91 92 92 93 95 93 91 91 87 84 81 79 80 83 84 84 86 94 93 89 83 79 77 78 81 84 85 85 88 89 83 83 83 92 93 82 60 77 81 86 91 91 87 92 85 78 88 75 63 57
78 79 75 72 70 71 80 79 84 88 88 91 96 99 97 96 92 90 93 95 96 98 95 91 87 86 85 84 86 85 86 88 87 88 85 84 83 85 83 56 67 70 72 80 85 73 75 74 75 68 62 57 54 56
79 79 77 76 72 66 63 65 61 61 68 79 92 98 97 96 95 93 99 98 99 99 95 87 87 90 88 93 96 94 90 82 77 75 74 79 78 79 71 76 73 68 70 67 68 67 63 64 59 58 61 59 57 54
80 80 76 71 69 68 68 68 69 63 65 69 67 72 79 87 92 98 99 99 98 97 93 87 85 87 88 94 95 89 87 89 87 80 86 81 70 65 64 58 54 53 51 51 54 64 76 82 71 62 69 63 57 55
76 73 73 74 69 65 61 60 65 74 77 74 78 78 76 76 80 85 93 85 80 77 78 79 82 73 68 77 87 92 87 84 83 78 81 76 70 66 54 51 52 54 55 63 75 78 68 66 69 59 52 49 41 35
76 75 73 71 70 69 68 67 67 67 70 76 81 87 87 86 88 90 88 85 83 81 78 75 75 80 82 83 84 82 80 80 76 73 81 75 73 57 52 53 57 75 82 73 67 68 74 72 68 61 53 45 39 39
69 74 74 72 72 70 69 70 68 65 66 73 77 83 85 91 95 90 86 84 83 78 75 72 74 78 80 81 83 80 81 79 77 78 71 63 56 59 67 73 68 67 65 65 66 66 67 66 58 46 43 40 43 41
68 67 71 73 71 70 71 70 69 71 74 66 65 75 75 79 79 80 81 81 83 84 84 82 79 75 73 74 75 75 73 75 77 74 61 58 60 64 67 67 62 62 63 61 57 55 49 42 38 34 35 42 47 46
73 68 69 73 71 69 70 70 68 69 68 62 65 71 71 73 70 70 74 76 78 78 75 76 77 76 76 75 72 71 71 72 64 61 63 63 64 63 62 61 60 59 54 48 42 38 38 38 38 37 37 45 48 49
78 73 73 71 69 69 68 67 70 69 67 62 61 62 64 64 65 68 69 70 70 68 66 64 64 65 65 66 67 65 67 59 58 63 64 66 66 63 55 50 47 45 42 40 41 42 42 42 43 44 44 47 53 58
75 78 81 78 72 68 70 72 73 69 64 63 61 59 59 58 56 56 55 58 61 60 59 55 57 53 52 57 59 57 56 52 57 56 54 56 59 55 52 46 41 45 47 45 42 40 41 44 51 55 55 61 70 73
81 80 73 70 72 72 74 73 71 67 64 61 62 58 59 58 58 57 57 61 67 63 57 54 50 52 54 57 52 49 51 49 48 50 45 43 45 46 45 47 48 46 43 44 48 51 54 59 63 62 72 80 81 78
76 74 69 68 71 72 74 76 72 65 61 62 61 61 60 57 56 57 59 65 69 72 69 63 61 56 50 44 42 39 41 47 50 47 41 40 43 47 49 52 47 47 48 52 58 62 64 69 72 77 83 79 76 93
76 75 75 75 77 77 77 74 74 75 69 67 65 67 66 66 67 69 74 76 77 75 71 64 55 45 44 35 39 43 45 47 48 47 41 41 46 52 50 50 51 58 60 61 62 65 72 72 72 79 80 76 91 98
76 75 74 77 78 78 78 74 76 74 74 74 74 74 72 69 67 65 64 63 65 64 61 46 40 37 39 38 42 45 45 49 50 56 55 49 48 55 55 57 68 69 72 72 79 84 81 79 79 80 78 79 96 98
75 75 74 77 77 76 75 75 74 74 72 72 69 69 66 62 60 59 60 62 59 51 45 39 39 40 41 43 44 47 48 50 53 57 63 67 63 61 65 70 73 72 70 82 94 92 85 85 85 82 79 80 89 98
75 77 78 79 79 78 75 77 77 76 76 72 70 68 61 58 55 59 62 58 50 44 42 43 43 44 45 45 48 51 58 61 61 63 65 67 67 72 75 73 76 75 73 82 95 90 86 91 87 83 85 82 85 91
77 81 82 82 81 79 77 79 79 78 75 76 74 68 63 61 61 64 58 49 47 47 49 48 49 48 49 51 55 61 65 64 66 69 69 68 65 68 75 77 75 80 85 84 91 90 90 90 93 94 96 97 97 98
79 82 79 78 79 79 78 74 70 72 70 72 68 64 60 64 68 66 57 47 50 48 47 51 53 56 59 61 64 66 70 73 75 76 79 78 77 73 71 73 79 80 82 83 93 94 93 91 94 95 97 97 96 98
81 77 70 70 72 68 68 68 71 73 74 76 73 68 69 76 75 66 56 53 53 52 54 60 65 69 73 74 75 76 79 82 84 83 86 83 80 77 76 79 74 73 81 87 90 93 94 92 92 96 96 96 98 98
82 74 71 66 67 68 72 76 78 77 77 76 74 76 81 85 74 59 57 60 59 60 64 71 75 78 81 82 83 82 83 85 88 87 88 87 81 81 85 85 81 83 83 84 90 92 95 96 94 92 96 98 99 98
75 69 68 74 80 85 89 88 86 84 81 79 80 79 81 76 64 61 66 71 73 74 75 77 82 86 84 80 79 79 85 89 91 92 93 89 86 90 89 89 89 89 85 84 90 95 99 98 98 99 98 99 99 98
82 81 87 91 93 95 97 93 81 74 73 77 79 76 72 70 67 71 79 81 79 78 77 77 79 87 88 92 89 89 90 86 86 87 85 86 93 94 90 88 89 89 88 86 89 93 97 98 98 98 98 99 99 99
90 91 95 93 90 82 71 73 67 70 76 77 76 73 73 70 69 80 79 79 80 83 84 84 84 82 82 83 86 90 90 90 93 95 94 95 91 88 87 88 88 88 88 90 93 95 95 96 97 98 98 98 98 98
73 72 74 71 69 64 66 70 74 78 79 78 77 78 75 72 70 74 79 79 82 84 87 89 90 85 83 83 88 92 96 97 95 95 94 92 91 91 91 91 91 90 91 92 93 94 95 95 96 97 98 98 98 98
67 70 74 77 75 77 85 86 86 86 86 85 81 76 73 78 81 81 78 83 87 91 94 96 97 96 94 94 94 94 97 98 98 97 97 98 97 97 97 97 97 96 95 95 96 96 96 97 97 97 97 98 98 98
49 40 35 39 40 44 46 56 64 70 71 73 74 76 77 83 87 86 86 89 92 93 94 96 97 98 98 98 98 98 98 98 98 98 99 99 99 98 98 98 97 97 96 96 95 95 94 94 93 94 95 97 98 99

GFSWCAN_prec_cthk_015.txt.gz
RH
93 81 64 59 56 60 60 60 60 59 56 54 51 50 49 47 46 44 42 40 37 36 35 34 34 34 36 39 44 46 53 53 62 65 71 74 81 80 81 78 81 83 87 88 89 93 85 70 74 80 79 77 82 83
99 90 78 65 50 51 54 57 57 56 57 56 55 55 54 53 52 50 47 45 41 39 35 33 32 35 39 42 47 54 55 55 64 69 74 80 87 86 86 89 78 87 80 83 83 84 77 80 80 79 82 82 81 87
97 94 89 85 74 70 68 60 56 58 57 55 55 55 56 56 54 52 50 48 43 41 39 36 43 53 52 56 61 67 67 69 68 71 83 93 93 90 92 89 88 90 85 85 91 84 77 84 82 86 88 86 94 95
98 98 97 94 88 83 70 68 51 51 53 53 52 52 53 56 54 53 51 51 50 50 54 49 53 56 59 60 62 67 70 73 77 81 86 93 95 92 90 91 94 89 89 94 92 85 81 79 78 91 90 96 97 92
98 98 99 98 98 94 80 72 56 56 57 55 54 53 53 55 56 56 55 55 56 61 66 61 58 58 62 65 68 73 76 77 83 89 93 92 93 96 91 91 91 84 83 89 87 81 83 76 91 90 92 88 86 82
97 98 98 99 99 99 95 86 75 72 68 71 65 62 63 62 62 64 68 59 56 65 72 75 70 66 67 71 74 76 82 88 90 89 88 84 85 92 86 81 75 79 82 89 85 81 82 86 88 84 97 88 71 72
95 98 98 98 99 97 97 98 95 93 92 90 84 83 80 81 79 76 75 73 67 71 76 82 81 76 72 75 80 84 86 86 87 87 84 84 87 95 90 82 71 78 84 87 81 81 86 85 92 92 75 62 53 54
88 94 96 96 97 98 93 95 96 97 99 98 98 97 97 94 93 93 90 86 82 83 86 89 85 84 82 80 83 87 89 89 88 88 86 86 88 89 85 68 72 80 78 76 74 71 68 65 62 56 55 52 51 61
82 86 83 82 84 87 90 92 95 97 99 99 98 99 99 98 96 94 99 97 99 96 93 87 86 90 92 93 93 92 91 91 88 85 84 82 82 83 77 77 74 68 63 62 58 57 58 58 58 55 59 66 67 65
81 84 88 86 76 73 74 76 78 83 93 98 99 99 98 97 99 98 99 99 98 97 95 92 91 93 94 97 99 98 93 84 80 78 80 80 75 75 72 65 59 57 54 55 56 62 67 67 72 69 69 67 66 57
84 82 82 81 80 79 78 74 73 73 72 82 91 96 98 97 96 95 98 96 96 93 92 93 94 94 91 92 96 92 92 94 91 82 87 84 80 73 67 64 61 56 57 64 74 80 85 78 59 46 45 48 52 60
87 88 85 76 75 75 76 76 75 75 81 79 77 78 82 84 84 84 89 91 88 91 90 87 86 86 90 92 96 95 90 89 87 83 85 83 78 76 71 66 64 63 71 75 70 56 52 57 61 64 63 56 48 48
85 87 84 77 76 77 74 76 74 73 70 73 77 88 88 89 88 86 81 82 84 82 81 82 85 88 87 88 91 92 92 89 88 87 83 71 67 66 66 66 67 63 63 58 56 56 57 56 53 50 46 44 44 44
84 86 87 82 76 77 77 76 76 75 73 72 75 78 78 81 80 80 80 81 85 87 86 87 90 89 88 89 88 85 80 80 83 80 69 66 65 65 61 58 58 59 58 59 57 56 54 44 39 38 40 42 42 43
82 84 87 86 81 80 79 76 76 75 72 67 68 70 73 70 71 73 76 77 80 82 83 85 87 85 84 83 78 79 81 81 75 68 67 65 64 63 63 61 60 58 55 53 45 41 38 39 40 37 35 40 48 56
84 82 82 84 85 83 79 75 74 74 73 67 64 65 68 72 74 75 76 77 79 78 75 77 76 75 75 76 75 71 73 65 63 66 62 62 62 62 58 53 50 48 48 43 40 40 40 40 43 45 45 50 58 62
89 79 75 75 76 78 78 78 78 75 68 64 61 62 64 65 66 63 64 65 66 66 63 63 61 54 57 65 66 64 63 61 59 58 59 59 58 53 51 49 46 44 42 42 43 42 43 45 48 52 54 55 62 68
91 87 85 81 79 79 76 73 72 68 64 62 60 58 60 59 58 59 58 58 58 59 57 53 50 50 53 56 56 55 55 54 47 44 44 45 46 45 47 48 46 48 46 44 46 50 53 54 57 62 66 65 65 74
86 87 85 82 79 77 75 75 71 63 59 59 59 58 57 56 54 52 54 55 57 64 64 59 55 51 52 51 49 48 45 43 43 41 38 39 44 46 46 49 51 49 48 50 53 55 56 63 77 77 75 74 74 74
85 82 78 77 75 72 72 70 67 66 63 64 65 63 58 56 57 57 59 61 66 71 68 64 58 54 49 43 45 45 44 44 44 41 37 36 41 44 48 53 52 53 53 55 56 58 57 69 86 83 80 80 79 77
83 80 78 77 75 73 73 69 71 69 67 64 64 65 65 65 66 66 67 70 71 67 65 56 47 43 43 41 43 44 42 45 47 49 45 39 45 53 52 54 55 56 61 60 58 57 64 78 85 82 86 85 85 81
82 79 78 76 74 73 70 67 65 66 62 65 66 68 66 64 62 59 60 60 57 51 47 42 40 40 40 40 41 43 44 46 47 50 53 56 52 52 53 55 56 57 62 65 64 65 70 82 87 88 88 89 85 87
78 77 77 74 72 69 69 68 69 69 71 70 70 66 62 61 58 57 59 56 49 42 40 41 41 41 42 41 45 47 49 50 52 58 60 59 61 65 63 62 66 66 67 68 73 72 74 84 90 87 86 89 92 93
76 74 72 71 69 70 70 71 73 75 75 76 72 68 64 61 60 62 57 48 42 41 42 42 44 42 44 47 49 52 55 57 59 61 66 70 72 71 74 73 73 75 75 74 76 69 73 82 88 89 89 90 94 96
71 76 70 68 70 72 76 81 82 81 75 71 68 64 57 59 62 60 52 43 45 45 46 46 48 50 52 55 59 63 67 69 73 72 76 81 79 78 78 80 75 75 78 80 82 80 77 84 88 92 93 92 93 97
70 69 66 64 72 74 74 72 71 69 69 69 66 61 63 66 64 56 48 47 49 50 52 54 55 58 61 65 68 72 76 79 78 73 71 79 86 90 84 80 76 74 84 85 85 86 85 85 89 93 96 96 97 97
77 73 71 68 70 70 70 70 69 71 73 74 71 72 73 72 64 53 52 57 60 62 62 67 72 74 73 76 79 78 80 82 81 78 80 87 89 91 88 83 79 82 82 82 86 87 84 85 90 95 97 97 97 99
77 73 73 77 77 77 74 75 77 78 77 75 76 75 74 69 61 57 62 66 72 72 72 74 75 78 78 77 78 80 81 82 83 85 88 88 88 90 89 90 91 87 81 80 81 85 90 91 91 93 96 96 97 98
75 77 84 88 90 90 87 86 80 77 80 82 83 76 73 70 69 69 70 73 72 72 72 75 78 85 82 83 81 81 83 81 81 86 89 89 94 97 96 95 90 86 84 84 84 85 87 90 93 96 97 98 98 98
88 91 92 90 90 88 82 82 75 75 79 81 80 76 73 72 75 77 75 73 73 75 76 79 81 82 82 84 85 86 85 86 86 89 91 94 95 97 95 93 91 91 92 91 90 91 93 93 92 92 93 94 96 98
79 79 80 79 76 69 67 67 68 69 73 75 79 82 78 80 83 82 81 79 77 76 79 84 85 87 88 89 91 92 93 94 96 98 98 98 98 98 97 96 96 95 95 95 95 95 94 94 94 94 94 95 97 98
69 68 66 63 53 46 42 41 40 37 36 41 44 50 61 74 80 86 86 82 80 82 86 90 92 93 93 92 92 93 94 96 96 97 97 98 98 98 98 96 95 95 95 96 96 95 94 93 92 92 92 92 93 94
51 49 48 47 42 37 34 38 39 37 42 54 57 50 56 74 81 79 83 90 91 92 92 93 94 94 95 96 97 98 97 96 95 95 97 98 98 98 98 97 96 94 93 89 86 86 87 88 88 88 89 90 92 93

GFSWCAN_prec_cthk_018.txt.gz
RH
95 88 81 66 62 63 63 63 60 59 57 53 50 46 44 42 42 42 41 40 38 36 34 33 33 32 32 33 37 36 42 48 56 61 66 66 70 69 69 67 72 77 85 87 91 94 85 69 74 80 78 73 76 78
96 93 90 83 65 60 62 63 64 63 62 61 59 55 51 48 46 45 44 44 43 41 38 36 35 35 34 36 41 47 51 57 63 65 69 73 77 76 76 83 75 84 77 85 85 82 71 75 75 78 78 77 80 81
96 95 91 86 74 61 60 63 64 63 64 63 62 60 58 56 54 52 50 50 48 45 41 38 35 35 35 40 47 55 60 65 67 69 74 81 82 82 84 85 84 79 79 84 85 74 66 72 79 80 81 83 85 90
98 98 96 92 80 70 60 61 64 63 62 61 62 62 61 60 59 57 55 54 52 49 45 38 36 36 41 46 52 57 63 70 72 75 80 86 89 85 87 87 88 85 87 89 86 75 74 75 88 87 92 88 95 99
94 97 97 96 90 88 72 64 59 58 61 61 61 61 60 60 60 59 58 56 53 50 48 41 38 39 42 47 54 60 66 73 78 84 85 86 89 93 92 90 89 90 88 92 85 77 86 85 87 91 92 93 88 83
92 96 97 97 96 94 84 75 67 73 75 72 64 58 59 57 56 56 55 52 51 50 54 49 42 40 43 48 54 62 74 81 86 83 87 87 90 94 91 88 81 88 90 87 86 85 93 93 91 90 88 81 74 66
92 94 97 96 97 96 93 92 91 83 81 73 71 59 60 59 62 65 61 55 56 63 65 64 60 54 54 55 62 72 82 86 87 89 89 90 92 96 92 89 88 88 82 84 84 90 92 90 89 78 62 55 57 63
87 90 96 98 98 99 98 98 97 92 91 87 83 71 72 76 80 79 76 73 72 76 77 78 77 73 70 71 79 81 82 86 86 88 88 91 95 97 93 86 82 81 78 78 82 82 81 75 65 57 61 66 60 55
78 89 93 97 97 98 98 98 98 98 99 98 96 96 92 91 96 96 96 96 96 96 95 88 87 89 90 94 92 90 86 86 86 87 91 92 91 87 82 80 77 72 78 81 75 73 64 62 64 68 72 69 60 50
78 86 88 87 91 96 97 96 98 99 99 99 99 99 98 96 98 97 99 98 98 97 95 88 90 93 95 96 98 97 97 96 92 87 87 83 86 83 81 78 76 75 73 73 71 66 65 62 65 66 65 52 48 42
73 79 88 88 80 84 89 93 96 98 99 99 98 99 99 99 99 99 98 98 97 94 93 93 95 96 97 98 97 96 97 96 90 85 90 88 86 81 80 79 76 74 70 66 58 53 54 63 62 56 46 47 48 51
72 77 88 89 82 81 82 84 90 94 96 98 98 99 98 98 97 96 96 96 95 95 93 93 94 96 96 96 96 97 96 96 95 91 90 86 80 81 78 75 72 68 64 56 55 55 56 59 58 54 48 46 42 39
79 81 85 86 86 86 88 89 89 93 92 94 94 95 94 94 94 91 88 88 91 89 87 86 87 89 91 93 97 97 95 92 91 92 89 80 72 71 67 65 63 60 56 54 53 56 59 52 47 46 40 40 42 42
83 88 89 87 84 81 84 85 84 83 84 85 87 93 89 92 91 89 85 82 83 85 87 88 89 91 92 94 94 95 94 94 93 90 76 72 71 69 65 62 59 52 52 54 53 47 42 41 37 35 37 41 44 45
84 94 96 92 86 85 83 86 89 85 81 77 72 76 80 77 78 80 80 80 82 84 84 86 85 85 87 88 84 86 87 83 79 73 71 70 66 65 62 55 50 47 47 42 43 42 37 38 39 38 38 42 49 54
87 95 97 95 91 87 86 87 87 87 84 74 71 70 69 75 77 78 77 79 82 84 82 82 85 84 85 85 84 83 84 74 66 68 65 64 61 56 54 51 46 42 41 40 39 40 41 40 42 43 42 48 53 67
88 89 93 94 93 92 90 88 87 86 82 74 68 69 69 68 68 68 69 69 71 74 70 68 63 61 64 75 76 71 67 63 63 59 56 52 51 49 43 37 38 40 40 41 42 42 42 46 48 49 49 50 63 72
95 94 91 94 94 91 90 87 83 81 77 74 72 69 70 67 65 65 64 64 67 63 63 63 57 57 59 58 56 54 52 51 47 44 45 44 42 41 41 42 42 43 42 43 46 48 51 51 49 51 54 57 67 77
97 97 96 94 90 85 83 84 82 75 69 68 68 66 66 64 62 59 57 57 61 60 59 57 59 52 47 47 48 50 52 51 47 41 39 39 41 41 41 42 44 45 48 50 51 51 50 52 57 60 60 69 79 79
99 98 97 96 93 87 84 78 72 67 64 64 63 62 58 57 55 53 52 52 55 59 60 57 53 53 51 50 51 50 47 47 45 40 34 35 41 43 45 49 50 51 52 51 50 55 55 54 61 63 66 83 83 80
96 95 95 92 86 79 73 68 67 64 64 62 61 61 61 59 57 56 56 59 61 56 57 54 49 46 44 42 45 46 44 45 43 44 40 35 38 44 49 55 56 57 59 57 58 58 61 66 65 63 69 82 82 83
95 93 90 84 80 76 70 66 64 63 59 59 59 61 60 58 56 54 54 54 52 47 43 37 36 38 40 41 41 42 42 43 43 44 45 46 45 51 55 59 62 62 66 71 71 66 65 67 70 65 70 82 84 80
90 89 86 81 74 69 72 66 65 64 62 61 61 60 59 57 54 53 52 50 46 39 39 40 40 40 39 39 41 40 43 43 44 48 52 56 58 61 63 66 71 70 68 72 76 72 70 71 77 78 76 80 84 85
91 86 79 72 67 70 67 66 67 66 65 64 62 60 59 59 60 61 56 49 42 38 38 38 39 38 39 39 40 44 48 52 55 58 64 67 69 70 74 73 76 80 82 79 77 74 73 75 80 84 86 82 86 89
79 77 70 69 68 67 67 68 70 70 69 70 72 71 65 65 65 60 53 43 40 38 38 38 38 40 40 43 48 54 61 66 66 64 68 78 73 70 73 76 78 84 86 88 83 80 80 80 84 86 86 85 88 93
77 74 70 68 70 69 69 72 72 71 72 72 69 65 65 67 65 56 46 42 43 44 45 47 48 49 53 58 62 66 71 74 74 70 70 82 85 84 80 78 80 83 87 88 86 86 82 80 81 85 87 87 90 93
71 70 70 69 68 68 70 70 70 70 70 69 68 72 75 73 62 51 50 53 55 58 60 59 59 61 63 67 71 72 74 78 79 79 80 82 85 89 91 89 85 86 89 90 89 85 79 78 81 83 85 89 93 96
71 73 74 76 74 72 71 73 74 75 73 72 72 73 74 70 65 62 66 71 72 72 71 71 72 70 69 70 73 75 80 83 83 82 83 86 87 85 86 90 92 91 92 92 89 87 86 86 86 84 84 85 87 92
77 80 79 80 81 78 72 71 70 70 74 75 77 75 72 73 75 76 76 75 73 73 74 74 74 78 75 78 79 80 80 82 83 83 85 85 87 89 90 91 92 92 94 95 95 94 93 92 90 89 88 89 89 90
84 85 83 81 79 77 75 80 74 72 71 72 70 66 66 65 69 69 70 72 74 75 79 83 81 80 79 79 83 86 88 89 89 89 89 89 89 90 94 96 97 97 97 97 96 96 95 94 93 93 93 92 90 89
82 83 83 81 76 68 67 67 62 55 47 42 38 37 33 37 45 54 60 67 76 79 80 86 90 85 83 84 87 89 92 93 93 93 92 89 90 92 94 95 96 97 97 96 95 94 94 93 92 91 87 85 86 87
77 74 69 63 51 47 42 37 38 36 31 28 28 35 45 54 66 71 72 83 88 85 82 81 86 93 93 91 92 93 92 92 93 95 96 96 96 95 93 92 92 92 92 92 92 90 89 88 83 81 80 82 83 85
57 56 52 52 48 44 44 42 39 37 33 32 39 50 53 58 72 86 92 92 95 94 91 90 90 94 97 97 96 96 96 97 97 97 97 98 97 92 88 87 87 87 87 86 86 84 81 81 81 81 81 82 85 87

GFSWCAN_prec_cthk_021.txt.gz
RH
96 93 83 70 67 63 57 53 51 50 47 45 43 41 39 39 39 39 38 38 37 35 35 34 33 33 34 35 39 39 42 42 47 54 59 64 65 62 62 61 65 67 75 88 92 91 85 72 76 80 75 74 83 89
98 99 95 82 70 67 66 61 57 55 55 53 51 48 46 43 41 40 40 41 40 39 39 38 37 36 35 34 35 38 37 40 47 56 61 63 68 70 71 77 73 76 71 83 88 80 74 78 80 80 80 85 85 90
97 98 97 88 80 71 65 66 66 64 63 62 60 58 55 52 49 46 45 44 43 44 44 43 40 38 38 38 39 39 42 46 50 55 59 67 72 72 81 82 81 75 77 84 86 74 79 78 82 83 87 92 91 96
98 99 97 92 87 80 68 64 66 66 67 67 67 66 62 60 57 54 52 51 50 49 49 45 41 38 38 38 38 39 44 50 55 59 64 71 75 76 80 79 80 77 85 89 82 79 81 82 85 89 87 96 96 95
96 95 96 95 93 91 82 72 64 65 67 68 68 67 66 66 64 62 60 59 56 54 51 45 41 39 38 36 37 40 45 49 54 61 69 74 75 85 85 84 81 85 88 90 86 84 91 85 92 86 93 93 87 82
93 92 94 95 95 94 91 86 73 69 68 68 69 69 67 63 63 63 61 59 57 57 55 51 44 38 38 38 40 42 45 52 62 68 77 80 83 88 88 87 85 83 90 90 87 86 89 97 87 94 87 74 71 65
75 92 95 96 95 94 94 90 85 72 68 69 68 66 65 66 65 64 61 56 54 55 53 51 48 44 43 46 48 52 57 65 73 80 82 84 87 94 91 90 88 91 89 81 83 90 88 90 94 81 74 67 66 65
66 85 90 96 96 96 97 96 90 87 77 73 70 70 81 80 75 68 64 59 57 61 61 65 61 55 55 56 61 68 76 81 85 88 87 88 88 92 90 85 86 84 81 83 88 86 92 87 77 71 66 58 54 59
65 75 88 92 95 96 97 98 98 96 94 87 82 84 88 87 84 78 81 70 78 78 78 77 78 79 77 80 82 84 87 90 90 89 89 89 87 87 87 84 80 81 86 86 87 84 81 74 64 57 53 56 55 53
61 70 82 90 92 96 97 98 99 99 99 97 98 99 93 93 93 93 93 88 87 89 90 87 87 88 87 89 92 92 92 93 90 87 89 87 84 84 82 80 81 80 81 82 80 67 57 53 50 46 46 49 50 46
59 61 72 85 86 92 96 97 98 99 99 99 98 97 95 97 98 99 99 98 95 92 92 91 91 94 94 95 98 97 96 95 90 85 89 85 82 81 78 79 80 76 72 68 62 60 54 46 46 49 48 45 40 34
62 62 64 77 81 86 92 97 98 99 98 98 98 99 99 99 99 99 98 97 94 95 93 92 94 97 99 99 98 98 98 96 94 91 91 87 81 82 81 77 70 68 65 63 56 50 47 49 51 45 37 33 34 35
66 67 65 73 85 85 85 92 96 98 97 98 98 98 98 97 97 96 92 93 95 94 95 96 97 95 95 96 98 97 97 95 93 93 87 79 79 79 74 69 66 62 56 51 50 47 46 41 35 35 35 36 37 36
72 75 70 72 78 93 91 93 97 97 98 97 97 98 98 96 95 94 90 88 91 92 93 93 94 95 95 96 97 97 96 96 95 90 79 75 75 69 64 61 56 55 52 48 44 38 34 35 33 34 36 38 40 40
77 78 77 83 82 87 94 97 96 92 92 91 88 96 94 94 95 95 95 93 92 93 93 93 92 90 91 91 89 91 94 90 84 74 71 71 67 63 60 56 52 47 42 36 34 35 35 36 37 34 36 39 42 43
83 82 87 88 94 90 90 92 91 84 91 80 81 83 84 87 90 88 87 87 88 89 90 89 89 91 92 92 90 89 88 80 68 66 66 63 61 55 48 45 39 35 34 34 36 37 37 39 40 39 37 42 45 50
87 88 88 94 97 96 94 91 92 93 89 77 77 76 76 76 79 77 78 78 81 82 79 78 74 75 78 83 81 75 70 62 60 58 56 48 44 44 41 35 32 33 35 37 37 40 42 43 44 45 45 45 49 53
93 89 92 98 98 96 96 94 91 88 83 82 76 75 76 73 73 73 72 71 71 68 65 65 58 61 62 60 58 56 56 56 53 45 44 47 46 40 37 35 36 37 37 40 46 44 46 47 47 50 52 52 54 56
95 96 96 98 98 98 97 97 92 84 82 80 78 77 75 72 70 68 67 68 68 64 63 61 61 56 49 46 46 48 48 48 48 48 46 41 38 39 41 42 41 41 45 47 47 50 52 54 57 58 57 61 61 58
98 98 98 99 98 91 88 86 84 80 79 79 74 71 69 66 64 63 62 61 61 60 60 55 49 48 48 48 48 51 53 52 46 38 33 37 42 42 43 44 43 48 49 51 53 60 61 62 67 67 67 67 67 66
98 99 98 97 95 89 86 83 81 77 73 68 67 65 63 62 60 58 56 57 58 55 52 48 44 42 41 43 45 42 40 42 41 41 39 35 38 41 43 49 53 54 57 60 61 60 66 70 69 69 71 72 73 77
97 97 98 97 95 91 85 80 74 69 64 60 59 58 56 54 53 52 53 53 50 45 40 35 33 34 35 37 37 39 40 40 39 39 40 41 40 43 49 57 60 62 67 70 72 70 69 70 73 75 74 74 76 81
98 98 96 93 90 86 84 72 67 62 58 56 54 53 52 51 50 50 48 45 42 33 33 35 36 36 35 34 35 36 37 37 38 41 45 48 50 55 60 64 71 69 67 72 77 76 74 78 80 77 76 76 80 85
94 90 88 83 81 83 76 74 69 64 60 59 56 54 52 50 50 50 46 45 40 37 37 36 35 34 34 34 35 36 39 43 46 49 57 61 62 62 70 72 76 78 80 76 78 79 81 83 82 82 80 76 80 85
88 90 83 82 78 73 72 67 63 60 59 60 60 58 56 59 59 55 49 45 41 39 38 38 38 40 41 41 42 45 51 55 58 58 65 76 73 68 71 79 85 89 89 87 87 86 88 88 86 81 77 77 80 82
84 83 77 70 67 63 62 60 61 62 63 65 64 63 63 64 63 56 47 44 43 43 45 47 49 53 55 56 57 60 66 69 69 67 68 77 80 84 79 78 81 86 87 88 90 90 91 91 86 82 81 82 84 83
72 69 69 67 65 63 64 64 63 61 63 63 65 67 68 68 61 54 53 54 56 60 62 66 70 70 68 69 69 68 69 72 74 75 77 81 86 88 86 86 86 87 86 87 87 88 88 87 87 86 86 87 86 83
71 69 67 65 63 61 63 66 68 70 70 69 69 74 73 70 68 68 69 70 74 74 74 76 80 80 77 78 78 77 77 80 79 80 81 86 87 88 89 90 91 91 91 92 93 96 97 97 96 95 92 88 85 83
74 72 71 73 73 75 76 77 75 73 73 72 73 75 75 75 71 69 66 63 62 62 60 58 62 69 73 77 81 85 88 86 81 79 83 88 94 95 94 93 91 91 91 92 94 96 96 96 97 96 94 91 88 86
79 77 79 80 82 82 79 78 75 75 74 73 70 66 62 57 50 46 43 40 43 48 56 60 64 69 72 78 86 88 92 90 87 89 90 92 95 96 96 95 93 92 92 92 95 96 94 92 91 90 89 88 87 86
82 82 83 82 78 74 72 71 67 61 53 41 34 34 35 40 41 44 49 53 56 61 64 62 76 89 92 93 90 89 93 96 94 93 93 95 95 96 97 97 97 98 97 95 91 86 84 83 84 85 84 83 81 81
78 78 75 70 62 57 52 42 37 36 36 36 35 34 37 46 53 54 54 56 60 63 72 74 79 89 94 92 90 89 91 94 96 96 95 96 97 97 98 98 98 97 94 90 83 79 79 82 83 83 82 83 83 83
61 60 56 53 47 41 42 40 42 40 37 36 40 46 52 58 60 56 62 67 65 66 74 82 85 88 92 94 94 93 93 93 95 97 98 98 99 99 98 96 94 91 88 87 85 84 84 82 82 81 79 78 76 75

GFSWCAN_prec_cthk_024.txt.gz
RH
96 90 78 66 60 54 52 50 50 50 46 43 41 38 37 37 38 38 36 35 34 32 33 33 32 33 33 33 35 37 42 43 44 47 49 50 53 48 49 46 51 56 77 82 84 87 88 69 72 82 80 79 81 83
99 97 88 76 69 61 55 52 50 49 49 46 44 42 40 39 39 39 39 39 37 36 36 36 34 33 32 33 36 38 37 34 39 45 49 52 55 57 58 57 54 63 65 70 75 71 74 78 78 80 84 84 86 90
98 98 95 86 81 70 63 56 53 51 50 50 48 47 45 44 43 42 41 41 40 41 42 41 39 37 35 34 34 36 37 38 39 40 46 54 58 55 61 63 63 68 72 74 75 69 77 80 80 84 89 90 88 89
98 98 97 94 90 80 70 66 60 56 54 55 54 53 53 52 51 50 48 46 45 44 46 46 42 42 40 39 38 37 37 38 39 42 50 55 58 56 64 66 72 75 77 79 77 78 80 84 87 84 81 86 91 85
95 97 97 97 93 89 82 69 67 66 63 62 62 62 62 62 62 60 59 56 53 50 52 49 47 45 43 41 40 40 40 40 41 48 52 56 56 65 72 74 76 79 79 86 86 86 90 89 81 83 87 86 79 75
88 94 94 96 96 95 90 81 73 68 68 68 70 70 70 70 70 69 67 64 61 58 57 58 52 48 45 42 41 41 42 44 45 49 53 57 59 70 79 81 74 77 84 90 90 90 89 83 91 89 84 78 74 71
75 84 87 94 95 95 93 86 83 75 69 71 72 73 73 73 71 71 67 63 63 61 58 57 54 49 46 44 43 44 45 50 55 61 65 69 77 89 90 86 85 86 88 91 91 89 88 92 93 83 76 71 63 56
62 71 79 86 91 92 91 91 92 89 81 77 74 75 75 73 71 70 68 65 63 62 58 57 54 49 47 50 52 54 59 64 68 76 82 85 90 94 91 86 87 87 88 87 90 89 88 82 79 74 63 55 51 49
57 62 70 82 89 93 92 94 97 98 96 92 86 87 83 77 74 71 71 76 77 73 68 62 57 58 55 57 63 74 82 86 87 86 86 90 91 89 84 84 84 87 89 86 81 77 76 71 61 54 49 47 47 45
55 57 61 75 86 91 93 95 98 99 99 98 98 96 89 81 77 76 78 88 87 85 80 76 74 71 68 73 85 90 90 91 90 86 88 87 85 83 85 86 86 87 82 83 78 67 63 54 46 45 47 47 42 35
50 54 56 62 76 87 92 95 97 99 99 99 97 96 92 90 90 90 89 91 96 89 84 83 88 84 80 84 92 98 94 93 89 83 87 82 79 82 84 80 78 78 77 68 64 59 53 47 44 44 39 34 32 31
48 52 52 57 69 80 92 96 97 98 98 98 98 96 99 99 98 98 98 98 92 91 88 87 91 94 97 98 99 98 98 96 92 86 89 82 78 81 82 81 77 73 67 63 58 52 48 46 43 37 31 31 30 31
51 52 51 53 66 77 88 96 97 98 99 99 98 98 98 98 98 98 95 93 93 93 91 92 95 99 99 98 97 98 98 96 89 91 85 79 80 80 82 79 73 66 59 53 52 48 45 38 31 32 31 32 33 33
55 54 55 55 64 69 79 94 97 98 98 98 98 98 98 97 98 97 96 96 97 99 99 97 96 96 97 98 98 97 97 95 93 88 82 78 79 80 75 69 63 59 54 48 43 37 31 30 29 31 34 36 37 35
61 61 59 61 68 74 79 92 98 97 98 97 96 97 97 97 97 98 97 96 96 97 96 96 96 97 97 97 96 97 97 93 85 78 76 75 74 70 67 60 58 50 42 35 31 29 30 32 32 31 35 38 40 39
65 66 66 66 73 77 80 91 96 97 94 89 94 96 97 97 96 96 95 95 95 96 96 95 95 97 97 96 96 94 91 83 77 74 73 71 67 60 56 49 42 38 33 30 30 32 32 34 36 35 37 40 38 41
75 72 71 73 78 83 89 95 90 94 97 85 90 89 92 91 92 92 91 91 92 92 92 90 91 90 90 93 90 83 76 71 68 69 64 55 50 47 44 40 35 31 31 32 33 35 37 39 40 43 41 41 44 47
81 81 81 81 83 86 88 88 87 83 86 87 85 87 84 84 84 81 82 84 86 84 81 75 69 73 70 69 66 64 64 62 59 52 46 45 45 44 39 33 33 34 34 35 36 38 40 42 45 50 52 55 55 59
94 90 86 85 90 93 97 96 90 88 89 89 87 84 82 81 79 77 76 77 75 73 71 70 69 64 60 57 58 57 50 47 49 47 45 45 40 35 35 36 36 36 37 39 43 45 47 50 54 56 60 63 62 64
96 96 95 95 97 98 98 95 91 87 85 86 84 82 78 77 73 70 70 71 71 69 69 62 58 55 53 49 47 46 46 47 44 40 36 37 36 37 38 40 39 40 43 46 48 52 55 59 66 67 67 68 69 69
99 99 99 99 97 93 91 89 87 84 83 80 77 74 70 66 63 61 60 60 62 59 54 49 44 40 39 39 39 38 37 35 35 35 34 35 39 39 39 43 45 48 50 52 56 58 63 66 69 70 69 72 77 75
94 98 97 97 96 89 85 84 84 80 75 74 71 69 66 62 59 56 54 53 50 44 40 35 33 32 33 33 32 32 32 32 32 33 34 35 36 42 45 49 52 55 60 61 63 64 68 73 73 73 75 78 80 79
98 99 98 97 94 91 93 83 80 75 70 68 65 59 55 52 49 47 46 45 41 32 30 31 32 33 32 33 33 34 34 35 35 36 38 41 44 48 52 58 65 65 62 63 69 76 81 84 82 80 81 84 81 76
98 98 96 91 84 87 81 83 78 73 68 60 55 51 49 49 47 46 45 42 37 34 35 36 35 36 36 37 39 40 42 41 41 44 53 56 56 57 62 64 67 68 70 73 78 82 84 86 87 87 88 87 83 78
96 97 92 88 87 83 79 78 74 69 64 58 54 51 50 50 49 48 45 43 40 40 40 41 40 40 42 45 48 51 53 52 54 56 61 68 66 63 65 70 72 78 82 81 83 84 85 87 89 89 89 87 85 83
90 88 83 81 81 75 70 66 63 60 56 54 54 53 55 53 53 49 46 47 45 45 45 47 50 51 53 57 58 61 66 68 66 66 67 72 76 76 74 74 76 84 88 89 88 87 87 89 90 93 94 95 94 92
85 82 79 71 67 60 58 56 54 53 56 56 55 56 56 57 55 53 54 53 56 56 59 60 62 64 65 66 69 70 71 75 80 79 78 81 85 87 83 80 84 89 91 92 91 89 88 89 90 92 93 95 96 93
79 73 64 61 58 56 57 57 56 55 54 54 57 63 64 63 63 66 65 66 68 69 70 69 63 57 53 48 48 51 53 62 68 77 81 83 90 92 89 87 92 94 96 97 95 91 89 89 89 90 91 92 89 86
73 71 69 67 65 63 62 60 60 61 63 66 68 72 72 72 72 71 69 65 58 47 37 37 41 44 46 49 49 51 58 71 80 87 93 90 91 93 96 94 94 95 97 99 98 95 93 92 90 90 89 86 81 78
72 69 69 68 68 69 69 68 70 71 73 75 76 76 73 68 60 50 44 40 40 43 48 48 46 47 48 50 53 62 67 76 90 94 94 93 94 97 97 96 97 97 98 98 98 98 98 97 94 90 87 83 82 82
74 73 74 75 75 74 70 71 71 70 68 64 57 50 46 43 44 46 46 47 52 52 51 53 54 55 58 63 66 68 75 81 85 90 92 93 94 96 98 98 98 98 99 99 98 97 94 91 89 86 84 85 85 84
79 79 78 76 71 67 64 60 53 46 40 38 39 41 47 49 51 52 55 60 57 56 60 61 60 65 68 70 72 74 75 81 87 90 91 93 93 94 96 98 98 98 98 98 95 92 91 89 89 88 86 83 82 80
59 58 57 56 52 46 43 38 38 40 42 46 48 51 54 57 61 61 63 63 62 65 65 63 63 64 66 68 71 77 82 84 87 89 92 94 95 96 98 99 99 99 99 97 96 93 89 87 87 86 84 83 81 80

GFSWCAN_prec_cthk_027.txt.gz
RH
95 84 70 57 57 61 62 61 59 55 51 47 44 38 35 37 38 38 36 36 37 36 37 39 38 39 37 37 40 39 38 39 41 43 45 43 48 39 38 36 45 51 62 67 71 79 80 66 68 78 79 77 81 85
96 89 75 62 58 59 60 60 59 57 53 49 45 43 38 36 37 38 40 37 36 40 40 36 34 32 33 36 39 38 37 36 36 43 44 46 47 48 47 48 40 44 51 63 70 69 72 74 79 83 86 86 85 84
98 92 83 73 65 60 58 57 57 56 54 50 47 44 43 40 39 39 40 40 39 39 41 40 39 34 33 32 35 40 40 39 38 41 45 45 48 45 52 50 42 45 52 65 70 67 73 77 85 85 87 87 82 76
99 98 91 87 78 66 61 58 56 54 53 52 51 48 46 45 43 42 43 42 43 42 43 45 38 39 37 36 35 37 39 37 40 40 44 46 47 45 51 48 48 50 56 66 71 74 77 83 85 89 91 87 75 75
98 98 98 94 87 80 69 63 58 56 54 52 52 53 52 50 48 48 48 47 45 49 49 47 45 42 41 40 41 41 41 41 44 46 47 49 48 51 54 54 50 56 67 78 81 82 85 94 95 90 85 78 77 74
95 97 98 98 97 88 79 74 69 62 58 56 56 56 57 57 57 59 61 57 56 54 52 54 52 48 45 43 45 45 49 50 48 49 50 48 50 53 61 59 55 68 76 78 79 83 89 91 88 84 79 77 74 69
81 89 94 97 97 97 92 86 80 72 68 66 65 64 63 64 65 71 68 67 64 64 61 61 59 54 52 52 51 53 51 51 50 53 53 50 53 60 67 66 70 78 77 82 85 86 85 86 84 78 75 74 63 51
67 75 83 91 98 98 98 94 91 86 81 74 74 72 73 74 73 73 72 69 71 70 67 67 61 55 52 55 55 52 53 53 56 58 58 59 67 78 79 72 78 79 81 83 86 87 87 83 74 73 65 54 47 46
55 64 69 81 88 94 97 96 94 95 93 85 80 81 80 78 75 74 78 76 73 69 66 62 60 60 54 54 55 56 58 60 62 66 70 80 84 85 79 78 78 80 82 85 87 84 72 70 66 59 50 47 46 43
49 54 60 65 77 86 90 94 96 98 98 96 95 91 82 76 76 79 81 80 76 72 68 63 61 65 63 69 71 75 77 77 75 75 82 83 81 81 83 82 82 83 86 84 82 72 69 65 59 53 50 47 41 35
44 44 51 56 60 76 83 90 93 98 99 98 97 97 93 91 94 98 98 90 82 73 68 65 66 70 75 81 88 90 93 93 86 78 86 83 78 79 83 84 82 83 81 73 72 70 66 60 54 49 45 39 31 28
42 41 42 50 56 63 81 88 94 99 99 99 98 98 99 100 99 98 97 92 85 81 75 72 71 73 86 93 95 96 98 97 95 87 91 84 78 80 79 78 79 77 72 72 70 63 57 53 49 43 35 29 28 28
43 42 43 44 53 57 71 88 95 99 99 99 98 99 99 98 99 98 91 86 84 80 77 78 83 89 94 98 99 99 98 97 90 93 86 80 82 80 78 78 78 76 73 67 60 56 47 41 36 30 27 27 28 29
46 46 45 47 49 52 60 83 94 98 98 98 98 98 98 98 98 97 93 87 86 86 87 92 98 98 98 99 98 98 97 95 95 91 87 84 81 81 78 76 74 69 65 59 48 42 38 31 27 27 29 30 31 31
48 49 49 50 52 52 55 74 91 97 98 98 98 97 97 97 97 98 98 98 98 99 97 98 99 98 98 98 97 97 97 96 88 86 87 82 80 79 76 73 71 64 54 46 42 36 30 27 28 28 31 32 35 38
51 53 56 57 58 59 63 68 85 91 97 97 97 97 97 97 97 97 98 98 97 98 98 97 98 98 98 97 96 97 96 90 89 86 84 81 77 75 73 65 54 49 43 38 33 31 32 31 32 32 33 36 40 44
51 57 60 62 63 63 70 78 84 91 92 92 97 97 96 96 96 96 97 97 96 98 97 96 96 97 96 97 95 91 91 89 83 82 78 72 66 59 53 51 48 42 35 34 34 35 35 35 37 37 36 43 52 54
51 65 64 66 68 73 78 82 86 82 83 85 91 94 92 92 93 92 92 93 94 93 92 92 87 92 90 88 85 81 75 71 69 66 57 53 52 53 52 45 38 35 34 35 35 34 35 40 42 47 51 53 56 60
60 73 73 74 77 79 81 83 81 86 87 86 90 90 86 87 89 87 86 88 89 87 87 85 80 75 70 66 65 63 59 56 55 54 54 52 48 40 34 32 31 31 32 34 36 40 44 48 52 55 59 61 62 62
73 81 77 77 81 84 81 80 81 85 90 90 90 87 86 83 80 80 82 82 80 77 74 69 66 62 60 56 50 51 51 47 47 45 41 38 37 36 35 34 33 34 36 38 42 46 53 56 60 63 64 67 67 66
82 88 85 85 90 90 85 88 90 87 88 88 86 85 82 78 73 71 70 68 68 64 60 56 51 50 49 44 40 38 36 34 32 34 35 35 36 36 36 37 37 40 43 46 50 53 57 58 62 66 71 75 77 74
98 98 98 93 98 95 89 91 93 88 87 85 83 80 77 74 70 65 62 62 59 52 49 43 43 40 37 34 32 31 32 30 32 32 32 33 35 37 41 45 48 50 54 58 64 61 59 64 67 72 78 80 81 81
98 97 97 97 96 96 95 88 88 84 83 79 75 74 70 64 59 55 55 50 45 37 35 33 33 33 32 33 32 32 31 32 34 36 38 41 42 46 49 52 58 63 63 65 68 67 69 73 75 77 80 80 81 81
98 98 97 94 92 94 86 89 84 80 79 75 71 67 59 56 49 49 48 44 37 35 35 35 37 38 38 39 40 44 46 46 46 46 48 52 54 58 70 70 69 70 72 73 72 72 75 81 82 83 83 83 85 86
98 98 98 94 89 83 85 83 82 79 78 74 68 61 57 50 51 47 46 44 48 43 41 43 43 43 46 48 51 55 56 57 57 58 58 70 74 74 78 77 79 82 81 80 80 79 80 86 89 87 86 87 87 88
96 96 90 84 87 86 84 83 80 76 73 70 65 58 53 53 50 48 47 53 50 48 49 50 53 55 58 62 63 65 65 63 60 57 53 52 58 63 78 85 79 77 88 88 88 86 87 92 94 93 91 90 90 90
91 86 80 81 81 79 77 73 68 65 62 58 55 54 54 51 50 51 54 52 57 57 59 63 64 65 65 63 57 48 41 39 40 41 41 42 46 58 72 83 87 91 92 92 93 94 93 95 96 96 95 93 91 90
83 86 84 83 77 71 66 62 56 54 53 51 52 55 54 54 59 61 61 63 66 68 70 68 61 47 39 38 41 45 43 40 38 39 42 47 58 60 72 82 95 98 96 95 96 96 95 96 99 99 98 96 94 91
80 76 73 72 68 62 56 55 56 56 57 57 63 64 67 65 65 68 71 74 70 61 49 40 39 40 45 47 48 48 48 48 49 50 54 57 63 72 83 89 92 92 94 96 98 97 97 98 99 99 97 95 91 87
74 72 69 66 63 64 68 65 67 64 66 69 71 70 71 71 70 66 59 52 45 41 42 45 50 52 51 50 50 53 55 57 57 58 60 64 68 71 76 82 87 91 94 97 99 99 99 98 98 98 94 89 86 85
71 70 71 72 72 72 69 67 67 67 69 71 69 67 63 57 50 47 44 44 46 49 51 56 57 56 55 55 56 55 57 59 60 64 69 70 72 76 81 86 90 93 94 95 97 99 99 99 99 97 93 89 87 84
72 73 71 71 71 68 63 65 64 61 58 53 52 47 45 45 47 46 50 54 58 59 60 60 60 59 56 55 53 53 55 57 59 61 66 72 77 80 83 85 89 93 95 97 98 99 99 99 98 95 91 86 83 81
58 56 54 54 52 52 47 41 41 41 44 48 48 47 49 54 56 58 57 56 58 59 58 56 51 43 39 37 36 37 39 42 46 54 61 66 72 79 83 88 90 92 97 99 99 99 99 99 97 93 88 84 79 74

GFSWCAN_prec_cthk_030.txt.gz
RH
95 88 76 66 65 68 66 64 65 63 60 56 47 41 39 40 40 40 40 39 40 41 43 51 53 58 54 55 61 51 46 44 43 43 42 40 44 40 36 34 44 46 54 56 56 64 64 53 61 74 73 78 82 83
93 86 77 68 65 67 68 64 64 63 60 55 48 44 38 38 41 41 42 38 39 43 44 44 45 46 45 46 48 43 38 38 36 41 41 41 44 48 47 42 33 46 43 51 54 53 55 69 74 79 82 85 89 85
97 91 81 68 66 65 68 66 64 63 60 56 53 49 46 41 38 40 43 41 40 40 44 43 43 39 38 39 41 42 42 40 40 43 43 44 46 43 46 42 35 36 35 46 51 48 59 69 77 82 84 86 87 85
99 98 91 79 70 63 68 69 65 64 62 60 57 53 48 45 43 41 43 42 44 43 44 47 44 41 38 37 39 40 40 40 43 42 44 44 42 40 47 39 42 39 40 41 45 54 70 79 84 83 85 87 84 80
98 99 96 89 81 72 65 67 67 66 65 63 60 56 52 48 47 45 43 44 45 49 50 48 43 41 39 39 41 41 41 42 43 46 47 46 45 45 48 51 47 36 37 49 60 69 73 82 80 81 79 76 73 69
99 98 98 92 84 72 68 66 65 65 64 63 62 59 56 54 52 52 55 48 48 49 47 50 51 47 46 45 46 48 50 49 51 52 50 48 45 49 56 53 36 37 47 58 72 76 78 80 79 78 75 72 71 67
94 98 98 95 91 82 76 72 67 65 64 63 61 60 58 57 56 60 58 58 54 55 54 57 58 53 51 52 54 53 53 52 53 54 55 52 49 54 60 54 38 49 64 75 78 81 82 83 81 77 75 73 63 58
85 91 97 98 97 96 93 85 74 69 69 65 65 63 61 60 60 63 62 61 62 64 63 65 62 58 58 61 62 61 59 58 58 58 58 55 54 60 62 45 53 68 76 82 85 85 83 81 80 76 72 66 58 51
68 80 85 91 96 98 97 94 88 77 74 76 74 71 69 67 67 68 68 67 68 70 68 66 66 67 61 63 63 61 61 61 60 60 61 63 63 61 53 60 69 72 78 84 88 84 81 78 73 68 66 61 53 48
51 60 68 75 84 92 96 97 97 94 91 89 87 89 84 78 78 76 77 74 72 71 69 66 64 65 61 63 63 62 66 70 72 70 76 75 69 68 72 72 74 77 88 92 89 82 78 75 70 69 63 54 49 44
46 49 56 61 65 73 84 91 96 99 99 98 97 95 94 89 89 86 87 84 80 73 67 64 64 64 65 67 69 70 74 80 81 78 85 79 72 68 77 80 85 90 90 87 82 78 74 71 72 63 55 49 41 37
38 42 47 52 60 62 71 84 92 98 99 98 98 99 99 99 99 97 92 88 83 79 73 70 71 76 78 80 80 82 83 84 84 84 91 82 75 78 79 81 84 83 80 77 75 75 73 69 60 51 44 37 35 31
39 39 39 45 51 54 62 78 90 97 98 99 98 99 99 98 99 96 87 84 85 82 80 81 84 88 90 91 95 95 95 95 93 92 89 86 87 89 86 82 81 79 76 75 75 70 63 54 45 39 35 32 29 28
38 39 41 42 45 49 54 65 84 95 98 98 99 98 99 98 97 96 90 86 86 85 88 91 90 93 95 97 99 99 98 97 97 93 90 94 91 90 85 83 81 78 77 73 66 56 50 42 36 33 31 29 29 28
42 43 42 44 47 50 52 58 67 86 95 98 98 98 97 97 97 96 97 96 93 93 95 96 96 98 98 99 98 98 97 97 95 97 98 92 89 89 84 82 80 75 70 59 51 45 40 36 33 30 29 30 30 30
39 44 45 45 47 49 51 57 61 65 84 94 97 97 97 97 97 98 98 98 98 98 98 98 98 98 98 98 98 98 97 96 99 95 91 88 85 84 81 75 68 57 52 47 42 36 34 32 31 29 29 32 35 40
33 45 47 48 51 53 57 58 61 63 61 79 92 95 97 97 97 97 97 97 98 98 97 97 97 97 97 97 97 97 98 96 91 90 89 86 81 74 67 58 55 51 44 37 34 32 30 29 29 31 34 39 45 52
33 44 52 56 57 57 62 65 67 67 64 74 82 91 94 95 95 95 96 95 96 96 95 97 93 96 93 91 92 93 86 81 80 79 72 65 60 57 54 50 41 37 34 30 28 28 29 31 36 40 45 50 54 59
32 44 57 60 61 63 67 66 71 72 77 78 80 82 82 86 91 91 92 91 92 91 91 93 91 83 83 77 77 72 70 66 63 60 58 55 51 45 39 35 31 27 26 27 29 32 35 40 48 56 60 66 65 61
34 45 60 66 67 69 70 68 67 70 74 81 82 81 77 75 80 82 85 85 86 86 88 79 74 73 71 65 60 58 58 54 51 47 43 39 38 37 33 30 29 29 31 33 35 40 50 60 66 70 70 69 65 65
41 53 72 75 74 74 82 79 71 71 73 77 85 91 88 84 80 78 74 73 70 69 66 62 60 59 56 52 47 43 40 38 36 34 32 31 30 30 30 31 33 37 40 44 53 58 66 73 74 71 64 65 69 70
55 67 89 88 82 83 81 77 79 80 81 83 81 85 86 84 79 74 70 66 62 55 52 49 47 45 42 39 35 31 30 29 29 30 31 33 36 38 39 41 46 51 59 65 71 74 77 79 72 66 66 70 75 77
71 85 90 91 89 87 90 84 85 87 86 88 86 87 84 79 75 68 62 56 52 46 43 42 38 32 29 31 31 30 31 32 35 40 45 46 48 49 53 57 66 74 76 73 79 79 77 77 77 70 72 79 84 86
88 87 94 98 98 92 89 93 90 88 90 90 87 82 77 72 63 61 55 49 50 44 40 39 37 39 41 42 46 50 49 48 50 52 55 55 53 50 51 48 54 66 74 72 76 82 85 88 87 83 84 88 91 93
99 98 98 96 90 87 90 89 88 89 86 86 81 79 76 68 64 54 50 55 50 47 44 44 48 49 52 55 58 60 58 59 58 55 55 56 50 41 38 37 36 39 42 52 70 80 84 90 90 84 89 95 95 95
98 98 97 86 86 86 87 87 85 83 83 81 79 78 71 68 60 54 53 56 52 49 47 49 51 56 60 61 61 60 58 55 50 43 37 36 38 40 40 41 42 42 44 50 58 80 88 86 94 94 94 97 97 97
97 90 82 81 87 87 89 89 87 85 81 75 71 65 57 53 54 57 57 56 54 53 56 58 61 65 65 63 59 55 47 39 38 39 40 44 48 49 51 53 52 52 57 65 72 78 87 91 93 94 96 98 98 98
89 91 87 88 86 83 83 85 83 77 68 62 59 55 53 52 58 59 59 60 61 64 66 68 67 64 60 47 42 43 44 43 43 43 46 55 56 57 60 61 63 64 66 72 78 84 87 88 91 95 97 99 99 98
90 91 89 88 84 80 77 78 74 67 64 60 59 59 62 58 60 63 66 68 72 74 73 60 48 44 45 47 49 49 49 48 46 45 47 50 50 52 54 57 61 65 70 73 78 81 83 88 94 95 98 99 99 99
86 83 80 72 69 73 74 72 72 68 64 65 66 66 66 67 68 70 71 68 62 53 49 48 47 49 52 54 56 57 56 53 51 50 48 48 49 50 52 54 59 66 71 75 80 84 87 91 94 95 97 99 99 99
77 76 78 76 72 71 68 66 66 67 68 70 70 69 67 66 63 61 56 52 50 50 50 52 54 55 56 56 55 52 48 41 36 35 36 38 38 42 47 53 59 64 71 77 81 86 88 91 94 98 99 99 99 97
74 74 71 69 70 67 63 62 62 61 62 64 61 57 53 50 51 44 45 49 52 56 54 52 52 54 50 47 41 35 34 34 35 35 36 36 35 36 38 41 48 60 69 74 80 86 91 93 98 99 99 99 99 95
62 58 54 52 53 52 47 42 45 45 47 47 48 47 47 50 52 50 52 53 56 56 56 55 51 44 38 34 32 34 36 34 35 40 41 42 42 42 44 46 49 55 65 73 80 89 92 95 99 99 99 99 97 91

GFSWCAN_prec_cthk_033.txt.gz
RH
95 92 76 62 73 74 75 70 68 66 63 55 49 47 46 45 45 43 40 39 36 39 44 47 46 47 47 46 51 50 51 50 51 49 46 42 41 39 37 38 41 42 49 51 51 55 56 38 43 48 57 66 71 74
96 91 77 60 69 73 72 71 68 67 66 61 53 46 44 43 42 42 40 39 38 38 40 49 52 54 55 55 55 55 50 48 46 43 42 42 42 44 43 41 36 46 40 46 44 43 37 42 45 51 59 71 78 78
98 91 78 61 66 73 73 70 69 68 67 65 59 52 45 41 41 40 40 39 38 39 42 44 46 48 51 52 48 44 45 43 39 37 39 43 43 42 44 44 34 37 38 44 47 45 48 48 52 58 66 78 82 77
98 96 89 78 71 72 74 73 70 69 68 67 63 57 48 44 40 38 39 41 39 39 43 46 43 42 42 44 45 46 43 44 44 44 47 44 43 39 42 35 38 33 35 36 40 44 48 52 61 69 78 81 77 72
98 97 90 84 76 75 73 73 70 69 69 68 63 58 57 52 48 43 41 40 41 41 44 47 44 45 41 41 42 43 45 44 45 48 50 48 44 44 47 48 46 36 36 43 44 40 48 61 75 80 81 80 78 74
97 97 94 89 80 71 70 72 71 69 69 69 66 62 59 56 52 47 46 44 45 44 44 48 49 46 44 44 46 45 43 45 45 47 50 49 47 45 50 52 36 37 38 39 45 53 65 73 80 83 83 82 78 80
99 99 97 94 82 75 72 73 72 72 70 68 68 67 64 60 56 54 51 53 48 48 47 52 52 50 50 51 52 53 53 53 54 54 54 53 50 55 57 54 41 41 43 45 55 65 74 80 83 82 80 80 80 75
98 98 98 98 95 88 81 76 71 70 70 70 70 70 68 64 62 60 59 57 55 53 52 58 59 55 57 61 63 63 62 61 62 62 60 58 58 61 57 44 45 52 57 64 73 79 81 81 81 81 85 76 72 71
90 93 98 98 98 94 90 82 76 71 69 70 70 70 70 67 65 63 62 58 58 60 59 60 58 61 61 66 69 69 68 67 64 64 63 63 63 60 55 58 62 63 70 79 84 85 85 86 83 80 77 75 73 65
69 79 86 95 97 95 91 89 82 82 77 73 73 70 68 68 68 66 66 62 61 62 63 60 60 64 63 69 71 68 66 67 65 61 64 64 60 59 65 69 71 78 84 88 89 89 84 84 84 80 78 73 62 53
58 63 69 74 83 90 95 95 98 98 93 84 77 77 75 74 76 73 73 70 68 67 65 64 63 64 67 70 72 72 71 72 71 68 73 67 63 62 65 70 77 86 91 94 94 88 84 83 80 77 68 58 52 47
49 52 60 62 67 71 85 92 98 99 97 94 91 88 90 90 93 94 89 84 80 78 75 70 71 75 78 79 81 85 89 88 85 84 87 80 75 75 79 83 87 90 88 85 85 85 82 77 70 62 55 48 42 38
43 46 49 57 59 68 72 85 96 98 99 99 98 98 98 98 98 92 88 86 85 83 81 82 85 89 91 94 96 97 98 95 93 93 90 86 86 88 88 87 85 83 81 81 79 78 73 63 56 50 45 40 37 35
36 37 41 47 50 56 68 74 81 93 98 98 98 98 98 98 96 90 87 86 87 87 88 90 92 95 96 99 99 98 98 97 97 94 91 96 95 91 86 82 80 82 81 81 76 68 57 53 49 44 38 35 34 32
36 36 37 39 42 47 50 60 67 79 90 96 98 98 97 97 97 95 94 92 92 93 95 95 96 97 98 99 98 98 98 98 98 98 97 96 90 87 86 82 82 79 76 72 61 56 51 45 39 35 34 31 29 29
40 41 40 39 41 41 44 48 50 55 69 86 92 96 97 97 97 97 97 97 96 96 96 97 97 98 98 98 98 98 98 98 98 97 97 94 90 88 87 83 81 74 64 58 52 45 40 37 34 31 27 28 32 36
34 37 39 41 41 41 42 46 48 48 50 63 77 86 91 95 96 96 96 95 96 96 97 98 98 97 97 98 98 98 98 97 96 95 94 90 84 82 79 74 64 58 51 45 42 36 33 30 28 28 29 32 39 48
32 36 40 40 42 44 45 48 48 51 55 63 65 70 75 81 86 91 94 94 92 91 93 94 94 97 97 97 98 94 92 88 86 83 80 77 72 65 61 55 51 44 40 34 30 27 27 29 31 33 39 47 54 63
33 35 42 46 46 48 48 48 53 54 61 65 68 70 70 71 73 76 80 84 86 87 88 90 90 89 89 84 86 82 79 73 71 69 66 65 62 57 51 44 38 34 30 28 28 29 31 35 41 50 60 67 73 73
31 35 44 49 50 50 51 52 53 56 62 67 69 72 71 71 72 73 73 73 72 74 81 81 81 82 80 74 71 68 62 60 58 57 54 49 42 38 35 31 30 30 31 33 35 41 46 51 58 65 72 77 76 70
33 36 41 54 59 59 59 58 59 59 62 64 67 68 71 73 75 77 76 76 71 67 61 59 59 59 58 56 53 48 45 43 41 37 35 32 29 29 31 34 38 39 43 47 53 56 63 69 72 78 79 78 79 76
40 44 47 61 66 68 65 65 67 70 65 66 67 70 74 76 76 77 73 71 66 60 58 54 51 48 45 40 36 32 30 29 28 29 32 35 37 38 40 42 44 44 44 45 50 53 61 71 75 76 78 78 77 78
45 52 58 73 78 78 76 72 73 74 72 76 78 80 80 85 86 82 77 72 66 60 54 50 45 39 31 30 30 30 32 35 41 43 43 44 46 47 45 48 53 53 45 40 41 43 47 55 59 59 63 71 77 83
66 65 66 83 92 93 82 79 80 83 81 84 84 85 86 84 81 79 75 67 62 54 47 42 38 37 40 41 41 42 44 48 51 55 56 52 48 44 43 41 37 37 39 37 38 39 41 42 44 50 64 78 81 87
80 91 80 88 91 92 85 87 89 89 88 92 91 91 86 81 78 75 69 67 64 58 52 48 45 45 48 48 49 50 52 55 54 52 51 50 46 38 35 37 41 43 44 44 45 47 49 55 58 71 79 80 77 84
89 95 91 88 93 90 90 92 90 89 89 89 89 88 81 80 77 75 75 68 67 60 55 48 49 49 50 52 55 55 54 55 55 54 51 43 42 42 42 43 44 46 51 54 56 56 58 60 67 71 72 77 81 87
96 97 96 94 94 95 96 92 91 89 90 85 84 81 77 72 69 69 64 60 58 57 53 52 54 55 57 59 58 59 58 54 45 41 43 46 45 48 51 52 51 51 53 55 57 59 62 67 69 73 78 83 86 86
96 92 93 94 94 94 92 93 94 95 92 85 80 79 72 69 70 65 62 62 61 60 60 63 66 64 63 62 56 48 44 43 43 43 49 56 56 51 48 47 47 49 51 54 56 59 63 66 70 75 80 83 85 87
94 97 96 95 92 90 87 87 85 82 78 75 76 74 73 70 67 64 65 66 67 69 71 70 65 54 47 46 47 46 45 45 43 42 42 38 31 27 26 27 28 31 35 41 50 59 63 66 70 75 80 84 89 90
97 97 96 92 92 91 85 83 80 78 77 76 75 75 74 72 71 71 73 75 75 69 61 54 51 48 46 46 46 46 46 45 42 37 35 33 31 29 29 29 30 31 32 34 38 46 59 67 71 78 80 87 91 92
87 85 82 81 82 81 78 75 72 68 67 68 69 68 69 72 71 71 68 61 54 50 48 47 47 46 44 44 44 45 43 40 36 35 35 34 36 36 35 35 36 37 39 42 45 50 55 64 72 80 82 91 92 98
78 76 74 74 74 71 69 66 66 63 63 61 57 55 53 50 47 45 44 45 47 48 47 46 47 48 49 49 44 38 34 33 34 34 36 38 38 37 37 38 39 42 46 49 53 57 62 68 72 80 85 91 96 100
63 60 56 55 55 52 42 38 43 44 44 46 47 47 48 50 51 52 51 53 54 54 54 54 53 49 40 33 31 32 34 35 36 38 40 39 39 40 41 43 46 49 52 56 60 64 70 74 79 82 90 92 100 100

GFSWCAN_prec_cthk_036.txt.gz
RH
85 87 81 77 84 86 77 75 73 68 62 58 62 65 58 53 49 43 40 38 39 39 45 45 44 44 42 41 45 45 47 48 51 50 50 51 50 45 42 39 41 42 46 48 51 53 47 31 36 39 33 37 48 55
87 84 78 74 85 87 78 75 74 71 63 57 53 55 57 54 50 43 41 38 35 37 46 48 48 46 44 44 42 47 42 44 46 49 51 51 47 46 44 42 36 38 34 40 40 39 31 33 36 37 41 49 56 62
97 89 77 68 82 87 80 75 74 73 67 59 54 50 48 50 50 45 42 41 38 39 44 50 52 52 51 48 49 50 52 50 45 40 44 46 44 43 44 44 39 34 37 42 42 36 37 41 44 46 51 56 63 72
98 93 78 69 77 87 84 76 73 72 69 64 56 50 46 44 42 41 40 39 38 38 41 48 50 50 50 50 51 49 43 42 42 42 46 45 45 40 41 36 38 32 36 40 43 44 45 48 49 50 55 64 73 75
98 95 87 75 74 85 85 80 75 73 71 68 65 58 53 47 42 39 38 39 38 37 42 44 44 44 42 43 44 46 47 47 49 51 54 54 49 48 48 46 41 36 37 41 41 38 42 45 50 57 67 72 73 75
97 98 91 79 69 77 84 84 79 75 73 71 69 66 60 53 49 47 43 40 39 39 39 44 46 45 45 44 42 42 45 47 48 48 51 50 47 46 51 52 36 38 40 41 41 44 47 52 62 71 76 78 79 80
98 97 94 83 71 68 77 84 81 78 76 74 73 70 64 61 60 55 49 49 47 44 42 49 48 48 47 48 49 50 50 50 51 52 52 51 52 56 58 54 43 42 43 44 49 55 64 70 76 81 84 83 83 82
98 98 98 94 86 76 71 76 78 79 78 77 76 74 71 67 65 64 61 57 53 50 47 52 52 50 53 56 59 61 62 62 61 64 64 62 61 64 61 50 49 51 54 60 64 67 72 78 81 86 88 87 83 81
99 98 98 98 93 86 80 78 75 75 76 77 76 74 72 70 68 68 65 62 61 58 57 55 53 54 56 61 64 66 68 70 68 68 69 69 66 62 53 53 53 55 59 66 71 75 78 81 86 89 87 84 82 80
97 98 98 94 94 90 84 79 77 73 74 75 74 73 72 73 74 71 70 65 62 61 60 58 56 59 59 64 67 68 69 70 69 66 67 65 57 51 54 59 64 65 69 78 80 84 85 85 88 86 86 83 81 70
81 87 95 97 96 96 94 90 88 83 81 78 73 72 73 74 73 71 70 68 69 67 62 61 58 58 60 63 70 72 72 74 71 66 69 66 65 66 70 72 76 80 86 88 92 93 92 95 90 85 80 71 62 56
67 72 75 81 91 97 98 97 95 91 84 79 74 78 79 79 78 78 75 73 69 69 65 63 64 72 78 83 83 84 86 86 85 84 87 79 76 78 81 83 86 88 89 90 92 90 83 82 79 71 62 58 52 46
57 60 65 71 78 83 95 98 98 95 97 97 97 98 97 87 81 79 76 71 72 76 79 83 88 92 94 94 96 97 97 94 92 93 89 85 84 86 88 89 88 86 87 88 83 81 79 73 65 62 56 49 45 43
45 50 55 61 69 78 84 89 98 99 98 98 99 98 98 95 91 90 86 85 85 86 89 91 93 95 97 99 99 98 98 98 96 92 86 87 89 89 86 85 84 82 80 80 80 79 71 63 58 50 46 44 43 38
42 46 47 49 54 58 70 79 88 92 98 98 98 98 96 93 93 92 93 92 92 93 93 94 95 97 98 99 98 98 98 97 95 92 92 92 92 90 86 85 84 82 83 80 73 65 58 51 45 43 42 38 36 36
36 37 40 39 41 47 51 58 68 75 84 93 96 97 97 97 98 98 98 98 97 97 97 96 96 96 95 96 96 98 98 97 96 96 96 95 93 90 87 86 87 84 78 71 63 55 48 45 42 38 35 35 36 37
34 35 34 34 35 35 38 42 47 50 62 73 82 90 95 94 95 96 97 96 96 97 97 98 97 97 97 98 98 98 97 98 95 92 95 96 94 92 93 93 88 76 67 57 50 46 42 39 37 37 35 33 37 43
27 34 34 35 36 35 37 39 38 41 51 56 60 67 72 77 79 82 86 90 90 92 94 94 94 97 97 97 97 94 94 93 94 96 96 95 92 87 80 74 68 57 47 42 38 37 38 37 34 34 38 42 47 55
26 31 35 35 37 36 37 40 42 46 52 55 57 59 61 63 67 72 74 73 74 75 78 81 85 88 89 89 90 89 89 86 85 82 79 72 69 66 60 52 45 39 38 38 37 36 37 41 45 47 49 53 55 61
24 26 31 37 40 41 41 43 44 47 54 56 59 60 61 62 63 63 64 65 67 68 68 71 73 72 71 72 71 70 68 64 62 60 57 55 53 45 39 36 33 33 34 36 36 38 39 39 40 45 51 55 61 68
26 28 29 36 43 43 45 45 48 50 54 54 58 61 62 63 64 66 68 66 67 66 65 64 64 64 61 58 55 51 47 43 40 37 35 31 33 34 33 34 35 38 40 41 43 41 41 41 41 41 44 49 59 60
30 34 35 38 50 51 52 54 53 54 53 55 57 58 61 62 64 66 69 69 67 62 59 57 56 55 53 50 47 42 37 33 31 30 31 33 34 37 41 45 44 42 43 44 40 36 34 34 33 33 34 38 42 47
34 39 42 48 54 57 62 58 59 60 61 66 64 63 65 67 72 75 74 73 71 71 70 66 61 55 49 47 42 36 33 33 35 37 40 45 47 48 48 47 45 44 39 36 38 39 38 38 38 39 41 45 48 55
43 47 48 53 61 65 60 63 67 69 69 69 69 72 74 75 79 81 81 80 79 76 67 58 55 51 47 44 41 41 42 44 46 47 46 46 46 46 48 50 47 43 43 42 40 40 42 45 49 51 54 60 65 66
53 63 63 62 67 75 76 80 81 81 82 83 84 83 83 79 78 81 80 83 80 77 72 66 61 53 52 51 50 49 51 52 52 51 46 46 49 51 48 42 41 41 41 41 41 42 43 46 49 54 58 64 67 71
56 66 78 81 75 76 86 87 92 92 89 89 88 89 86 81 82 77 80 80 80 80 74 73 70 65 59 53 51 51 52 52 52 52 50 49 45 42 42 42 40 39 40 40 39 38 38 40 44 49 53 59 66 71
67 72 86 88 88 87 90 96 94 93 92 92 92 92 88 85 80 79 80 74 73 73 71 65 57 54 54 54 56 58 57 57 56 49 45 46 46 45 42 39 35 32 30 31 30 31 33 36 40 46 51 57 63 66
88 93 94 97 98 95 94 94 95 95 93 92 90 89 87 82 84 81 76 74 73 73 70 68 65 64 64 64 64 61 53 48 47 45 43 45 41 34 32 30 29 28 28 29 29 31 34 36 40 45 51 58 64 69
95 96 95 98 98 98 98 97 96 98 97 95 92 90 85 81 79 78 78 79 79 78 77 76 74 71 63 52 48 47 44 43 40 38 37 35 32 31 30 29 28 28 29 29 31 34 37 42 46 52 54 60 68 72
98 98 98 98 97 98 97 96 95 93 89 85 84 83 83 83 82 81 79 78 76 74 72 69 61 51 46 43 42 41 40 39 38 38 35 32 30 29 29 29 30 31 32 34 35 38 42 47 52 56 62 66 70 75
98 98 97 96 93 89 86 85 85 85 83 81 80 77 75 75 73 71 70 69 63 53 46 44 44 42 42 43 45 46 44 41 36 32 30 30 31 32 33 33 34 35 37 40 43 46 49 53 57 61 65 69 75 79
85 84 84 84 83 82 80 77 75 72 67 63 60 57 54 52 49 45 44 44 45 46 46 46 48 49 49 48 46 40 33 30 31 31 32 33 35 35 35 36 38 40 43 48 51 55 58 60 65 69 74 78 80 85
68 68 67 65 62 58 46 43 46 49 48 48 47 47 49 51 53 52 51 52 53 51 51 50 49 48 45 41 36 32 32 33 34 35 37 38 38 38 37 40 44 44 48 53 55 59 63 67 70 74 79 83 89 91

GFSWCAN_prec_cthk_039.txt.gz
RH
78 76 78 80 81 78 76 73 66 64 73 61 58 50 41 43 58 70 62 49 43 45 51 43 40 39 41 42 47 46 49 49 50 52 52 52 51 49 48 45 48 47 48 49 50 51 40 26 33 36 32 31 35 39
84 78 79 83 80 80 76 74 70 69 69 75 61 54 50 47 49 54 46 42 40 40 48 51 50 49 47 46 45 46 45 45 45 47 48 49 52 52 50 47 41 41 33 38 37 37 29 31 32 32 34 36 41 48
86 87 82 82 81 82 78 76 74 70 65 68 72 65 60 53 50 48 46 42 39 43 48 50 49 49 48 47 45 43 45 43 42 41 45 46 44 45 48 47 41 37 34 37 38 32 34 36 37 38 41 45 51 56
84 85 79 79 84 86 78 77 75 71 64 62 64 68 68 61 53 48 44 41 38 38 43 53 50 52 52 50 50 49 48 49 45 41 44 42 40 38 41 38 40 37 38 41 42 38 41 40 40 43 48 53 55 61
86 84 79 79 91 86 77 78 75 73 67 62 57 56 58 58 54 50 45 42 40 37 43 49 50 52 53 51 50 51 49 44 43 45 47 47 45 47 48 49 45 38 37 42 40 34 37 39 42 48 51 57 66 70
89 91 80 79 92 88 79 78 76 76 72 65 60 54 50 46 44 44 42 42 40 37 37 44 46 46 45 44 43 44 45 45 46 48 50 49 47 47 52 52 36 37 39 39 40 42 44 45 48 56 66 73 75 80
94 88 79 77 85 92 83 79 76 76 75 72 68 62 58 53 47 42 39 40 39 37 36 46 45 45 46 46 46 46 47 47 49 49 50 49 50 53 57 54 44 45 45 46 48 50 53 59 66 72 75 76 80 81
96 93 84 78 77 88 91 83 80 77 76 75 74 72 69 65 57 55 54 52 49 45 42 48 49 47 50 52 54 54 55 55 55 58 58 58 61 63 62 53 54 53 53 53 55 57 61 67 72 74 78 86 85 85
99 97 93 86 80 82 87 90 87 82 80 78 76 76 75 73 69 66 66 64 60 55 52 52 52 54 56 59 60 61 61 63 63 65 66 67 68 65 58 56 56 55 55 58 63 69 76 79 86 88 90 89 86 85
99 98 95 90 85 80 77 84 89 90 85 82 80 78 77 76 75 73 72 67 66 65 62 62 60 62 61 63 64 64 65 67 65 65 68 67 62 56 57 57 60 63 68 74 78 82 85 88 92 95 93 89 85 81
99 99 98 98 94 87 78 73 72 78 84 85 85 83 81 81 79 76 76 73 73 71 67 67 66 65 64 63 65 66 66 66 65 63 67 63 63 66 71 73 73 76 80 83 85 89 93 96 94 90 86 81 76 65
96 98 98 98 98 97 96 91 84 81 81 78 78 81 83 81 79 78 77 75 72 72 70 68 67 66 65 66 69 73 75 77 79 77 80 76 75 80 82 81 82 83 85 88 90 91 87 82 81 79 72 66 64 58
86 91 98 99 97 98 98 98 97 95 93 89 87 84 81 81 81 80 78 74 71 68 67 67 70 74 82 90 94 95 95 92 89 89 86 83 83 84 82 82 87 89 87 82 81 79 81 80 76 72 67 60 55 50
76 80 86 95 99 98 98 98 98 98 97 94 94 94 92 90 87 87 85 79 72 71 73 76 82 91 95 98 99 98 97 95 92 89 84 85 89 88 88 87 84 82 80 82 83 81 77 74 68 60 55 52 47 44
62 64 71 76 83 91 97 99 98 98 96 97 96 97 94 93 95 95 94 92 92 94 96 96 97 97 98 98 98 98 97 95 93 90 90 93 92 90 87 85 84 83 82 81 79 75 69 62 57 51 46 43 42 39
48 50 52 58 61 69 80 90 94 95 98 98 98 96 95 96 98 98 97 97 97 97 98 98 98 98 98 97 96 97 97 94 94 96 96 96 97 91 90 90 89 86 85 81 77 69 60 50 45 43 42 39 39 39
36 43 44 44 47 50 55 63 68 78 89 96 96 97 97 97 97 98 98 98 98 98 98 98 97 97 97 97 95 95 94 96 94 97 97 96 94 91 89 93 96 86 80 73 62 51 47 47 45 42 41 38 38 39
31 32 33 36 38 40 42 45 45 53 61 68 73 79 83 86 87 88 88 90 90 89 90 92 93 96 96 96 96 97 96 95 95 95 93 95 96 95 89 87 82 73 60 49 45 43 43 42 38 36 37 37 37 39
23 27 30 30 30 32 33 37 39 42 48 51 54 59 63 65 68 71 71 71 72 74 75 77 80 81 83 83 81 83 85 82 85 91 93 86 78 73 69 63 53 42 36 34 32 33 34 37 39 39 38 38 39 39
19 20 24 28 29 31 33 38 39 43 47 52 54 56 57 58 58 58 58 59 61 62 63 65 69 69 68 71 71 71 71 69 66 64 61 58 56 52 46 40 32 30 29 30 33 35 34 35 34 32 31 32 33 30
20 20 20 26 30 33 36 38 41 43 47 50 54 56 57 57 57 58 58 58 59 58 57 59 59 59 58 57 55 52 51 48 45 46 47 46 45 41 35 33 33 35 37 38 36 36 37 34 33 34 34 33 34 36
24 25 25 26 33 37 41 44 45 45 46 49 50 53 53 54 55 56 57 56 57 56 58 59 58 57 54 52 50 49 48 45 43 40 38 37 37 37 38 41 43 43 41 41 41 39 35 36 35 35 36 37 41 45
26 27 30 33 36 40 49 48 50 50 51 55 53 54 55 55 57 60 59 59 62 66 68 67 64 62 61 62 60 55 51 46 43 42 41 42 44 46 48 47 45 45 45 43 39 38 38 38 37 37 37 38 41 46
29 33 35 38 42 51 50 53 55 56 58 60 59 59 60 60 62 65 66 66 71 78 78 75 72 71 70 65 59 55 51 49 49 50 51 52 51 48 49 50 50 47 42 40 39 35 31 29 28 28 30 33 37 42
36 44 46 51 51 52 56 60 63 63 67 69 70 73 71 71 71 72 70 75 83 85 85 85 83 81 76 70 68 66 64 62 60 58 52 49 51 53 54 50 45 43 39 32 27 25 25 25 26 26 27 29 32 37
46 48 50 61 65 63 63 68 74 78 82 84 85 86 88 87 84 78 78 85 87 89 88 85 84 84 82 78 74 71 66 59 53 52 52 54 55 51 47 44 38 33 30 28 26 26 27 26 26 27 27 29 33 38
58 59 60 67 81 82 81 75 81 89 95 96 96 96 93 90 82 82 86 85 84 85 85 82 78 74 71 70 67 65 63 63 62 58 54 50 49 46 38 33 31 30 30 30 28 26 27 28 29 32 35 36 39 43
74 74 77 90 95 96 92 90 90 98 98 96 95 95 94 90 88 88 88 87 85 84 82 80 79 76 76 76 76 76 73 61 48 45 45 40 36 35 34 33 32 30 27 27 28 30 31 33 36 39 42 45 49 53
97 96 96 97 98 98 98 98 98 97 96 97 97 97 96 96 94 92 87 85 84 84 84 83 83 83 82 76 68 56 47 43 41 39 38 38 37 35 32 29 28 28 28 30 33 36 38 41 44 46 50 54 56 59
97 98 98 98 98 98 98 98 98 98 98 98 95 92 90 88 87 86 85 84 83 83 80 76 71 65 56 45 40 40 40 40 41 40 39 36 32 29 29 29 29 30 32 34 35 38 42 45 48 51 55 62 65 68
98 98 98 98 98 98 97 95 94 94 92 90 88 86 86 86 84 82 77 71 66 61 56 50 44 41 41 42 41 42 43 43 40 35 31 31 31 32 33 33 33 34 36 38 40 41 43 47 50 54 57 61 67 74
95 95 93 91 90 88 89 87 85 83 82 79 74 66 59 54 52 49 48 48 46 47 46 43 44 45 46 46 47 47 44 39 34 31 32 34 35 35 36 36 36 37 40 43 45 45 46 51 55 59 62 65 70 76
74 74 74 72 68 64 56 51 50 49 49 49 48 49 50 52 54 54 51 50 51 49 49 49 49 49 50 49 48 44 38 32 32 34 35 36 37 38 39 38 38 40 42 46 47 49 49 50 55 62 68 70 73 78

GFSWCAN_prec_cthk_042.txt.gz
RH
97 95 92 81 76 73 70 71 73 74 69 59 55 46 37 37 38 48 65 77 63 52 46 44 44 41 37 38 41 42 46 47 47 48 50 50 51 49 47 45 52 51 55 55 53 52 40 25 30 32 30 29 30 34
90 83 78 79 75 74 72 74 74 74 68 62 62 44 37 37 46 55 78 67 61 55 56 51 47 45 41 37 37 46 45 46 44 48 48 49 52 49 46 47 45 48 40 43 40 37 28 28 30 31 34 36 35 38
87 85 83 85 83 79 77 76 78 76 70 72 67 47 41 46 65 79 85 67 58 56 58 56 51 48 48 47 48 46 45 42 41 41 44 45 43 45 47 48 43 39 37 39 38 30 32 34 35 37 39 41 42 45
85 86 83 82 81 81 80 76 74 78 79 70 64 54 45 52 57 69 70 64 54 52 57 59 59 60 57 51 48 45 42 42 41 41 44 46 42 41 42 39 39 36 37 39 41 37 38 37 37 38 40 43 47 53
82 86 88 88 85 84 82 75 73 73 78 76 68 61 55 53 58 61 62 53 46 41 49 54 52 53 52 52 50 48 47 48 49 50 49 45 41 42 45 46 43 39 40 43 42 36 37 37 38 41 45 50 56 63
86 89 89 87 87 87 81 80 75 72 71 73 75 70 68 62 57 51 51 50 45 41 41 54 52 55 55 55 55 51 49 48 46 44 47 48 46 47 53 53 36 38 40 42 43 44 45 47 49 51 56 62 71 76
88 87 88 91 89 89 85 87 77 73 71 68 67 67 66 65 61 53 48 49 43 40 37 46 46 48 50 48 46 46 46 45 46 49 51 51 51 53 56 54 43 46 49 51 52 54 55 57 59 61 65 72 77 78
87 87 89 90 89 90 87 83 80 77 73 68 63 60 58 55 52 51 49 46 43 39 38 45 47 44 46 48 48 47 46 47 48 50 51 52 55 58 59 52 56 58 59 58 58 58 58 60 65 71 77 81 84 89
93 89 86 92 91 95 88 84 81 80 77 73 69 64 59 57 55 55 51 49 46 42 42 44 46 51 53 54 55 54 54 57 57 59 60 62 63 64 61 61 61 59 59 60 62 65 70 76 80 81 83 90 95 96
96 92 88 91 95 96 93 87 84 83 81 77 75 72 73 74 72 67 65 63 62 61 58 59 61 61 60 63 64 62 63 65 63 62 65 65 64 65 64 61 61 63 67 73 78 80 83 84 87 91 94 92 90 87
98 96 92 91 91 93 96 94 89 86 82 78 77 78 81 80 78 75 76 74 75 74 72 72 71 69 70 70 72 71 70 68 66 63 65 63 61 63 65 68 73 77 82 84 86 88 91 93 94 90 86 84 79 71
99 98 97 94 91 90 91 92 92 92 90 86 83 85 85 84 84 86 84 82 79 78 76 74 75 74 73 71 71 72 71 71 71 69 71 69 72 77 80 83 84 85 86 88 90 87 84 83 81 80 77 72 69 64
99 99 99 98 96 93 89 88 86 82 82 84 86 86 84 87 87 85 84 80 77 73 73 71 71 72 71 72 73 74 76 77 78 83 84 83 83 85 89 88 87 86 83 82 82 82 82 79 76 71 67 65 60 53
99 99 99 98 98 98 97 95 92 89 86 80 80 82 82 87 86 82 76 71 68 71 73 73 74 75 77 81 85 84 87 90 91 89 86 89 89 90 91 88 87 83 82 82 82 81 78 74 69 66 61 56 52 50
95 97 98 98 99 99 99 99 97 96 96 95 92 92 89 87 88 86 84 83 85 91 93 94 94 92 93 94 96 98 98 96 92 89 92 93 93 93 91 87 84 83 82 81 80 78 76 71 64 56 51 48 45 42
76 82 89 95 97 99 98 98 98 98 98 98 94 93 91 91 92 93 92 94 96 97 97 98 98 98 98 97 96 97 97 94 93 94 96 97 95 93 87 85 85 84 81 80 78 74 67 58 49 45 41 39 38 36
59 63 69 77 82 89 91 92 94 98 98 97 96 97 95 94 95 96 96 96 96 97 97 97 95 94 94 94 93 93 91 93 95 95 96 96 94 91 90 88 89 92 82 74 69 60 49 41 38 36 31 29 30 32
41 47 52 54 58 63 66 68 74 85 93 97 97 97 96 95 96 96 95 95 95 95 94 94 93 94 94 92 91 90 91 90 90 90 93 94 94 92 94 88 81 79 70 60 46 39 36 32 32 32 33 32 28 25
23 27 31 36 40 43 45 50 54 59 66 71 74 78 81 81 81 80 80 78 78 78 78 77 80 80 81 82 80 81 79 78 80 84 89 92 90 84 75 70 64 57 50 40 35 34 34 34 34 34 33 29 26 27
14 16 21 24 25 28 33 39 43 46 55 58 60 60 62 66 69 69 67 66 65 65 65 66 65 63 61 61 62 66 69 68 67 68 62 60 57 55 54 54 51 48 41 38 37 37 37 37 38 36 32 31 32 32
15 14 14 20 23 27 31 36 39 43 48 50 53 54 56 56 55 55 55 55 54 55 54 57 56 54 55 56 55 56 55 53 52 52 51 51 55 57 55 51 44 40 39 40 40 40 40 40 35 33 32 31 29 27
16 16 17 19 26 30 35 38 39 40 42 48 50 52 53 54 54 53 53 53 56 54 54 57 60 60 57 55 52 52 53 53 53 53 55 55 54 50 46 45 44 46 46 44 43 43 39 35 33 30 26 23 22 23
17 17 19 25 26 31 40 41 41 43 46 48 48 49 51 51 52 53 54 52 55 56 59 62 65 66 64 65 64 61 59 60 58 54 53 53 51 51 53 56 55 51 50 48 43 38 35 33 28 24 23 23 23 23
21 24 27 32 36 43 42 45 47 48 53 53 52 53 54 56 56 57 56 56 62 67 70 73 75 76 77 77 73 72 70 69 63 62 63 65 66 65 62 59 58 53 47 40 38 35 30 26 25 25 25 24 25 26
24 35 35 41 41 42 46 48 51 54 56 58 59 62 63 63 62 61 61 65 72 75 78 81 84 86 83 83 85 84 81 80 79 77 74 70 65 63 62 58 53 45 42 38 31 28 27 26 26 25 26 28 29 31
36 40 40 48 52 54 59 59 59 60 65 66 68 72 73 74 73 70 68 75 80 83 84 86 89 90 91 91 90 88 84 77 71 67 66 68 68 65 58 52 47 39 33 30 29 27 26 25 27 29 31 33 36 37
43 45 51 53 56 67 71 74 74 72 77 78 80 82 87 86 81 80 84 85 85 88 88 88 88 89 89 87 82 78 75 74 73 74 73 67 59 51 43 37 34 33 31 30 28 27 27 29 32 34 36 39 43 47
69 69 68 68 70 81 86 88 89 86 84 89 90 94 98 96 92 90 90 89 91 90 90 89 88 88 86 84 84 85 84 78 73 62 52 43 40 38 37 35 33 31 29 29 29 30 32 34 36 38 40 43 46 50
85 87 90 94 97 98 98 98 98 98 95 98 98 98 98 96 94 97 97 94 91 90 89 88 89 89 88 87 84 74 61 49 43 41 41 39 38 37 35 32 30 30 31 32 33 34 37 39 41 42 44 47 50 51
94 95 95 95 96 97 98 98 98 97 98 98 97 96 96 96 95 94 92 91 90 90 89 87 85 79 69 55 47 44 43 42 42 42 43 42 38 33 31 32 33 34 33 33 35 38 41 45 46 47 47 51 55 57
98 98 98 97 98 97 98 98 98 98 98 98 97 96 95 94 92 91 88 84 79 72 66 58 49 43 42 42 42 43 44 45 47 46 41 35 32 33 34 35 34 34 35 35 37 40 44 47 47 47 47 49 55 60
95 97 98 96 94 92 92 92 92 91 90 88 86 81 74 66 62 57 55 54 52 50 47 45 44 45 46 46 47 49 49 47 42 34 31 32 34 34 35 35 35 36 37 38 42 45 48 48 48 48 48 49 53 60
69 71 73 73 71 67 61 59 58 55 53 52 51 51 51 52 53 52 52 52 52 49 48 47 47 48 50 53 53 50 44 36 32 31 32 34 35 37 37 37 39 41 43 45 47 49 50 50 48 48 48 49 53 61

GFSWCAN_prec_cthk_045.txt.gz
RH
98 97 95 96 95 89 78 69 67 69 70 68 62 57 58 60 65 62 54 56 48 53 49 40 33 33 36 36 39 39 42 43 44 47 51 46 47 44 43 42 48 48 55 57 54 52 45 28 31 33 29 28 29 32
98 98 98 95 88 82 72 74 74 72 67 68 65 61 58 60 61 55 55 57 59 66 50 42 39 39 34 33 33 40 41 41 43 47 45 45 49 49 44 44 43 43 40 43 40 36 30 29 30 31 33 35 37 40
93 91 86 81 76 74 76 77 80 79 75 71 67 61 57 54 52 53 56 66 74 83 58 52 52 52 48 45 44 39 43 45 43 40 43 44 44 42 45 43 41 39 39 38 37 31 32 32 33 34 38 41 42 44
90 87 80 73 71 75 81 84 86 82 78 73 65 59 48 46 50 56 72 84 86 78 76 63 61 57 51 47 43 45 44 45 42 41 42 44 41 40 42 40 41 37 36 37 38 36 37 35 38 39 40 42 44 47
80 75 76 79 77 79 83 85 86 84 80 76 68 56 52 52 53 58 72 74 78 68 70 73 62 59 57 55 52 50 48 44 41 43 47 48 46 47 48 45 41 38 40 44 44 39 40 41 43 45 47 51 54 59
85 87 83 80 81 84 82 86 84 84 85 80 65 57 58 60 61 64 75 74 65 62 59 73 74 72 73 66 57 53 50 47 48 50 54 51 44 44 52 54 40 41 43 44 45 49 51 53 54 56 59 62 64 67
90 90 86 82 81 84 74 82 86 87 85 83 75 68 63 62 65 68 65 64 60 55 50 63 66 66 67 66 62 58 55 52 49 50 49 50 50 52 55 53 47 49 51 54 56 58 60 62 64 64 65 68 70 76
88 92 90 85 86 84 77 83 87 82 86 82 78 71 69 66 67 69 66 62 59 52 47 53 54 56 57 57 54 50 47 46 48 50 51 51 55 57 58 54 56 59 61 63 63 63 64 65 67 71 76 82 86 92
93 92 91 91 91 91 82 74 74 75 74 83 82 75 70 65 63 64 59 55 50 45 44 44 46 50 49 49 48 49 49 52 51 54 56 57 60 61 60 62 62 63 65 67 68 68 70 75 80 84 87 92 96 96
90 97 95 94 92 94 91 87 81 76 73 70 68 65 66 67 63 59 55 50 46 45 43 48 50 52 52 55 56 56 58 60 60 60 63 64 65 65 63 64 64 65 65 69 74 82 86 89 92 94 93 91 88 85
96 97 95 95 95 92 90 90 86 82 78 74 72 75 72 66 60 58 60 58 59 60 61 62 64 65 68 68 69 69 69 69 69 67 70 68 65 65 65 68 72 77 82 85 89 92 92 91 89 87 86 82 76 72
98 96 97 97 95 94 97 94 89 87 84 79 78 77 75 75 75 78 79 77 75 78 76 77 77 75 75 75 75 76 75 73 73 71 71 68 67 70 76 82 86 89 91 91 89 87 84 82 80 76 74 71 65 58
98 98 97 96 98 97 96 96 96 95 93 90 87 86 86 90 94 91 86 83 81 80 81 81 80 77 75 73 72 73 71 72 70 71 69 67 72 83 90 92 90 88 88 86 84 83 80 76 72 66 62 59 56 54
98 99 98 97 96 95 95 94 93 93 94 93 96 97 92 92 89 86 85 83 82 81 78 75 71 70 72 73 75 76 76 77 78 77 76 83 91 94 92 90 88 86 84 82 79 77 74 71 67 63 59 56 53 48
98 99 98 99 98 97 95 94 92 90 89 88 87 90 88 85 84 82 82 81 80 80 79 81 83 86 90 91 93 94 94 90 85 86 90 93 96 96 94 90 87 86 82 80 77 76 74 70 64 58 51 48 43 38
97 98 99 98 97 96 96 96 96 95 94 95 94 96 91 89 90 89 88 86 89 90 94 93 94 96 97 97 96 96 96 93 93 96 96 96 96 95 91 89 87 85 84 83 81 75 69 63 53 48 41 37 33 30
86 88 93 96 98 97 98 98 99 98 98 95 95 94 94 95 96 94 93 93 94 95 97 98 97 97 96 96 95 94 92 91 93 94 95 94 91 87 88 87 91 91 86 80 76 69 58 49 40 37 32 30 29 30
70 75 80 85 89 88 87 91 96 97 98 97 97 97 97 97 96 97 97 97 96 96 96 95 94 95 94 92 92 91 92 92 92 91 91 92 91 90 88 86 80 81 83 80 67 51 41 38 34 35 35 33 32 29
47 53 60 68 68 69 72 79 82 89 95 96 96 96 95 95 92 93 93 91 91 91 91 88 87 86 85 84 81 82 83 81 79 78 79 79 81 84 85 82 73 65 59 52 48 42 40 40 39 37 35 33 28 26
24 30 35 41 46 47 54 61 66 67 74 77 79 80 81 80 80 78 75 73 70 68 68 71 72 72 71 71 68 64 62 59 56 62 65 70 70 67 63 58 56 56 55 51 46 45 42 41 39 38 36 30 28 28
13 14 18 20 25 33 40 49 52 60 60 62 65 66 68 69 68 67 65 62 59 57 56 57 58 58 58 58 57 57 57 58 56 55 56 60 60 60 60 60 61 57 53 51 49 47 45 45 45 40 35 32 28 25
13 12 13 16 21 27 34 36 38 41 46 49 51 52 55 55 55 55 54 53 54 54 54 53 55 55 56 56 55 54 54 54 56 60 63 63 64 64 62 59 58 60 60 57 55 54 53 47 41 38 33 28 26 25
12 12 16 22 24 29 40 39 38 41 44 46 46 48 51 52 53 53 53 53 54 55 56 58 61 63 63 62 62 62 61 62 61 61 60 61 64 66 68 69 69 67 63 59 57 51 46 44 39 32 29 27 25 25
15 17 22 27 31 39 38 40 43 45 48 48 48 49 50 51 51 52 54 54 56 58 61 64 67 70 72 74 75 75 74 74 73 75 76 78 79 78 75 70 66 63 62 58 52 48 40 34 30 29 27 27 28 30
20 32 32 37 38 38 42 43 43 47 51 51 52 55 58 57 59 58 58 58 61 65 69 73 77 80 82 84 83 83 84 86 89 90 86 81 76 73 71 71 68 60 53 47 40 35 32 30 27 28 30 31 32 34
30 34 37 43 52 50 55 57 57 56 56 59 62 62 64 68 69 68 66 70 72 76 80 82 85 87 88 90 91 92 92 91 85 81 78 77 78 77 70 61 52 45 39 34 32 30 28 28 29 31 32 35 37 39
39 43 44 46 48 50 55 61 66 67 68 69 70 75 76 76 75 75 78 81 84 86 89 91 93 93 94 93 92 90 86 82 82 84 83 79 69 57 48 42 39 37 35 32 30 30 29 29 30 33 37 40 40 41
58 61 61 64 63 62 63 68 74 77 78 81 79 83 87 88 90 90 90 92 94 93 93 94 94 93 93 93 91 89 88 86 80 74 62 50 44 42 41 40 37 34 32 31 31 31 31 33 35 38 40 42 43 44
75 78 77 77 77 81 85 88 89 92 96 94 93 95 98 98 98 98 98 98 98 96 97 96 95 94 93 92 90 83 72 58 49 46 44 42 42 42 40 36 33 33 33 33 33 34 35 36 37 41 45 47 47 46
85 84 85 87 87 89 91 93 95 98 98 98 98 98 97 97 98 98 97 95 96 97 96 95 91 86 76 62 53 49 47 44 43 43 44 44 42 37 34 33 32 33 33 34 34 35 36 40 43 48 51 51 49 49
90 90 93 94 94 95 96 97 97 98 98 98 98 98 98 96 96 97 96 93 87 80 73 64 54 50 47 44 43 43 44 44 45 45 43 38 34 32 32 33 34 34 33 34 35 37 41 44 48 52 52 50 48 47
80 85 87 89 91 90 92 94 95 95 94 93 91 86 81 74 70 65 64 62 60 53 50 48 45 45 44 44 45 48 49 48 46 41 35 34 34 35 36 36 37 37 39 42 44 46 49 52 53 53 51 48 46 46
61 63 64 66 64 59 53 51 53 53 52 52 52 52 52 54 56 56 56 57 56 52 50 50 49 48 49 51 51 49 46 42 39 38 37 37 37 39 40 43 45 47 48 50 52 54 55 55 54 52 49 47 45 45

GFSWCAN_prec_cthk_048.txt.gz
RH
75 73 70 89 97 98 97 97 96 98 89 79 75 72 70 71 68 71 67 72 63 57 59 47 41 39 44 59 61 57 53 46 40 47 52 46 49 38 38 36 42 45 54 58 55 61 53 28 30 32 30 28 29 32
96 97 93 92 98 98 97 98 93 84 78 75 73 71 72 71 69 79 84 74 61 60 61 49 42 37 37 49 55 55 49 40 37 43 46 47 53 48 42 43 39 40 37 38 37 36 30 29 30 31 32 33 35 38
98 98 98 98 98 98 92 87 80 75 73 73 70 69 69 65 76 84 84 72 62 65 65 58 50 39 37 40 44 43 40 37 38 39 43 47 53 43 51 42 38 35 36 36 35 31 30 31 32 33 35 38 40 43
98 98 97 93 88 83 80 79 77 76 73 70 70 66 63 65 76 80 74 64 62 65 70 62 53 45 44 38 38 37 36 42 43 45 47 47 47 40 40 38 37 36 37 37 34 32 34 34 37 40 41 43 46 48
92 88 85 85 86 87 85 82 79 75 72 68 63 63 64 67 75 72 66 67 76 84 83 69 56 56 55 51 49 48 47 47 47 48 49 48 43 44 44 44 42 38 35 38 41 37 39 42 45 47 51 54 56 58
82 82 82 80 80 82 81 79 79 75 71 70 67 65 65 69 68 74 67 66 73 84 89 84 73 69 67 60 52 50 51 49 49 52 51 50 50 50 53 43 40 41 41 41 43 46 50 53 56 58 60 62 64 65
76 76 77 82 84 85 88 89 82 82 72 69 66 63 57 59 66 66 63 73 83 84 82 92 88 81 68 59 59 60 58 56 57 58 59 56 51 47 52 49 47 45 47 50 53 57 60 62 64 64 65 66 70 74
85 85 85 87 93 91 90 88 89 84 80 75 71 74 79 80 75 69 71 78 77 71 68 79 85 86 81 80 78 76 76 76 65 60 56 55 55 55 57 50 51 54 57 60 62 63 65 66 67 69 74 77 83 90
90 88 87 83 82 87 88 91 92 92 89 85 82 80 81 82 77 73 74 73 69 64 63 59 65 67 73 70 71 71 66 62 55 55 54 54 56 56 55 56 59 61 64 65 67 69 70 72 76 82 86 92 92 90
92 88 86 86 88 85 90 91 88 82 81 77 74 70 73 75 72 72 73 69 66 62 58 61 60 59 57 58 56 52 52 55 56 56 59 60 61 61 63 66 68 69 69 71 74 79 83 85 86 88 87 85 86 87
96 95 95 91 91 92 94 90 85 84 84 73 67 71 77 77 73 70 70 69 66 62 57 55 52 49 51 55 56 56 59 61 64 62 66 67 68 72 71 70 70 74 79 83 85 89 91 91 88 86 83 79 74 70
96 96 94 93 90 86 86 84 81 78 82 80 79 79 75 72 73 74 75 71 65 65 60 58 58 60 63 65 66 70 73 73 75 72 76 72 72 69 68 69 74 81 85 87 88 90 89 84 80 76 71 67 63 59
97 95 95 93 91 93 91 90 84 78 77 78 78 78 80 81 81 78 71 67 66 67 70 74 76 77 77 76 78 79 78 79 73 77 70 66 66 70 77 84 86 85 86 88 87 83 80 76 70 66 64 60 56 53
97 96 98 97 97 97 97 97 96 91 88 87 89 91 89 89 85 82 79 80 81 81 81 82 82 81 81 79 78 78 77 75 76 73 70 72 81 87 89 90 88 87 86 85 82 77 74 72 68 65 62 57 52 48
99 98 98 99 98 98 98 97 97 96 96 97 96 98 95 87 90 88 88 88 86 85 83 81 80 78 79 80 82 84 86 85 82 82 89 92 94 95 94 91 87 85 82 79 75 75 73 70 65 59 53 48 44 41
99 98 98 98 98 97 98 98 97 96 95 96 93 91 89 90 88 86 86 85 82 81 80 79 82 85 89 92 93 94 93 89 90 92 96 96 95 95 91 87 86 81 78 78 79 72 68 64 58 51 45 41 34 31
95 98 97 98 98 98 97 97 96 97 98 96 92 93 93 92 91 92 91 90 88 88 90 93 94 96 96 96 96 95 96 95 96 96 95 94 93 91 89 86 82 83 80 73 72 71 70 60 47 36 34 34 34 34
86 92 94 92 93 96 98 97 98 96 94 93 92 95 95 97 95 94 94 95 95 94 95 96 94 96 96 95 95 94 94 94 93 93 93 90 86 83 80 75 72 69 69 73 70 59 49 40 35 39 38 38 35 32
71 81 86 82 84 86 90 93 97 97 96 97 98 98 98 97 97 96 95 94 93 94 93 93 94 93 95 93 92 92 92 90 86 82 79 78 76 75 76 76 78 81 77 62 54 49 44 42 44 44 42 39 38 38
49 58 65 68 64 69 78 88 87 91 96 97 96 97 96 96 94 89 88 88 88 89 90 91 89 88 86 83 79 76 73 70 66 64 65 68 71 73 74 74 74 73 64 57 52 47 49 50 49 47 47 46 42 38
32 36 39 42 42 47 62 71 77 82 85 87 88 89 88 86 83 80 77 72 71 68 69 67 66 65 64 59 56 55 55 56 54 53 54 55 57 57 61 65 65 64 60 56 55 55 55 55 56 54 47 43 41 35
20 22 25 27 32 40 47 54 60 63 69 72 75 74 73 70 69 68 65 63 62 59 57 55 55 55 55 55 55 56 57 57 57 58 60 61 64 67 69 68 64 62 65 66 65 65 62 58 53 49 44 38 33 29
11 13 17 24 30 37 44 43 44 48 54 57 60 60 61 61 59 55 54 53 54 54 55 56 56 56 56 57 57 57 57 59 61 62 64 66 69 70 69 70 73 74 73 69 64 62 59 54 47 39 34 30 28 30
14 16 19 24 31 38 37 40 42 45 46 46 45 48 48 50 49 52 53 54 56 56 58 59 61 63 66 68 68 70 72 73 73 73 73 75 77 81 83 81 76 71 68 68 65 57 48 40 35 31 29 30 30 31
18 29 28 34 35 37 41 41 41 44 49 48 49 52 53 54 55 56 56 57 59 60 62 64 68 72 74 76 79 81 81 82 83 87 89 90 88 83 77 73 74 75 68 56 48 41 37 33 31 30 30 30 32 34
29 32 34 39 41 41 45 48 49 50 50 52 53 55 57 58 60 61 60 63 66 69 72 75 78 80 83 86 88 90 92 93 93 90 87 82 81 81 80 76 65 53 46 42 39 35 31 30 31 31 32 33 35 37
38 44 47 47 48 46 48 50 52 53 56 59 62 64 66 67 67 67 70 76 79 81 84 86 88 89 92 95 97 96 93 90 88 88 88 86 81 72 58 48 45 44 41 35 30 31 32 32 32 32 33 36 38 40
51 56 56 57 57 55 57 59 62 67 68 70 72 75 77 78 81 84 87 88 88 92 95 97 98 98 98 98 96 95 93 91 89 82 71 58 48 46 46 44 40 35 32 32 32 32 32 32 33 34 36 37 41 46
66 67 65 66 66 68 71 73 75 79 82 87 88 88 87 90 93 98 98 98 98 98 98 98 98 98 98 98 96 90 81 68 56 49 47 47 46 43 39 36 33 32 32 32 32 32 33 34 35 36 39 42 47 50
75 76 78 78 78 82 85 85 85 85 87 89 88 93 95 95 98 98 97 98 98 98 98 98 98 95 86 73 62 54 50 49 47 44 43 43 41 38 35 34 33 33 33 33 34 35 36 37 38 41 45 49 52 52
85 86 87 87 87 89 88 89 90 90 91 92 94 96 97 98 98 96 96 95 93 88 83 75 63 57 54 53 50 47 46 46 46 46 43 40 38 37 37 37 36 37 38 40 42 42 43 45 47 50 53 55 54 52
67 71 71 73 75 74 74 78 81 82 83 84 83 81 78 75 72 69 68 67 65 60 57 55 52 50 49 49 51 52 50 48 44 42 40 40 40 41 42 43 45 46 46 46 47 48 50 52 55 56 57 56 53 49
54 56 59 61 59 55 48 48 52 52 53 54 54 55 56 56 58 59 59 60 59 56 55 55 56 57 57 57 54 50 46 43 41 42 44 46 46 47 48 48 48 48 49 51 53 55 56 57 56 55 54 52 49 47

GFSWCAN_prec_cthk_051.txt.gz
RH
57 54 50 46 45 47 51 47 44 67 83 90 89 96 96 91 84 88 91 87 76 70 59 61 67 59 52 59 59 58 62 54 51 51 51 44 47 39 36 34 40 45 53 59 59 66 56 32 29 31 35 29 28 29
44 45 46 47 45 41 43 51 71 89 88 84 83 93 89 89 82 89 94 85 79 75 59 54 62 54 55 55 63 58 58 54 50 52 48 47 48 46 40 44 36 43 40 45 40 42 36 28 32 33 31 31 35 34
60 58 58 58 62 62 77 84 90 95 97 96 87 88 86 80 81 86 89 78 77 74 67 61 64 54 48 44 49 62 60 58 56 51 47 45 51 42 51 44 42 37 36 37 35 31 33 32 32 33 34 35 36 39
80 80 78 81 88 92 97 95 97 99 96 95 92 85 81 80 84 90 88 82 81 72 72 69 63 60 49 41 42 52 61 59 57 51 49 45 50 43 46 42 40 40 38 36 36 33 34 37 37 38 39 40 42 44
97 97 98 98 97 98 98 96 98 93 91 89 83 81 79 76 86 90 84 80 77 74 71 70 68 61 51 43 41 47 55 56 52 52 52 52 47 48 45 42 42 38 39 42 42 39 39 44 42 43 47 50 52 54
97 97 97 96 93 92 91 90 87 85 84 81 78 76 80 79 91 96 93 83 78 75 74 78 74 64 53 46 45 45 50 51 49 53 56 53 48 51 54 46 44 42 39 40 42 43 44 46 49 53 56 58 60 61
99 99 98 98 95 89 85 83 81 79 79 79 78 76 80 90 97 91 88 83 81 83 80 91 77 67 59 61 57 53 53 54 55 59 59 57 54 52 54 53 45 44 44 45 45 47 51 55 58 59 60 63 67 68
97 99 99 96 94 90 85 82 79 77 76 78 77 79 82 93 95 88 82 76 78 78 87 98 86 75 69 72 69 64 65 65 64 63 64 62 58 58 56 50 48 47 48 50 52 55 57 60 64 69 72 72 75 80
92 92 94 94 94 92 89 86 83 82 82 81 81 83 88 95 90 84 78 74 75 79 80 88 91 87 83 84 80 76 71 75 77 75 73 71 67 62 56 50 51 53 57 57 58 62 66 71 73 75 78 83 84 85
91 90 91 94 95 95 95 92 91 87 84 84 86 90 91 88 83 82 82 81 81 74 73 78 88 90 91 89 87 85 86 83 76 73 70 67 62 54 52 55 58 62 66 68 71 73 76 79 81 84 84 87 88 88
93 90 93 93 94 94 94 93 90 90 88 85 82 83 87 85 82 86 84 86 81 77 72 74 72 74 76 80 79 76 73 69 68 62 62 60 57 58 63 66 68 72 73 74 77 79 81 83 83 83 84 81 78 74
91 90 89 96 96 93 93 91 89 85 84 84 83 91 91 87 88 85 83 81 76 75 71 72 70 66 65 64 63 63 61 61 66 60 65 62 67 72 74 74 73 72 73 75 77 80 82 82 82 80 79 73 66 60
95 93 90 89 90 95 95 87 86 83 81 77 80 81 83 85 90 82 84 76 70 68 68 62 61 59 58 58 61 65 68 70 66 74 72 72 74 72 71 69 70 75 79 81 81 81 82 79 73 69 66 61 58 55
93 92 91 91 89 92 91 89 90 91 85 78 80 87 88 89 90 85 80 76 72 71 67 63 63 65 68 73 76 80 83 81 82 80 73 70 72 75 78 82 86 87 86 86 85 81 75 71 67 64 60 54 48 44
94 92 94 94 93 92 89 88 87 87 89 92 92 91 88 85 83 82 79 76 74 75 75 75 78 80 85 86 87 86 86 84 78 75 76 81 86 90 91 88 87 85 84 83 76 73 71 66 61 55 51 47 44 41
95 95 98 95 95 96 95 93 90 88 92 95 92 93 89 88 90 88 88 86 86 86 84 83 84 85 86 86 85 83 83 79 83 86 90 94 96 96 92 90 88 86 82 80 75 70 63 59 56 55 54 47 37 31
97 97 97 97 98 98 98 98 98 98 98 98 97 97 97 98 97 95 92 90 90 88 87 84 83 86 83 84 86 85 89 91 91 95 98 98 96 93 92 89 85 80 76 76 70 64 60 60 58 46 40 36 33 35
94 96 94 97 98 98 98 97 97 95 96 96 97 97 97 96 94 92 90 88 87 87 86 87 84 88 92 92 91 92 94 96 96 96 96 95 93 91 88 82 78 75 73 67 65 63 61 55 50 44 39 37 41 45
86 87 88 90 95 97 98 97 97 95 94 96 97 97 95 95 95 96 97 97 96 95 93 92 93 92 94 93 95 96 95 95 94 93 91 90 84 80 76 74 72 71 71 71 70 68 63 52 44 42 43 43 46 53
75 79 79 79 78 85 96 97 97 97 97 97 97 97 97 98 98 98 97 96 96 94 94 95 95 94 94 95 95 93 93 91 87 83 77 73 70 70 69 70 71 71 68 67 69 64 55 52 51 49 51 54 53 54
54 59 61 60 58 70 90 95 96 97 97 97 97 97 97 98 97 96 95 93 90 93 92 92 91 90 89 86 80 75 70 66 62 57 55 58 61 63 64 65 63 61 62 63 60 55 54 57 57 59 57 55 51 53
27 39 42 41 52 59 69 76 81 91 92 95 95 92 94 93 90 87 84 79 79 78 75 73 71 69 66 63 60 58 57 54 55 56 56 55 57 61 64 65 66 64 61 61 63 64 66 64 61 57 55 52 48 42
14 16 24 35 42 49 59 64 63 69 74 78 81 78 80 79 76 74 71 70 70 68 66 63 59 57 57 58 59 60 61 61 61 61 62 65 66 68 69 68 68 71 76 72 71 68 66 64 60 52 48 44 39 36
14 16 19 27 34 42 46 49 52 55 58 61 62 62 63 64 62 62 60 59 58 57 57 57 58 58 60 62 63 65 65 66 68 70 72 74 75 75 75 77 79 78 75 72 71 71 66 55 46 44 40 36 35 35
18 28 31 33 35 36 40 40 42 42 46 47 48 50 51 50 51 53 54 56 58 59 60 61 63 65 68 70 71 72 74 77 80 81 83 86 86 86 86 83 79 78 78 76 70 55 48 40 38 36 32 35 35 35
30 34 35 37 41 41 44 45 45 48 48 49 51 51 52 54 55 57 57 60 61 64 66 67 69 71 73 76 79 81 84 87 89 89 91 91 92 91 89 90 89 84 64 52 46 41 37 33 31 31 34 36 36 36
40 45 44 43 42 41 44 46 46 49 51 55 56 57 60 61 61 63 67 67 69 72 76 77 78 81 84 86 88 89 90 93 95 94 92 90 88 85 81 69 57 50 46 41 35 31 30 30 33 36 37 37 37 38
49 52 49 50 49 49 50 53 55 59 60 61 63 65 67 68 70 74 77 78 79 82 85 85 87 89 92 96 98 98 98 97 94 90 87 83 69 57 52 49 46 41 36 31 30 30 31 32 34 37 37 38 40 41
61 63 61 61 60 61 63 64 66 68 70 73 74 72 73 75 76 78 83 88 92 95 97 98 98 98 98 98 97 94 91 87 84 68 64 62 60 57 48 42 38 36 34 34 34 33 34 35 36 38 40 42 44 45
70 71 73 73 72 75 77 78 78 77 77 78 78 79 81 84 86 88 88 90 93 94 93 94 97 96 96 95 82 68 59 55 54 53 52 53 49 42 40 40 41 42 40 41 41 43 44 45 45 47 47 48 49 52
75 79 78 79 80 82 82 83 82 83 84 86 87 87 89 91 92 94 94 95 95 94 91 87 76 67 58 55 57 58 58 52 51 48 45 42 41 41 45 45 46 47 46 47 48 48 49 49 49 50 52 54 56 57
66 69 68 69 70 70 71 72 74 74 75 74 72 70 70 67 65 63 62 62 62 61 56 59 59 52 51 52 53 54 52 49 45 43 43 45 47 48 48 48 48 48 47 46 46 46 48 50 51 53 54 54 55 54
48 51 54 57 56 55 49 50 53 53 53 52 53 55 55 55 56 57 57 58 57 56 55 54 55 57 57 57 55 51 48 45 45 47 48 48 46 44 43 42 42 43 44 45 46 47 48 50 51 53 54 55 56 55

GFSWCAN_prec_cthk_054.txt.gz
RH
82 86 94 87 78 66 65 62 61 65 65 59 49 48 77 80 87 80 75 86 98 91 79 72 60 58 60 70 79 62 67 64 56 55 56 52 53 38 35 39 46 47 54 59 60 69 64 37 35 35 40 36 32 30
83 85 81 70 59 57 55 53 52 61 64 58 50 55 87 87 78 84 83 90 89 96 85 79 70 65 65 75 70 63 56 52 46 49 51 53 55 52 42 43 35 44 41 48 46 47 38 33 35 34 33 32 35 35
78 73 62 58 56 55 51 51 46 58 59 56 66 72 81 93 92 93 91 94 99 89 87 79 70 65 66 72 80 62 65 61 52 47 51 56 58 48 51 42 42 41 39 42 41 33 38 36 35 37 37 35 36 37
64 57 52 48 45 43 45 50 53 55 56 61 81 91 90 91 90 91 92 91 92 90 87 81 71 68 65 68 75 68 60 59 60 61 56 54 57 47 47 40 42 42 41 38 36 35 38 43 41 41 41 39 40 42
60 57 55 56 54 60 64 70 67 64 77 90 89 93 90 92 94 98 95 81 92 93 84 78 62 61 66 62 62 66 58 64 67 68 61 60 54 53 47 43 42 40 39 42 45 41 42 48 46 44 44 45 46 48
65 63 65 75 70 69 65 70 81 92 93 95 98 98 97 95 98 99 99 97 92 94 80 84 73 64 64 66 63 65 56 58 66 69 66 59 60 57 58 53 44 42 41 43 46 44 45 47 46 46 47 50 52 54
89 88 86 84 95 97 98 98 97 95 98 98 97 97 97 98 99 98 91 84 79 86 81 82 77 72 69 70 67 68 58 57 63 67 68 64 62 60 57 58 49 47 46 45 44 46 47 48 48 51 54 56 60 65
99 97 97 95 94 94 96 94 93 91 91 95 95 96 97 97 99 95 95 86 82 82 81 87 83 77 77 77 73 68 63 59 63 63 63 63 63 63 63 55 52 50 49 47 46 48 52 54 57 59 64 67 70 71
96 99 99 98 97 96 96 96 96 96 95 96 96 95 99 99 97 92 84 88 87 84 86 83 91 89 81 77 70 72 67 65 62 64 65 67 71 68 62 56 56 56 55 54 52 54 58 61 66 69 72 74 76 78
99 99 97 97 98 97 96 95 94 94 95 98 98 98 98 97 95 95 97 95 91 83 75 81 89 97 84 77 75 76 74 75 76 74 75 78 74 67 66 64 63 62 62 59 61 65 69 72 75 75 75 77 77 78
98 99 97 96 93 93 92 91 91 95 97 94 95 97 96 96 96 95 86 87 84 77 76 79 93 98 89 83 80 85 88 89 84 77 80 77 78 73 69 64 63 63 64 68 71 74 76 76 75 75 76 77 76 71
99 98 97 97 98 98 97 96 95 95 92 87 84 92 93 93 92 93 89 83 82 85 82 84 88 90 92 91 94 97 91 90 88 78 83 73 71 65 64 65 67 70 73 76 77 75 74 76 76 79 79 73 69 64
95 97 97 97 97 98 99 97 91 88 88 87 87 87 86 85 90 86 86 91 83 81 82 80 82 83 87 84 87 88 87 86 73 75 67 66 65 68 73 74 74 73 72 71 72 77 82 85 79 73 68 66 61 56
93 93 96 97 98 95 94 93 92 89 86 86 89 93 92 92 89 83 83 83 80 78 78 78 79 78 75 74 70 68 71 68 71 70 68 73 78 77 74 72 73 75 76 80 84 79 77 73 71 68 65 60 51 44
95 96 94 96 98 97 94 91 89 86 87 93 96 98 95 92 87 88 88 84 84 80 77 75 74 71 70 70 71 73 78 76 73 77 81 80 78 77 79 81 82 84 85 85 80 76 75 73 68 61 54 49 44 40
91 92 94 92 95 95 96 95 90 91 93 93 90 93 93 93 91 90 90 86 84 82 79 75 75 77 78 81 82 84 83 81 84 84 83 82 82 83 84 88 88 88 87 83 77 77 72 64 59 54 50 47 38 31
91 94 94 93 95 96 93 94 96 97 98 97 95 92 93 93 94 93 91 90 89 87 87 86 87 90 89 91 89 88 90 90 88 85 87 90 93 93 93 92 92 91 87 82 78 71 64 58 54 51 49 44 35 34
93 93 93 92 95 96 97 97 97 96 96 98 97 98 97 98 97 96 96 96 94 93 92 93 91 94 95 92 90 89 88 89 92 96 97 97 96 94 95 95 92 86 81 75 72 65 61 59 58 56 50 42 39 42
82 82 87 93 96 97 97 97 97 97 97 97 98 98 97 97 97 97 98 98 96 93 93 92 93 92 92 92 92 92 93 96 96 97 97 96 95 93 90 89 87 80 76 72 67 66 65 61 58 52 44 42 45 49
71 74 75 76 84 93 95 96 96 96 97 97 98 98 98 98 98 99 98 98 97 96 96 97 97 97 98 98 98 98 96 95 96 95 94 92 89 86 81 77 74 71 69 70 67 65 64 60 55 49 49 52 56 54
51 57 58 59 68 88 95 96 97 97 97 97 97 97 98 98 98 98 97 97 96 97 97 97 97 97 97 98 98 97 96 93 88 84 80 75 72 68 66 67 68 69 70 69 66 63 58 55 56 59 60 61 56 55
30 37 38 50 59 70 88 96 96 97 97 97 97 97 97 97 97 97 97 95 97 97 96 95 95 94 92 88 84 79 74 69 66 63 58 57 57 58 61 63 65 68 70 69 67 63 64 67 66 63 61 62 59 56
17 20 28 38 49 64 77 81 87 91 95 96 95 95 97 96 96 92 91 92 91 88 86 83 82 78 74 72 70 68 66 64 63 63 64 64 64 65 68 71 74 74 73 71 70 73 73 69 69 67 64 60 53 45
19 23 24 31 38 48 56 65 71 71 77 83 84 86 87 85 83 83 80 81 79 77 75 72 70 68 67 67 67 66 66 67 66 66 68 70 72 75 77 76 75 76 77 77 77 76 78 77 70 63 56 48 41 37
17 29 35 38 36 38 39 45 46 49 58 64 68 67 67 66 68 69 68 69 69 68 66 65 64 64 65 66 68 69 70 71 72 74 76 78 80 82 84 83 82 81 81 81 82 79 73 62 57 51 41 39 36 36
33 36 36 39 43 43 43 43 43 45 43 44 48 49 52 52 53 56 57 59 61 62 64 65 66 68 70 72 74 75 76 77 80 82 85 88 89 90 92 95 95 92 85 78 68 59 56 52 44 40 38 37 37 37
44 45 44 44 45 45 46 47 47 47 52 54 53 54 55 55 57 60 63 64 65 66 68 69 71 74 76 77 79 82 86 88 88 89 90 93 94 92 89 85 80 71 63 58 54 47 41 38 38 39 39 39 40 40
48 51 48 49 47 48 50 52 53 57 57 58 61 60 61 63 65 67 67 68 71 73 76 78 81 83 85 88 89 92 94 97 97 95 94 93 87 80 73 67 63 59 55 49 43 39 38 40 39 40 44 44 44 45
58 59 57 56 54 56 60 60 62 64 65 65 66 67 68 69 69 71 73 74 75 80 84 86 88 91 94 97 98 96 93 92 90 86 79 73 71 69 62 54 50 47 45 44 44 45 47 47 48 48 48 48 48 48
68 69 68 67 66 69 71 72 73 71 70 70 70 71 74 76 78 79 81 82 83 84 85 88 89 91 91 90 85 77 68 62 60 60 59 58 52 45 43 45 45 46 47 49 50 50 50 48 47 46 46 47 48 50
71 74 74 75 77 80 81 80 79 79 79 80 81 81 82 84 85 85 85 86 85 85 82 79 75 70 61 56 59 61 63 58 54 48 42 40 40 43 47 47 50 50 49 48 46 44 43 42 42 43 45 48 50 51
63 67 69 69 70 72 72 74 73 71 70 68 66 65 64 63 63 61 61 60 60 60 58 57 57 54 53 54 55 53 48 44 41 41 43 45 46 46 44 43 41 40 40 38 39 40 43 46 48 51 54 57 60 62
43 45 48 53 56 57 48 52 55 54 53 52 52 54 55 55 56 56 56 57 57 57 57 56 55 56 56 54 50 46 45 44 44 42 39 36 34 32 31 32 35 39 43 47 52 56 59 62 64 67 70 72 74 76

GFSWCAN_prec_cthk_057.txt.gz
RH
97 96 94 86 74 61 51 66 90 98 99 98 87 73 53 52 64 69 74 78 77 77 77 67 58 46 43 52 65 64 64 65 81 80 78 64 56 47 42 47 50 46 51 55 61 62 54 38 36 39 42 37 35 34
91 79 68 68 71 79 93 98 98 98 98 87 72 61 48 46 68 69 80 78 81 90 88 78 69 54 50 56 65 63 53 54 70 72 71 66 62 53 41 46 42 50 42 46 46 47 38 35 34 33 34 34 35 34
64 73 86 90 91 93 94 92 90 84 81 73 61 52 45 44 67 75 84 81 75 86 90 85 80 62 59 59 59 61 66 68 70 60 60 57 57 50 52 48 37 38 39 45 47 42 41 38 35 35 36 37 37 36
87 83 81 77 77 76 75 71 68 67 67 64 52 47 42 60 72 72 86 81 79 79 80 79 88 72 70 66 65 64 70 81 69 60 56 55 56 48 50 43 41 41 42 45 47 46 43 42 41 41 40 39 37 37
81 74 68 63 61 59 58 58 57 53 56 56 51 47 47 68 71 92 94 90 98 98 97 95 87 85 71 73 63 59 62 95 70 66 61 62 57 53 52 51 49 44 42 44 46 42 42 46 46 44 42 43 42 42
53 53 57 58 57 51 51 52 49 47 55 51 51 50 71 74 86 98 99 89 85 90 99 96 94 84 81 77 73 72 63 87 82 75 72 66 69 60 65 65 53 49 44 39 43 43 44 48 49 48 47 45 46 49
58 53 47 44 41 39 41 45 54 58 60 60 53 63 84 91 86 96 92 99 97 96 94 88 87 84 80 81 76 77 74 74 73 78 76 74 72 69 71 70 59 58 52 48 48 48 49 48 47 47 48 51 55 58
74 72 68 66 66 66 66 72 69 68 64 72 85 88 85 98 97 91 87 97 96 90 95 90 84 80 75 72 74 72 73 73 72 75 71 71 76 77 76 69 65 63 57 52 51 48 47 50 52 57 60 60 62 65
86 85 89 87 85 80 76 77 76 76 80 87 95 99 94 90 97 96 97 89 78 89 86 83 82 85 77 73 72 71 72 75 73 78 75 69 75 78 73 71 69 65 57 55 55 55 56 59 66 66 65 66 67 72
98 97 95 97 95 91 86 83 88 88 94 95 96 98 98 98 97 97 96 90 83 73 74 79 81 86 82 80 77 74 72 77 77 76 75 74 73 71 71 71 73 66 58 56 56 61 66 70 71 70 71 72 74 73
99 98 97 96 97 98 98 98 98 97 95 96 98 98 98 97 96 93 89 86 83 80 77 79 83 82 88 90 87 83 84 82 82 78 80 76 74 72 77 81 80 74 68 63 65 70 74 72 71 74 75 75 75 70
98 98 97 96 96 96 98 97 95 94 97 96 92 93 93 96 97 89 90 88 86 82 74 74 79 82 88 93 95 93 88 85 90 86 89 87 81 83 82 82 76 72 70 72 75 76 74 73 75 76 78 75 71 68
99 99 94 98 98 99 99 98 99 95 89 88 89 92 96 96 95 91 93 85 80 77 74 77 88 93 98 95 97 97 92 94 88 90 90 88 83 83 78 74 74 75 78 77 74 74 75 78 81 76 74 72 69 65
99 97 98 99 98 98 98 98 96 93 90 86 92 91 92 96 93 91 87 80 78 78 78 85 91 92 93 92 94 93 95 93 94 93 87 82 78 76 77 78 80 79 77 78 80 81 84 80 76 76 74 71 67 59
96 98 97 94 97 96 93 91 88 83 82 86 89 96 95 95 89 84 83 81 82 81 82 84 84 83 86 86 85 84 86 84 82 79 75 76 77 81 84 82 80 79 80 82 81 80 79 78 78 76 71 65 58 53
92 95 97 97 97 94 93 93 91 87 90 89 86 88 88 85 85 85 87 87 87 86 84 82 83 82 82 80 79 77 76 75 76 81 85 87 87 85 84 84 84 87 88 83 84 83 83 81 76 72 66 59 54 44
89 88 93 94 94 96 96 96 95 95 97 93 93 93 94 91 90 91 91 89 89 91 93 86 82 84 81 81 80 81 83 88 91 92 94 91 87 88 89 90 93 94 88 87 87 87 83 79 73 67 62 55 50 46
86 91 90 92 95 95 94 96 97 97 97 97 97 97 94 95 96 95 96 94 92 91 88 89 87 90 89 89 92 94 95 95 93 93 93 91 92 94 95 95 96 95 92 89 87 84 79 72 70 64 59 54 51 44
81 83 86 87 92 93 96 98 97 96 98 98 98 98 97 98 98 98 98 98 98 97 96 97 97 97 98 98 97 96 96 96 97 96 96 97 98 98 97 97 98 96 92 88 82 77 73 67 65 62 58 52 44 43
65 67 72 84 89 88 93 97 96 96 97 98 98 98 98 98 98 98 98 98 98 97 97 97 97 98 98 98 97 98 98 98 98 98 98 98 98 97 96 93 92 87 82 80 76 72 69 69 68 63 54 50 52 56
39 46 56 71 80 84 90 95 96 97 97 97 98 97 98 98 98 98 97 96 94 97 97 97 97 97 98 98 97 98 98 98 98 97 96 92 91 89 85 79 78 74 72 71 72 72 71 69 63 57 57 63 64 62
23 27 37 50 68 82 89 94 93 96 97 97 97 97 97 97 97 97 95 94 96 97 97 97 97 97 97 97 98 97 96 92 88 87 85 78 75 72 69 67 68 70 70 73 73 73 70 67 65 67 69 68 66 64
13 16 24 34 51 71 87 92 93 96 96 97 97 97 97 97 97 95 96 97 97 97 97 97 97 97 98 96 92 87 85 79 74 72 72 71 69 69 69 71 73 76 77 77 75 73 74 74 74 74 73 71 66 59
16 23 25 31 39 57 67 78 84 90 93 95 96 97 97 98 94 91 95 96 97 97 94 92 92 90 89 87 84 81 79 78 77 74 71 71 72 73 74 76 77 78 77 79 80 79 76 76 76 74 68 61 55 51
16 31 36 42 41 44 52 55 59 64 81 88 88 90 92 91 91 91 90 89 88 88 86 84 81 81 80 79 78 77 74 73 73 74 75 76 76 78 79 81 84 85 84 83 82 79 80 77 72 65 59 54 51 51
34 38 38 42 45 48 48 45 46 49 49 55 60 61 64 62 66 71 72 73 72 71 71 70 69 68 68 69 70 71 73 75 77 77 78 79 81 85 87 88 90 89 87 84 81 76 70 65 60 54 50 50 49 48
44 47 46 45 48 46 46 46 48 47 52 56 55 56 55 53 57 60 61 61 62 63 64 65 66 67 68 70 72 74 77 79 81 85 87 88 90 92 90 88 85 81 77 72 68 62 55 50 47 46 45 46 47 47
50 52 48 47 46 47 50 49 51 54 56 58 56 58 59 60 64 65 65 65 65 65 67 70 72 74 76 78 80 83 85 87 89 92 94 92 89 86 82 75 70 65 58 53 48 45 45 45 46 47 47 49 50 51
56 57 52 54 49 51 56 58 60 61 61 61 60 63 66 66 66 67 69 70 71 72 73 75 76 78 80 81 83 85 85 83 82 80 78 74 71 64 56 51 48 46 45 44 45 46 47 47 48 49 48 47 46 45
67 67 61 62 63 65 67 68 70 70 68 65 65 68 70 72 74 75 77 79 79 80 82 82 82 83 83 78 70 62 57 55 54 54 52 47 42 40 39 40 41 42 42 43 44 44 44 43 42 41 42 44 46 49
69 70 69 71 75 78 77 76 74 73 72 74 74 75 78 80 82 83 81 78 73 70 66 62 57 53 51 51 53 53 51 48 42 40 39 39 39 39 39 39 38 38 37 38 38 39 41 45 48 52 56 59 63 66
60 63 65 67 68 71 70 69 69 68 64 63 62 62 62 60 61 59 60 60 59 58 57 54 51 52 52 51 49 46 43 41 39 37 35 32 30 29 28 30 33 37 41 46 52 57 61 64 66 68 69 72 75 78
43 44 48 53 56 54 50 55 52 53 51 51 53 54 55 54 55 56 56 57 56 55 54 54 56 57 54 46 40 37 35 32 27 24 23 26 31 37 42 47 51 55 59 63 66 68 71 73 74 74 74 75 77 79

GFSWCAN_prec_cthk_060.txt.gz
RH
98 98 98 98 98 98 97 87 77 72 73 66 53 71 78 68 63 59 70 73 65 67 70 61 57 46 39 49 49 45 59 62 70 86 83 83 70 58 62 57 54 49 50 56 59 56 51 33 32 35 38 42 43 39
99 98 98 98 98 98 91 83 77 75 62 52 54 79 87 78 66 55 69 75 78 80 78 75 72 52 42 31 39 53 53 59 69 76 74 86 84 69 60 65 53 51 38 40 41 40 34 33 32 35 35 34 35 35
97 98 98 98 97 92 84 77 68 56 63 60 78 94 85 70 65 49 66 72 70 74 65 71 77 64 45 38 42 57 63 65 68 69 79 81 80 70 66 58 50 42 38 38 39 38 38 38 37 36 35 35 36 37
83 82 79 75 69 61 54 56 71 87 99 93 96 91 81 63 52 55 66 85 79 89 81 83 86 71 55 44 46 48 67 73 72 71 69 69 76 69 65 54 47 39 39 42 49 47 44 43 39 38 38 39 40 40
88 89 84 86 85 91 94 96 99 99 99 98 96 85 67 56 55 56 85 85 77 70 76 86 86 77 68 55 55 68 65 67 82 72 75 75 75 68 61 56 52 44 41 46 49 43 42 45 44 43 42 44 44 42
85 87 95 98 98 97 96 94 91 88 88 85 81 65 55 52 56 62 94 97 92 81 86 92 86 84 83 73 68 70 88 84 78 74 80 79 79 66 66 66 56 51 48 48 51 48 46 47 47 48 49 49 48 46
69 68 69 68 67 68 69 71 72 72 73 68 62 55 55 53 54 67 89 93 81 69 77 86 81 79 91 81 82 85 76 73 90 90 82 94 86 72 67 65 57 58 55 55 55 53 56 53 53 55 54 53 50 50
55 62 62 62 61 61 60 60 62 61 61 59 56 54 55 73 84 92 98 95 88 91 98 98 96 95 94 90 92 92 90 86 82 81 80 93 89 80 74 65 66 70 69 68 65 61 60 60 60 58 56 55 58 63
50 45 43 49 53 55 52 54 59 55 56 59 56 64 68 69 92 87 95 98 97 99 97 91 97 95 92 88 87 85 82 87 90 91 95 91 88 82 74 72 74 73 72 76 75 71 67 64 62 61 61 63 68 72
75 64 51 48 47 46 46 49 51 58 63 64 72 71 77 88 97 93 96 98 97 92 93 88 83 83 85 87 88 88 88 87 85 83 80 78 78 75 73 74 74 71 72 73 78 79 73 68 65 65 70 75 75 74
94 96 83 73 69 62 62 62 63 70 81 79 83 88 92 94 97 98 98 99 95 89 84 83 79 75 75 74 79 80 82 81 81 79 82 80 74 71 74 76 75 75 77 78 81 80 76 69 68 75 80 81 79 76
98 94 89 79 77 74 74 79 86 86 85 78 80 83 96 97 99 99 99 95 83 77 78 77 79 76 77 76 81 85 86 84 81 79 80 78 73 76 78 79 80 79 84 89 84 78 74 76 81 83 82 80 80 76
97 95 91 80 81 83 84 76 69 81 98 98 94 96 96 98 98 96 91 88 83 77 76 76 79 79 80 80 87 87 89 89 83 87 84 79 81 83 86 90 94 96 92 85 81 80 82 84 83 84 85 84 77 71
99 98 96 89 76 81 81 87 89 94 89 95 97 98 98 95 97 95 89 81 76 74 73 74 77 82 85 88 93 98 96 95 95 91 82 81 83 91 95 94 90 89 87 86 86 86 87 89 86 83 78 75 74 73
98 98 97 98 92 95 98 93 85 83 82 83 87 94 94 91 89 90 86 81 75 72 73 76 79 83 91 96 97 96 95 96 89 87 89 86 88 88 86 87 88 90 90 90 90 89 90 89 83 82 82 79 76 73
96 94 96 96 97 96 97 95 89 84 80 82 86 92 90 87 88 87 85 78 76 78 79 78 83 82 90 86 85 86 83 84 86 87 86 85 87 89 90 92 92 92 92 92 92 90 85 85 85 84 81 79 78 77
96 97 95 95 97 97 96 92 89 90 89 88 90 87 90 88 87 87 85 85 84 82 86 84 82 87 84 83 84 84 85 84 85 85 89 94 95 97 94 91 92 93 93 87 87 89 89 88 86 84 83 83 80 72
92 98 98 97 97 94 94 94 95 93 95 97 96 96 94 92 92 90 88 87 89 89 89 90 88 88 87 86 86 85 86 87 89 93 95 96 95 95 96 96 97 94 91 93 91 92 91 89 88 87 85 79 74 66
80 87 91 93 95 95 96 97 96 96 98 98 98 98 98 97 96 97 97 97 94 92 91 93 95 96 96 95 95 97 98 98 98 98 98 98 97 97 98 98 98 97 96 95 93 91 92 91 86 82 76 66 60 55
69 73 80 85 86 87 94 97 95 95 97 97 96 95 95 97 97 97 98 98 98 97 97 96 96 97 97 97 98 98 98 98 98 98 98 98 98 98 98 98 98 97 96 96 94 89 86 85 80 72 66 61 59 56
49 62 75 81 80 83 93 95 95 96 98 98 97 97 97 98 96 97 97 94 93 96 97 97 97 97 98 98 98 97 97 98 97 97 98 97 98 98 97 95 95 94 88 85 84 82 78 75 74 68 66 64 63 67
27 39 55 70 79 85 91 96 96 97 97 97 97 97 97 97 97 96 95 95 96 97 97 97 97 97 97 97 97 97 97 97 98 97 97 94 92 92 90 86 81 80 80 79 76 75 76 74 70 68 71 73 74 74
17 20 30 51 71 81 92 95 94 96 95 97 97 97 97 97 97 94 96 97 97 97 97 97 97 97 97 97 98 98 97 95 92 90 90 89 86 82 81 82 83 83 81 79 79 78 76 75 76 77 77 75 75 72
13 22 29 38 55 81 83 89 94 96 97 97 97 97 97 97 93 94 97 97 97 97 97 97 97 97 97 97 96 94 93 92 92 92 89 87 86 85 85 83 80 79 79 80 81 81 81 81 80 78 77 76 75 71
16 28 29 40 46 53 67 79 89 93 97 97 97 97 97 95 96 97 97 97 97 97 97 97 97 96 96 95 94 92 89 87 85 85 84 82 80 78 78 78 79 80 81 84 83 81 80 78 78 78 76 70 65 60
32 39 40 41 44 47 51 52 59 68 75 83 91 94 92 92 94 96 95 95 93 92 89 86 84 81 80 80 80 79 78 77 77 76 77 77 78 79 81 83 84 85 81 79 79 77 76 73 68 63 57 53 51 50
43 44 44 46 46 44 46 49 50 51 56 63 65 67 62 66 70 71 72 73 72 73 72 71 69 69 69 69 70 70 72 73 74 76 77 79 80 80 78 76 75 74 73 70 65 60 56 52 49 47 47 47 47 47
49 51 48 45 43 45 49 49 49 53 55 56 52 56 56 58 61 64 64 64 65 65 66 66 67 69 70 71 72 72 72 74 76 77 76 75 74 71 65 58 52 48 46 43 41 40 40 40 41 42 43 43 43 44
55 54 49 51 49 50 54 55 58 59 59 58 57 59 61 62 64 67 68 68 68 69 70 70 72 70 70 72 72 71 68 64 61 54 50 47 44 41 38 36 36 36 36 36 37 37 39 38 38 38 40 42 46 50
66 60 58 59 59 62 65 65 65 64 62 60 59 63 65 68 69 71 73 74 74 74 77 79 76 70 60 52 48 46 46 45 43 39 36 35 34 33 32 32 31 30 29 30 32 34 39 44 49 55 59 62 65 68
67 65 66 70 74 78 76 74 74 73 72 72 72 73 74 75 77 78 77 75 70 65 61 59 56 51 48 48 46 45 42 39 36 34 31 29 26 24 25 27 31 35 40 44 48 52 57 61 65 68 70 72 73 74
61 62 62 65 68 70 71 71 67 63 62 62 63 63 63 62 62 61 61 60 60 58 52 50 49 48 48 46 42 37 34 31 26 22 22 24 28 33 37 40 43 46 48 51 55 59 63 66 70 70 68 68 70 72
47 48 50 54 57 58 58 56 55 55 54 54 55 55 55 54 55 55 56 56 54 53 52 52 52 49 43 36 31 27 23 24 26 29 33 36 37 38 40 43 46 49 53 57 61 64 64 64 64 64 65 67 68 69

GFSWCAN_prec_cthk_063.txt.gz
RH
94 72 53 54 73 95 98 99 98 98 98 87 69 57 58 67 81 75 68 65 67 70 61 58 50 47 39 48 51 44 56 56 67 73 81 73 70 62 60 60 58 55 63 72 72 65 49 28 29 29 29 31 36 42
97 99 95 93 98 99 99 98 98 98 89 73 64 65 63 74 83 74 67 74 74 77 68 70 61 45 32 40 48 49 40 45 53 79 77 72 68 68 75 74 58 55 55 62 61 47 30 25 24 25 28 34 40 39
98 99 98 98 99 99 99 98 98 90 75 72 69 66 65 68 79 67 62 68 73 83 69 74 67 55 40 37 48 54 56 47 52 67 74 72 62 69 75 72 70 58 53 54 55 42 33 30 29 28 29 30 32 33
97 97 98 98 98 98 98 95 87 80 72 70 69 62 58 71 83 76 65 72 75 76 77 57 77 71 51 46 49 51 55 57 61 71 73 68 71 71 74 69 79 68 61 62 57 45 36 35 36 35 34 34 34 36
96 96 97 97 97 92 88 82 78 74 71 65 61 56 60 80 91 80 65 77 75 80 78 70 84 85 75 64 55 53 58 56 57 75 77 78 78 77 76 74 68 68 62 61 53 42 40 41 43 42 39 38 40 40
67 70 74 76 79 79 74 67 66 66 67 57 61 87 90 99 85 62 81 82 71 77 90 86 78 87 86 81 64 51 61 53 60 79 91 88 82 79 77 62 55 62 57 51 48 49 47 49 51 49 47 46 46 47
87 85 81 80 80 78 80 86 89 85 73 83 92 95 99 80 65 60 76 73 72 93 98 81 82 84 84 88 84 66 67 73 73 83 88 89 90 84 74 67 63 63 61 58 55 57 61 57 56 56 56 55 55 55
81 86 90 92 93 96 98 95 98 98 97 97 99 98 89 82 69 62 74 71 67 83 93 94 93 92 88 93 95 85 83 87 93 88 84 91 93 88 80 70 74 71 68 66 66 62 63 65 63 65 65 63 62 62
65 64 69 74 79 83 86 92 90 89 87 86 88 84 80 74 61 58 75 85 75 66 72 74 78 94 88 87 91 93 86 86 83 97 96 94 88 83 73 76 84 79 74 73 74 78 79 75 77 78 76 73 69 66
60 61 59 58 57 62 67 70 71 72 76 79 76 67 71 67 62 88 98 98 98 89 81 85 83 96 91 79 97 96 94 97 97 92 93 90 80 75 82 81 84 82 76 75 77 83 81 86 87 85 82 77 74 73
45 51 57 54 50 50 54 55 53 58 60 60 62 74 72 73 75 87 98 98 97 96 91 87 97 99 98 96 95 91 93 90 87 83 83 79 71 69 71 72 74 77 78 81 85 83 81 83 88 91 88 82 78 79
56 43 44 45 43 44 42 36 36 46 76 81 81 74 88 89 91 97 95 99 97 91 91 98 97 95 95 92 90 92 89 85 83 80 83 76 68 69 69 70 72 75 77 77 79 83 86 90 96 92 85 84 87 87
67 49 41 42 42 43 47 69 84 93 88 85 77 78 89 98 97 95 95 97 91 89 94 90 90 91 91 86 82 81 83 84 80 81 79 72 72 70 69 71 74 77 80 84 89 94 96 95 91 88 89 89 87 83
74 87 84 73 76 77 68 85 91 93 92 98 93 85 96 94 96 99 97 93 89 89 89 88 88 88 85 85 86 85 88 88 87 84 77 78 82 84 82 84 88 90 91 96 97 97 90 90 91 91 91 90 85 77
86 84 84 95 93 80 77 94 89 88 92 95 96 90 98 91 97 95 91 86 86 88 87 86 85 82 84 86 87 86 85 87 87 85 86 84 86 90 93 95 97 98 98 97 96 96 95 94 95 93 87 81 81 83
89 87 86 82 89 92 90 91 97 93 92 97 97 97 98 97 95 94 92 89 84 81 79 76 79 81 87 85 86 88 88 90 90 90 89 88 87 87 89 92 92 92 94 95 96 98 97 95 89 86 87 87 83 79
94 97 98 98 93 89 91 94 96 97 97 97 99 99 96 94 91 89 89 87 86 87 87 80 78 83 83 86 88 86 85 85 85 85 87 89 89 92 94 97 98 98 98 98 97 97 92 89 90 92 89 84 84 86
98 98 98 99 98 96 91 90 87 91 91 92 94 94 93 91 88 87 88 87 89 89 87 87 85 87 87 86 86 86 87 86 85 86 89 95 97 98 98 97 97 98 98 96 93 94 95 96 95 90 88 88 90 91
98 97 97 97 97 97 96 95 93 96 98 98 96 95 96 96 96 95 94 92 91 88 85 88 88 88 89 91 93 93 94 95 95 96 98 98 98 98 97 97 96 94 95 97 97 96 97 97 94 93 95 96 88 82
90 95 96 96 95 97 94 94 93 94 96 97 97 97 96 97 98 98 97 98 97 95 97 96 97 97 97 97 98 98 98 98 98 97 97 97 97 97 97 97 97 97 97 97 97 97 98 98 97 94 90 84 80 73
76 84 88 89 90 93 96 96 93 94 93 93 95 94 96 96 96 97 96 94 94 97 96 97 97 97 98 98 98 97 97 98 98 98 98 97 98 98 97 97 97 97 97 98 98 97 96 91 88 87 84 78 72 67
46 65 77 82 89 91 95 97 96 97 97 97 95 94 95 94 94 94 94 94 97 97 97 97 97 97 98 98 98 98 98 98 98 98 98 97 97 97 97 97 97 96 93 91 88 85 85 86 86 83 81 78 75 77
18 27 48 66 79 86 93 94 95 95 94 94 95 96 97 97 97 94 95 97 97 97 97 97 97 97 97 97 97 97 98 98 97 97 97 97 96 95 93 92 91 91 90 88 88 88 87 86 83 81 79 78 80 79
13 20 30 41 63 84 87 96 97 97 97 97 97 97 97 97 96 96 97 97 98 97 97 97 97 97 97 97 97 97 97 97 96 96 96 95 93 93 92 91 89 88 87 87 84 82 80 81 80 79 79 77 77 76
14 26 27 42 52 64 80 92 97 97 97 97 97 97 97 97 97 97 97 97 97 97 97 97 97 97 97 97 97 97 97 96 94 91 91 89 87 86 86 85 83 81 79 79 76 75 75 74 74 73 70 68 65 62
31 39 39 41 46 51 59 67 78 92 97 97 97 97 96 96 96 97 97 97 97 97 97 97 97 97 97 97 96 93 88 84 81 79 79 78 77 76 76 75 72 70 69 69 68 66 63 58 52 47 43 40 40 40
41 44 43 43 45 47 51 55 60 66 70 75 84 90 88 91 94 95 95 95 95 95 94 92 88 83 78 75 74 73 73 73 70 69 69 69 66 64 63 61 58 54 48 43 38 36 34 33 33 34 35 35 36 36
49 51 47 46 44 45 49 50 52 57 60 64 62 64 64 65 64 67 71 72 71 70 68 66 65 65 65 66 66 65 64 64 62 60 56 51 44 39 36 34 33 31 30 29 29 28 28 28 29 32 36 41 47 52
53 51 46 49 46 48 51 52 54 56 56 55 52 54 55 58 63 65 67 67 67 67 67 66 65 67 68 67 63 56 49 44 42 40 37 34 31 29 27 26 24 23 23 25 29 34 38 42 45 48 51 55 59 64
56 53 53 55 56 60 61 62 62 60 58 55 55 60 62 65 67 68 69 70 70 71 72 72 71 63 51 45 44 43 41 37 32 30 27 25 22 20 20 22 26 30 31 32 34 37 40 44 48 52 57 61 64 66
64 62 64 67 71 74 72 72 71 69 68 68 69 70 71 72 73 74 75 76 74 69 64 60 53 48 47 45 42 39 34 30 26 22 20 20 24 27 28 29 30 31 32 34 36 39 43 47 51 53 55 56 58 59
58 58 60 64 68 71 71 63 64 67 67 65 66 65 66 65 66 64 64 62 61 58 51 50 49 47 44 40 35 29 24 21 20 23 27 28 28 29 30 31 32 34 36 38 41 43 45 47 48 50 52 55 58 60
47 46 49 53 56 57 57 57 55 56 56 56 56 56 56 55 56 55 56 55 53 52 51 51 49 45 37 30 26 22 22 25 28 29 29 29 29 30 31 33 34 36 38 39 41 42 44 46 49 52 54 57 60 63

GFSWCAN_prec_cthk_066.txt.gz
RH
62 65 77 95 90 84 89 95 99 98 98 98 98 97 95 83 80 70 58 86 84 81 87 71 57 45 40 33 34 33 48 50 57 58 64 72 77 82 73 66 60 59 69 70 69 68 63 42 48 33 24 23 24 25
64 74 80 87 90 90 90 97 98 98 98 99 98 98 91 83 76 70 86 91 86 84 81 79 67 57 44 26 26 27 31 44 44 56 62 66 73 70 69 75 61 59 53 58 59 54 46 48 43 29 24 25 27 28
84 74 87 85 80 85 87 98 99 99 98 98 98 96 89 75 60 73 87 91 76 77 82 83 69 60 48 32 33 37 44 55 45 43 55 61 68 69 77 74 68 54 55 65 63 53 52 50 47 32 25 25 26 29
96 88 71 69 84 95 98 98 98 98 98 98 98 89 75 68 68 81 98 90 72 80 87 75 68 67 59 45 38 40 55 62 61 54 58 69 69 70 74 69 66 56 68 72 71 61 55 52 48 34 31 31 31 31
98 97 97 97 98 98 99 98 98 98 98 96 82 77 76 69 80 92 99 86 67 81 88 84 75 68 64 58 42 42 51 68 65 68 68 63 71 76 81 74 69 60 64 71 69 63 61 56 43 39 38 38 36 36
98 98 98 98 98 98 98 98 98 94 83 77 78 77 75 73 76 90 96 79 67 77 78 74 86 89 79 66 52 46 49 63 67 64 68 71 73 79 83 82 65 65 68 68 64 64 64 57 51 48 48 48 47 46
93 94 94 94 94 93 91 87 85 84 82 79 75 72 64 63 72 91 87 61 96 98 93 80 74 84 98 85 76 61 52 63 66 74 76 72 74 77 80 79 64 70 71 67 59 67 68 62 58 58 58 56 56 57
73 69 72 77 79 79 78 78 76 75 69 63 63 64 67 79 91 97 78 88 94 98 98 92 80 73 96 97 95 86 76 70 73 76 77 77 79 82 79 75 77 74 70 65 65 69 67 69 70 68 67 63 63 66
92 90 87 81 76 74 70 61 62 61 63 69 67 75 93 98 97 95 72 91 84 82 79 79 85 83 89 97 97 98 96 92 87 84 82 74 71 75 73 82 85 82 75 71 73 75 73 72 76 74 76 76 81 80
77 88 91 90 89 86 80 68 78 92 94 86 94 90 98 92 84 86 98 86 83 91 94 98 93 90 94 93 96 98 98 96 93 90 95 93 83 77 79 78 76 77 74 77 80 83 84 85 81 82 83 83 87 90
63 69 79 84 91 92 93 92 91 91 94 92 86 88 82 81 93 87 97 94 82 96 88 80 79 82 84 86 98 94 99 98 94 92 93 88 78 77 78 78 76 73 75 75 77 81 83 84 84 83 85 86 87 91
49 50 56 68 74 77 83 84 85 82 79 71 68 65 60 81 98 92 82 77 78 85 85 75 66 70 82 94 96 97 94 98 97 95 94 90 79 76 74 74 73 73 72 72 76 78 81 84 87 87 89 90 97 97
44 48 47 54 58 58 62 73 77 75 73 83 89 78 71 78 85 82 82 91 82 63 63 73 82 90 94 98 99 98 96 97 94 91 85 76 74 74 73 72 72 72 73 76 77 80 82 85 90 94 96 98 96 93
45 51 51 58 63 66 80 87 86 93 94 84 84 84 84 77 90 90 90 89 88 84 88 91 92 97 98 98 96 94 87 83 83 80 76 75 77 78 79 79 77 80 82 82 87 93 94 96 98 97 98 93 95 92
56 58 63 71 72 80 86 96 96 97 85 90 84 87 89 93 95 93 96 96 95 95 97 95 96 94 96 93 90 86 87 85 82 81 78 79 83 84 84 85 89 94 96 98 99 97 97 97 97 97 98 97 90 83
63 70 73 74 80 84 95 96 96 98 91 87 83 90 94 94 96 96 98 99 98 97 95 92 96 94 95 91 87 89 86 87 84 83 85 88 89 91 94 95 94 96 98 98 98 98 98 97 98 98 92 86 88 92
81 76 86 94 94 96 91 91 87 90 96 91 92 97 98 97 97 98 95 95 95 94 94 90 86 92 87 87 89 93 94 93 91 88 86 88 88 89 92 94 95 96 96 96 96 98 97 97 95 92 94 95 91 86
97 93 88 87 93 90 92 98 97 97 98 96 97 98 98 96 96 96 94 94 91 92 88 89 86 84 86 87 88 87 87 87 89 90 89 89 89 90 93 94 95 96 97 97 97 97 96 95 97 97 97 92 89 91
98 98 99 96 96 93 96 94 94 95 97 98 98 97 96 96 95 94 92 90 89 89 87 87 88 90 91 92 93 93 93 93 93 94 93 95 96 94 94 94 94 96 97 98 97 97 97 98 97 97 95 96 97 97
99 98 98 98 98 98 98 97 97 97 97 97 96 97 97 96 95 96 96 95 93 91 92 92 93 93 95 97 98 97 97 96 97 96 97 97 97 96 96 97 96 97 97 97 97 97 97 97 97 97 97 97 97 94
94 97 98 98 98 98 97 97 97 97 97 96 97 97 97 97 97 97 97 96 95 96 97 97 96 97 97 97 98 97 96 97 97 98 97 97 97 97 97 97 97 97 97 97 97 97 97 97 96 96 95 92 87 87
69 82 89 92 95 96 96 97 97 97 97 97 96 96 97 97 97 97 95 95 96 97 97 98 97 97 97 97 97 97 98 98 97 97 97 97 97 97 97 97 97 97 96 96 96 95 94 94 93 92 91 90 88 86
27 41 61 79 90 94 97 97 96 97 96 97 97 97 97 96 97 95 95 97 97 97 97 97 97 97 97 97 98 98 98 98 97 97 97 97 97 97 97 97 97 96 96 95 93 91 88 87 84 83 80 77 75 73
13 19 33 48 63 85 93 97 97 97 97 97 97 97 97 97 96 95 97 97 97 97 97 97 97 97 97 97 97 97 97 97 97 97 97 97 97 97 96 94 92 89 86 83 81 79 77 73 70 67 64 62 60 58
15 27 31 43 48 57 69 83 92 95 97 97 97 97 97 97 96 97 97 97 97 97 97 97 97 97 97 97 97 97 97 97 96 95 96 94 91 89 86 82 79 76 73 69 64 61 57 54 49 43 38 34 31 31
31 37 37 42 48 50 57 64 71 81 92 97 97 97 97 97 96 97 97 98 98 97 97 97 97 97 97 97 97 97 97 96 92 86 83 79 74 69 65 61 57 53 48 43 37 31 28 26 24 24 24 25 26 28
40 42 42 42 45 49 54 57 61 63 70 79 89 94 96 97 98 97 98 98 98 98 98 98 98 98 98 97 94 89 82 74 69 64 59 55 51 46 41 35 30 28 25 23 21 20 19 21 24 27 30 32 35 38
48 48 45 45 44 46 52 56 62 65 66 68 67 73 76 79 85 93 95 96 95 95 93 91 88 82 76 71 68 63 59 56 53 47 39 33 30 27 24 21 19 18 18 20 23 25 26 27 29 31 34 37 40 44
52 50 45 47 44 47 50 52 55 56 58 59 57 59 59 60 62 67 68 69 69 67 66 65 66 65 62 59 57 53 46 39 36 32 28 24 20 18 16 17 20 23 24 25 25 25 27 29 32 34 37 39 41 43
50 49 50 52 54 57 59 57 58 57 56 53 52 53 56 60 63 66 68 69 69 70 70 68 67 62 57 49 44 41 37 32 28 22 19 17 18 20 23 24 24 24 24 25 27 29 31 32 33 35 36 38 41 45
61 58 62 64 68 70 70 69 68 66 63 63 63 64 66 67 70 72 73 74 75 76 75 66 53 48 46 44 41 36 29 23 19 18 20 22 25 26 25 25 25 25 26 27 29 30 31 32 34 36 39 42 45 47
55 55 57 62 67 70 71 71 71 73 74 75 75 74 75 74 76 76 74 71 66 57 53 51 51 49 45 39 31 25 21 20 21 24 26 27 27 25 25 25 26 27 28 29 29 30 31 34 37 40 42 44 46 49
46 45 47 52 55 57 56 57 55 56 58 59 60 60 59 59 60 60 60 58 55 53 51 50 48 43 33 26 22 21 22 25 27 28 28 27 25 25 25 26 27 28 28 29 30 31 33 36 38 41 43 45 48 51

GFSWCAN_prec_cthk_069.txt.gz
RH
68 70 75 96 94 96 94 95 86 76 96 98 98 98 99 98 91 78 75 72 69 72 67 66 64 69 59 53 42 37 39 44 56 68 65 60 61 60 67 79 75 69 67 66 64 65 56 46 47 43 37 35 27 24
76 86 90 81 82 99 98 87 78 92 99 98 98 98 98 97 94 83 79 72 71 76 67 95 76 58 57 52 42 36 25 28 43 56 65 59 60 60 56 62 78 76 65 61 56 53 48 46 44 39 38 42 30 25
85 88 93 94 94 91 87 87 93 98 98 98 98 98 98 97 95 87 80 73 74 80 63 94 90 76 63 53 38 33 28 28 32 39 51 54 54 43 60 60 59 67 72 66 61 52 51 52 49 43 45 47 39 30
77 90 93 94 96 92 90 92 98 98 98 98 98 98 98 98 95 86 84 81 77 87 87 75 96 91 78 63 36 28 30 30 35 37 45 52 57 47 53 50 58 61 63 62 63 61 55 62 65 56 54 52 42 34
97 90 89 92 96 97 98 98 98 98 98 98 98 98 98 98 98 94 93 82 68 84 97 92 95 93 83 74 52 42 33 42 47 60 54 53 56 58 55 56 60 61 62 63 66 61 60 58 67 68 61 55 42 40
94 97 98 98 98 98 98 98 98 98 98 98 98 98 98 97 92 89 81 80 81 95 98 97 94 95 89 79 70 48 43 48 58 59 67 66 58 56 62 65 61 62 66 64 61 62 67 63 66 61 62 59 50 50
96 96 96 96 96 97 97 97 98 98 98 98 98 96 93 84 71 76 87 75 78 97 98 99 88 78 82 85 83 68 54 54 54 58 68 73 72 63 63 61 59 64 67 69 68 69 68 68 64 62 64 62 60 60
95 97 98 99 98 97 97 98 98 97 95 94 94 92 84 76 80 95 89 74 73 94 98 98 99 91 89 79 80 75 69 62 60 60 65 72 73 70 71 62 63 62 62 67 71 74 71 72 70 69 69 66 68 71
82 88 92 93 94 95 93 91 91 90 87 83 83 82 79 81 93 94 89 85 91 94 94 98 95 97 97 96 81 78 76 72 59 59 63 69 69 74 68 59 62 64 64 66 76 75 79 75 74 74 74 76 76 78
85 75 76 80 85 87 87 89 87 79 74 74 71 77 81 75 96 97 99 88 85 82 78 73 83 94 99 99 99 98 86 81 73 67 65 70 69 65 64 62 61 63 70 72 74 77 77 79 80 82 82 82 83 88
91 87 80 71 66 68 66 69 67 69 74 81 81 78 68 72 87 92 94 98 98 96 95 86 78 90 84 96 97 98 98 98 95 90 84 80 77 71 71 76 75 76 81 82 81 78 79 82 84 84 90 89 91 96
88 95 95 85 72 77 82 82 84 83 87 87 87 88 87 86 88 94 98 88 90 85 89 83 83 86 77 89 92 94 96 99 98 92 95 91 85 84 87 87 84 84 83 81 80 79 79 78 79 81 84 90 92 92
71 84 92 91 88 92 92 96 97 96 84 90 95 97 90 85 87 96 90 78 79 73 79 88 89 79 75 83 88 96 97 97 93 95 95 94 92 91 90 86 82 83 83 81 84 84 85 85 86 86 86 88 95 95
51 61 72 83 84 88 89 84 87 82 81 77 81 82 87 92 98 77 64 61 67 78 82 82 80 79 83 89 95 98 98 99 97 94 96 94 92 90 85 81 81 81 83 84 84 85 86 85 84 88 94 96 97 97
51 57 62 71 78 84 83 85 95 97 97 97 84 78 78 80 82 76 70 64 65 73 76 77 79 86 97 98 98 97 96 96 93 89 84 83 82 81 82 85 87 89 88 88 91 91 92 95 97 97 97 97 97 95
61 63 66 70 79 87 89 93 97 94 96 97 94 97 89 84 80 80 85 88 85 86 83 86 94 97 98 96 92 94 94 93 90 86 83 85 86 88 89 91 92 93 95 95 95 96 98 98 97 97 97 95 89 91
71 68 77 83 84 89 94 95 96 92 86 97 98 97 91 96 98 98 96 96 96 97 97 94 96 97 94 94 95 93 91 90 89 90 88 86 86 87 89 90 90 90 92 94 96 97 98 97 96 94 92 94 97 92
92 85 83 85 90 92 96 98 97 95 90 97 97 97 96 97 97 98 98 98 98 98 96 96 92 93 92 89 88 88 91 94 94 92 90 90 90 88 86 85 89 92 94 95 95 95 96 97 97 97 97 97 97 94
96 94 92 93 94 95 97 97 95 92 95 95 97 97 97 97 98 97 96 94 91 87 85 88 89 90 91 90 91 91 92 92 93 93 94 94 94 94 94 93 94 95 94 94 96 97 97 97 97 97 97 97 98 98
98 98 98 95 98 98 98 98 98 97 97 97 97 97 97 97 95 94 92 90 89 89 93 93 94 96 96 96 96 96 96 96 97 97 96 96 96 97 98 97 97 97 96 97 97 97 97 97 97 97 97 97 97 97
98 98 98 98 98 97 97 97 97 97 96 95 97 94 95 93 92 93 94 93 93 96 96 96 96 96 97 97 97 97 97 97 97 97 97 97 97 98 97 97 97 97 97 96 96 96 97 96 96 96 96 95 94 94
90 97 98 98 97 97 97 97 97 97 96 97 96 96 96 95 95 95 91 91 95 96 96 96 97 97 97 97 97 97 97 97 97 97 97 97 97 97 97 97 97 96 96 96 95 95 95 94 92 90 89 87 84 80
47 53 60 77 93 94 97 97 96 97 95 97 96 96 96 95 95 95 94 96 97 97 97 97 97 97 97 97 98 98 98 98 97 96 97 97 97 97 97 96 96 95 94 94 92 89 85 83 79 73 66 61 56 49
16 24 38 52 62 78 90 96 97 96 97 96 97 97 96 96 96 95 96 97 97 97 97 97 97 97 98 98 97 97 97 98 97 97 97 97 96 96 96 95 94 90 86 82 76 69 61 55 48 41 33 26 22 21
17 28 34 42 46 50 61 71 81 90 96 97 96 96 96 96 95 96 97 98 97 98 97 97 97 97 97 97 97 97 97 97 97 96 96 95 94 91 85 78 71 65 59 53 46 38 29 23 19 18 17 18 20 22
32 37 37 44 49 50 53 56 58 64 68 79 89 95 97 96 96 97 97 98 98 98 97 97 97 97 97 97 97 97 97 97 96 92 89 80 71 64 58 51 45 38 29 23 19 17 16 17 19 21 22 23 24 26
41 43 43 44 49 51 53 56 58 59 62 66 74 77 84 91 95 97 98 98 98 98 98 98 98 98 98 97 97 96 93 87 81 70 60 53 47 39 30 24 19 18 17 17 18 20 20 20 21 22 24 26 27 29
49 49 48 48 48 51 55 58 62 64 64 66 67 74 76 79 87 91 94 98 98 98 98 98 98 98 96 93 88 81 70 60 51 43 35 27 22 19 18 17 18 19 20 20 20 21 21 22 23 24 25 26 28 30
50 49 46 49 47 50 54 58 61 64 66 68 67 70 71 73 76 79 81 82 84 86 84 83 81 75 68 60 55 51 47 41 34 26 21 20 19 19 19 20 21 21 21 21 22 22 22 23 24 25 26 28 30 33
49 49 50 52 53 57 58 57 57 56 55 55 53 53 55 58 63 70 72 74 77 76 73 69 65 63 62 57 52 44 35 27 23 21 20 21 20 21 22 23 22 22 23 22 23 23 24 25 26 28 30 32 34 36
56 56 60 63 66 68 66 65 64 62 61 60 61 61 66 68 72 74 74 75 75 75 73 70 67 61 55 49 41 33 26 23 22 21 21 22 23 24 25 24 23 22 22 23 23 24 25 27 30 32 34 35 36 38
50 51 54 59 64 68 71 71 73 76 77 78 79 78 79 80 81 82 83 82 83 82 69 60 56 52 47 41 31 24 22 21 21 23 24 25 26 27 24 22 22 23 24 24 24 26 29 32 34 36 36 37 38 40
44 45 46 48 52 54 54 55 55 59 61 63 66 67 69 70 71 69 69 67 63 60 57 56 52 46 36 27 23 22 23 24 26 26 26 28 28 25 23 23 24 25 25 25 28 33 36 36 37 37 38 40 41 43

GFSWCAN_prec_cthk_072.txt.gz
RH
98 95 84 74 70 80 67 63 89 93 96 88 86 86 98 97 99 97 90 88 72 72 80 79 78 75 80 65 55 51 69 48 49 55 62 59 65 55 49 56 71 72 76 77 67 77 69 39 42 41 39 42 37 36
98 96 93 73 83 90 87 79 96 99 97 88 80 86 96 98 99 98 95 90 81 83 81 80 74 88 92 76 66 69 36 49 44 47 56 49 63 65 45 49 48 68 66 69 64 58 51 49 44 42 44 45 41 41
91 98 96 95 95 95 99 99 99 96 94 89 70 84 98 99 99 97 97 90 87 85 80 80 64 78 89 91 67 67 45 37 34 35 43 41 50 55 60 51 46 48 60 65 71 58 56 56 49 48 49 52 48 47
90 97 96 94 96 97 98 98 97 94 86 68 74 96 99 99 99 97 95 89 80 79 77 67 71 70 78 95 79 63 54 39 35 32 33 39 44 45 51 42 44 41 50 49 54 62 62 58 56 54 56 56 58 54
96 94 96 93 93 86 82 84 80 71 79 94 98 98 99 99 98 98 94 87 81 75 74 69 84 85 78 68 78 63 56 45 41 37 42 42 38 44 46 48 44 42 43 47 49 49 60 61 60 62 58 58 64 63
97 97 98 96 96 96 95 93 96 98 98 98 98 98 98 97 96 97 97 88 80 73 77 94 90 79 91 76 65 56 47 48 57 54 50 40 39 40 52 49 42 43 42 46 47 54 64 67 61 67 63 66 66 61
98 98 98 98 98 98 98 98 98 98 98 98 98 98 96 94 95 94 84 76 72 71 69 86 85 90 91 87 81 64 51 44 53 56 56 61 52 44 52 48 45 51 47 49 50 56 64 68 66 64 65 68 69 65
98 98 98 98 98 97 97 98 98 98 98 98 98 98 99 98 96 93 85 78 71 65 72 82 93 99 97 97 94 72 63 60 53 67 70 65 66 60 60 45 46 51 53 53 53 59 63 64 63 63 68 71 70 71
97 98 98 98 98 97 97 97 98 98 98 98 98 98 98 98 95 94 81 74 79 84 95 89 89 99 98 96 91 87 75 72 66 62 62 59 61 64 55 53 56 58 57 60 65 63 63 67 68 71 74 74 75 75
96 97 97 97 97 97 96 96 96 94 93 92 90 94 94 78 72 89 85 88 94 95 95 90 87 98 99 99 99 91 85 75 66 63 63 64 57 57 60 58 62 63 66 67 69 68 68 74 78 79 80 79 81 82
84 91 92 91 91 90 88 86 87 88 89 89 85 76 77 80 92 95 91 92 93 86 86 89 93 98 99 99 95 90 84 84 81 76 66 67 60 56 56 56 57 65 69 73 73 75 79 82 84 82 84 87 90 93
65 78 86 86 85 82 78 76 73 71 71 73 65 79 90 89 92 92 89 85 91 83 91 91 95 97 98 99 96 91 91 83 84 78 78 71 65 60 54 53 60 70 76 78 81 86 89 86 84 85 87 89 91 90
66 63 65 68 69 68 75 78 83 85 85 81 61 81 88 79 75 78 89 81 82 82 87 95 98 96 90 96 98 98 98 99 97 95 87 89 91 92 90 86 86 87 86 90 91 91 91 90 88 89 89 93 95 95
78 75 81 78 72 76 84 88 95 92 94 91 84 75 71 77 75 71 72 66 71 81 86 91 91 91 93 87 94 94 97 98 98 98 97 97 96 95 96 96 94 95 94 91 91 92 90 89 90 91 92 93 93 92
83 90 89 85 82 85 90 92 87 94 87 85 80 78 83 90 89 84 76 74 78 81 82 91 84 82 89 90 91 97 98 97 97 95 96 97 95 96 96 95 95 94 90 89 88 88 90 91 91 90 91 94 96 97
67 81 88 89 89 94 92 90 89 87 88 86 85 88 94 95 97 92 82 80 75 82 88 87 87 88 93 95 98 98 96 96 94 94 94 93 90 88 87 87 88 90 92 93 93 93 95 96 95 94 96 97 97 96
50 59 75 83 89 86 90 88 87 84 82 78 76 82 85 86 84 80 78 80 83 82 80 80 90 92 97 96 96 96 94 94 93 92 92 93 92 91 91 93 94 95 96 96 96 97 95 94 94 95 96 97 97 96
71 67 70 76 82 88 94 95 96 96 97 89 84 83 85 90 94 84 84 88 90 92 90 88 89 90 95 96 93 93 93 92 91 92 92 90 89 89 89 89 90 90 89 88 88 90 92 93 95 95 95 96 95 94
96 92 91 95 97 97 97 97 93 96 97 97 96 94 95 96 97 97 97 93 96 98 97 97 96 94 94 92 90 89 91 92 92 92 90 89 89 91 91 92 94 94 94 93 94 96 96 95 96 97 97 97 96 97
98 97 97 97 98 97 97 97 97 97 96 97 97 97 97 97 97 97 97 98 97 94 95 95 95 94 92 92 92 91 91 91 92 91 91 91 93 95 96 96 96 96 95 96 96 96 96 96 97 97 96 95 95 94
98 98 98 98 97 97 97 97 97 97 97 97 97 97 97 97 97 96 95 94 92 95 95 96 96 95 95 93 93 94 95 96 96 96 96 95 97 97 97 97 97 96 95 96 96 95 94 95 95 92 90 88 86 84
92 96 98 98 97 96 96 98 97 97 98 97 97 97 97 97 95 94 92 92 94 95 93 93 93 94 94 94 94 95 96 96 96 95 95 95 95 96 96 97 97 94 93 92 91 90 90 89 86 82 76 71 64 55
56 58 67 79 87 92 97 96 97 96 96 96 96 95 95 94 94 90 89 92 93 94 94 95 95 96 97 96 96 96 97 97 97 97 97 97 97 96 96 95 94 91 90 90 88 84 76 68 61 53 43 33 27 24
28 37 47 55 63 73 83 91 94 95 94 93 93 94 94 94 93 91 93 95 96 96 96 97 97 97 98 98 97 97 97 98 97 97 97 96 96 96 95 94 91 87 79 70 63 56 46 35 27 24 21 19 18 18
20 32 38 42 46 49 53 61 66 75 89 91 90 94 95 95 93 94 95 97 98 98 98 97 97 97 98 97 97 97 97 97 97 97 97 96 94 91 85 77 67 60 53 42 31 26 23 21 19 18 18 18 19 20
32 37 37 42 45 46 47 49 51 53 56 60 70 83 92 92 92 95 95 98 98 98 98 98 98 98 97 98 97 97 97 97 97 93 90 86 80 71 61 52 41 31 26 23 21 19 18 18 19 19 20 20 20 21
40 41 42 44 46 47 50 51 50 51 54 57 58 60 61 68 76 86 94 97 98 98 98 98 98 98 98 98 97 96 93 89 85 81 75 67 55 43 33 26 23 21 20 19 19 19 19 19 20 20 20 21 21 23
45 45 45 48 49 49 52 53 55 56 57 58 58 60 60 61 66 73 80 87 90 94 98 98 98 98 97 95 91 87 84 79 73 62 49 37 26 20 20 20 20 20 20 20 19 19 19 20 20 20 21 22 24 27
47 46 43 47 49 52 55 58 60 63 65 65 63 64 65 68 69 74 78 81 86 89 92 96 97 94 90 87 84 79 72 56 39 27 22 21 21 22 22 22 21 21 20 20 20 20 21 20 21 22 23 26 29 31
47 48 46 47 48 51 53 53 55 57 60 62 64 64 67 69 72 75 77 80 82 84 87 85 83 81 78 73 63 49 38 30 26 23 23 23 24 23 22 22 22 21 21 21 22 21 21 22 23 26 30 31 31 32
51 54 56 59 61 63 63 61 61 60 59 59 59 58 61 64 68 72 75 79 80 80 78 77 75 71 63 56 47 37 29 25 24 25 25 24 23 22 23 24 23 22 22 22 22 22 23 25 31 33 32 32 33 34
43 45 46 50 56 61 65 68 74 76 78 77 77 77 77 77 78 78 80 81 80 77 75 73 71 67 59 46 33 28 27 27 26 24 24 23 24 25 26 26 24 23 23 23 23 24 30 34 34 34 34 34 35 36
45 44 44 46 48 49 49 51 52 56 62 67 74 80 83 85 88 88 89 88 88 84 76 69 62 53 43 33 27 26 25 25 25 24 25 25 27 29 28 24 23 24 25 24 28 34 36 34 34 34 34 35 36 38

GFSWCAN_prec_cthk_075.txt.gz
RH
94 95 89 90 95 94 91 78 68 68 90 94 97 87 90 98 98 98 91 93 88 86 86 83 75 74 75 73 75 56 70 67 72 63 70 56 41 40 47 44 55 84 83 82 74 88 80 52 48 44 39 43 45 42
96 83 87 91 87 84 78 68 65 60 82 92 94 81 85 99 98 99 97 96 92 88 92 91 75 78 65 68 77 74 44 50 48 64 65 58 53 55 52 52 44 67 73 77 71 69 62 58 53 49 48 47 48 45
96 87 92 89 90 92 90 88 84 65 83 89 98 83 88 99 98 96 97 97 97 97 97 87 74 73 70 76 87 84 77 58 52 51 68 68 60 46 62 54 46 46 47 58 62 63 65 66 61 57 53 50 54 51
95 88 89 89 96 84 86 84 68 68 83 92 98 83 92 99 97 97 97 96 95 90 91 77 75 75 71 79 86 83 92 80 79 76 69 64 59 38 46 43 42 46 44 45 45 45 53 66 61 63 60 58 58 55
97 83 78 89 98 98 86 76 83 93 98 99 96 88 99 98 99 99 98 96 95 87 79 77 80 75 69 82 87 84 87 74 74 71 65 67 52 40 48 46 44 47 48 54 53 41 45 50 55 60 59 60 59 59
95 85 74 85 95 99 99 98 98 99 95 96 90 91 98 98 95 94 98 98 95 88 84 81 79 75 66 82 90 92 91 80 81 59 65 57 44 38 48 46 35 33 42 50 49 50 48 54 55 62 66 68 67 63
98 97 85 75 83 91 95 96 97 97 92 86 95 97 97 96 96 96 92 84 86 85 84 79 78 83 62 75 86 87 86 81 80 66 63 58 40 41 47 45 28 37 42 48 54 46 44 48 53 57 65 69 69 67
98 98 98 95 88 85 82 84 80 78 84 94 97 98 99 98 98 97 88 84 83 84 80 82 88 92 83 88 82 75 76 82 90 82 75 70 67 60 50 35 28 31 46 49 54 56 56 56 56 61 67 66 65 64
98 99 99 98 98 98 98 98 98 98 98 99 98 97 97 98 97 98 93 82 84 80 73 79 88 97 99 92 77 76 84 87 81 77 77 74 71 68 58 47 39 39 38 44 51 51 51 52 56 57 61 65 66 68
97 98 98 98 97 97 98 99 98 97 97 97 99 98 98 98 95 95 96 87 78 79 79 86 87 96 96 97 89 91 90 86 79 65 66 68 71 64 64 51 48 49 47 56 61 59 59 60 66 67 68 68 77 81
98 97 97 96 94 93 93 93 96 97 98 95 91 92 92 97 96 92 92 86 83 77 76 73 87 91 97 97 99 88 94 96 85 66 63 54 53 61 64 54 56 52 54 60 66 68 69 71 72 72 75 83 87 89
92 94 95 95 95 95 95 96 98 96 90 88 85 88 92 93 90 82 79 83 77 71 74 83 90 90 93 94 97 99 94 94 87 71 71 63 61 57 59 58 52 53 56 56 59 65 72 75 79 85 92 94 96 95
86 85 83 83 84 81 80 84 89 87 90 89 81 81 85 85 77 76 79 72 81 76 87 88 91 97 96 94 95 98 99 98 89 86 77 69 64 65 62 55 53 53 53 53 57 69 81 83 90 97 97 97 96 95
74 68 70 73 73 77 79 76 74 77 82 80 83 82 88 76 70 76 80 79 77 77 84 85 94 97 98 98 98 98 92 98 96 85 76 75 74 70 71 78 88 92 90 85 85 90 92 94 98 99 98 98 99 95
69 72 77 79 81 82 87 89 87 78 71 86 88 87 82 81 90 96 93 88 84 89 90 94 96 98 99 98 97 91 97 97 93 90 90 91 86 85 94 98 98 98 99 99 99 98 98 98 98 98 96 95 94 94
81 83 85 90 92 90 90 88 90 92 84 88 82 81 83 88 97 88 86 87 85 90 94 97 99 98 97 98 96 97 97 95 96 97 97 98 96 97 98 98 98 98 98 98 98 98 97 96 95 95 96 96 96 95
90 89 88 92 91 91 91 89 86 75 73 79 82 83 83 86 84 81 86 87 90 91 92 91 90 98 96 94 96 96 96 97 97 98 97 96 95 95 95 95 95 93 92 92 95 97 97 97 97 96 95 94 94 94
68 81 87 87 86 84 78 81 80 77 80 82 79 83 89 86 84 79 83 88 87 93 89 88 96 93 96 96 96 97 98 97 96 97 97 97 97 97 97 96 94 95 96 96 97 96 95 94 93 92 93 93 94 94
71 68 74 79 84 83 86 86 91 86 84 85 87 84 86 86 86 87 85 88 93 94 96 94 95 94 95 96 97 96 97 96 96 96 95 95 94 93 93 92 91 91 92 92 92 92 92 93 93 94 95 95 95 94
97 94 95 95 93 96 97 96 95 93 92 93 93 91 93 97 93 90 91 93 95 95 95 96 96 96 97 97 97 97 94 93 94 94 94 93 93 93 93 94 95 96 96 95 95 94 93 92 91 91 91 91 90 88
98 98 98 98 96 95 97 97 96 97 97 97 96 97 96 96 96 95 95 94 93 96 97 97 97 97 97 97 97 95 94 93 93 94 95 96 96 96 96 97 97 96 95 93 92 91 89 88 87 87 85 83 80 73
97 98 98 97 97 97 97 97 97 97 97 97 97 97 96 96 96 96 96 96 96 97 97 97 97 97 97 97 97 96 96 96 95 95 95 96 96 96 96 96 96 94 91 89 88 87 86 83 79 74 65 56 45 34
69 72 77 86 94 96 98 97 97 97 97 97 96 96 96 96 96 94 95 96 97 98 97 98 97 97 97 97 98 97 97 97 97 96 96 97 96 96 96 96 94 92 89 87 83 73 66 56 47 43 39 36 33 31
39 44 52 60 68 78 88 93 95 95 96 96 94 95 95 95 94 93 94 96 96 96 96 95 95 96 96 96 96 97 97 97 98 97 97 97 97 97 96 94 91 85 78 72 63 52 42 35 31 27 26 25 23 26
23 35 40 42 46 51 53 56 61 68 82 87 89 92 95 92 91 92 94 96 98 97 98 98 98 97 97 97 97 98 98 98 98 98 98 97 96 93 89 82 74 68 57 44 37 32 29 26 23 20 18 18 24 24
34 37 38 40 43 45 45 46 48 49 49 51 58 66 75 82 86 92 94 97 98 98 98 98 98 98 98 98 98 98 98 98 98 97 96 93 88 83 74 63 50 40 37 38 37 31 24 21 19 22 24 23 18 24
38 41 42 42 43 44 46 47 47 47 48 49 50 52 53 54 57 65 75 87 95 98 98 98 98 98 98 98 98 97 94 90 86 83 78 72 63 56 50 43 37 34 28 24 21 24 25 25 23 24 24 24 23 20
42 44 45 47 48 47 49 49 50 51 51 52 52 54 54 54 57 62 65 70 75 78 84 88 91 95 98 96 92 89 85 81 76 70 62 55 50 43 37 31 25 22 21 20 19 18 19 19 22 20 19 23 21 24
43 44 42 44 46 48 51 53 55 57 59 60 59 60 62 63 64 66 69 72 74 77 79 85 87 87 87 89 87 83 82 80 67 61 57 52 42 30 23 23 23 22 22 20 19 18 18 18 19 20 22 25 28 29
44 43 41 41 43 47 49 50 52 55 58 61 63 65 67 69 71 74 76 78 78 79 80 84 88 87 83 81 79 74 66 59 55 53 46 35 26 25 25 24 23 22 21 21 20 20 20 20 22 25 28 30 29 28
48 48 47 50 53 56 56 55 55 54 54 54 55 56 60 65 70 76 79 81 83 87 89 89 89 87 85 84 77 64 53 45 37 30 27 26 26 25 24 23 24 23 22 21 21 21 21 25 28 31 31 29 29 29
40 40 40 42 47 51 54 60 65 68 70 69 70 70 72 72 73 74 77 81 82 86 90 90 88 88 81 71 58 44 36 32 29 28 28 27 25 24 25 25 25 24 23 23 22 23 26 30 32 31 30 30 30 31
40 39 39 40 42 42 44 46 47 51 55 59 68 79 84 84 85 85 85 85 86 87 88 85 81 74 61 48 38 33 31 31 30 28 26 25 25 26 27 27 26 24 23 23 25 28 31 32 31 29 29 30 30 31

GFSWCAN_prec_cthk_078.txt.gz
RH
59 77 90 97 98 97 88 88 91 97 99 98 95 92 92 96 89 94 94 97 97 95 88 87 91 88 79 74 62 56 67 82 78 72 77 78 84 60 46 39 62 76 95 89 80 88 76 61 56 52 43 40 45 51
88 97 98 98 89 87 89 91 94 98 96 95 95 97 95 98 93 96 99 96 97 96 96 90 89 94 84 77 69 61 53 56 61 65 72 66 82 67 40 46 53 72 67 83 74 68 67 60 63 60 56 57 54 59
98 97 92 74 82 95 97 91 97 89 95 90 88 97 99 98 94 98 96 96 99 99 97 97 89 87 80 69 61 68 61 70 67 55 55 59 74 52 57 43 42 49 61 69 72 65 68 76 70 67 62 58 56 57
98 79 68 87 97 98 99 98 90 78 79 75 86 97 98 96 98 99 98 98 98 97 97 89 84 85 80 62 61 56 71 76 74 74 77 84 72 50 51 52 47 49 51 57 58 56 56 62 62 67 67 65 61 57
90 66 87 95 93 71 83 89 85 74 73 78 94 98 98 96 97 98 98 96 93 90 92 90 84 83 74 63 60 61 66 74 93 92 65 55 60 62 59 53 44 42 47 60 63 54 48 47 48 58 56 52 59 61
82 76 90 93 87 64 73 74 70 69 78 93 98 93 96 98 98 99 99 99 97 96 90 89 86 81 70 65 66 63 76 76 85 98 74 80 68 68 70 60 49 48 44 48 54 59 59 53 48 50 55 60 65 64
81 76 91 96 95 78 69 70 76 91 97 98 92 92 99 99 99 97 88 82 90 92 88 89 81 71 68 70 63 72 78 91 95 97 94 75 62 59 65 58 46 40 38 35 41 41 49 58 54 47 54 56 63 66
97 82 86 96 98 97 93 95 97 98 97 94 96 99 99 98 98 97 92 89 93 94 90 84 78 80 75 72 69 68 76 87 94 96 86 71 71 62 58 45 45 39 36 48 50 53 52 55 58 56 50 52 58 62
98 98 89 86 98 97 93 90 94 96 93 94 97 98 98 98 98 96 96 95 93 91 85 78 78 84 95 93 78 78 79 89 84 90 88 81 75 74 60 51 44 33 31 26 40 51 51 54 55 56 56 56 58 61
98 98 98 94 84 83 91 92 91 92 94 97 98 97 98 98 94 94 98 96 94 91 86 77 76 85 93 96 96 89 90 94 98 81 79 89 79 69 73 68 66 58 50 46 45 46 47 48 54 54 55 58 63 67
98 98 98 98 99 99 99 98 98 98 97 96 95 95 97 97 95 97 95 90 84 88 76 74 75 82 87 88 90 94 94 92 94 79 93 91 79 81 85 76 71 68 61 56 52 52 57 65 68 68 69 68 69 73
97 98 98 98 98 98 98 98 98 96 93 88 87 92 95 95 94 94 93 91 83 75 68 71 79 84 94 93 97 94 89 88 88 76 86 79 83 82 83 79 71 66 60 55 53 54 57 59 67 71 73 75 80 84
97 97 97 95 94 94 94 95 92 91 88 85 83 92 97 94 90 89 83 77 80 74 78 82 94 97 98 98 96 92 84 86 94 91 83 74 72 74 68 65 65 62 57 57 58 59 61 59 58 64 73 81 87 98
93 92 87 90 92 92 93 92 89 87 85 86 90 91 90 85 88 86 80 70 67 75 77 91 97 98 98 96 97 98 86 84 98 95 89 76 68 70 70 64 59 57 59 59 58 60 60 59 59 64 80 92 95 98
72 79 80 82 78 77 82 85 86 84 86 86 85 84 82 80 77 76 82 73 76 90 96 98 98 98 98 98 98 96 99 94 96 87 80 79 78 72 67 66 67 69 70 75 80 85 90 89 90 96 98 97 97 97
74 77 83 85 83 82 80 77 74 72 72 70 68 72 73 80 82 79 93 89 91 92 98 98 98 98 98 98 98 95 87 90 90 92 87 84 80 80 83 81 79 86 94 97 97 96 97 97 97 97 96 96 96 96
87 86 83 86 85 79 81 85 79 74 77 75 73 76 84 86 88 92 90 91 87 92 97 98 98 99 99 97 96 92 90 90 92 95 96 97 97 97 92 90 96 97 97 97 97 97 97 97 97 96 95 96 97 96
89 88 84 78 77 78 77 80 80 78 79 78 80 85 89 95 91 89 89 88 85 91 93 95 93 96 96 96 93 96 97 97 97 97 97 97 97 97 97 97 97 97 97 97 97 96 95 95 96 96 95 95 94 93
75 75 74 73 72 77 81 85 87 86 88 90 93 97 97 97 93 92 92 89 91 95 93 96 96 96 96 97 96 96 97 97 97 97 97 97 97 97 97 97 97 97 96 95 94 94 94 93 93 93 93 92 90 88
82 82 82 84 86 87 91 96 97 96 92 90 90 91 90 89 87 85 83 85 88 96 95 95 96 97 97 97 97 97 97 97 97 97 97 97 97 96 96 96 96 96 95 95 95 94 93 91 90 89 87 85 82 78
96 97 97 94 91 91 91 90 91 94 93 90 90 85 85 87 89 89 89 89 90 95 97 98 97 97 97 97 97 97 97 97 97 97 96 96 96 96 95 95 96 94 93 92 91 90 89 86 84 82 78 71 62 46
98 98 97 96 96 94 95 94 94 95 95 96 95 94 95 96 94 91 91 93 96 97 97 97 97 97 97 97 97 97 97 97 97 97 97 97 96 96 96 96 95 93 91 89 87 85 83 78 70 62 48 38 36 38
78 84 88 93 93 94 97 97 96 96 96 96 96 96 96 95 96 96 95 97 98 97 97 97 97 97 97 97 97 97 97 97 97 97 97 97 97 97 96 95 93 90 88 85 78 67 59 52 46 44 43 41 38 35
44 49 58 67 74 79 85 91 95 96 95 95 95 95 96 96 96 95 96 97 97 97 97 97 97 97 97 97 97 98 98 97 98 97 97 98 97 97 95 93 90 86 78 69 60 51 45 42 43 41 39 36 33 31
27 38 44 46 52 55 57 59 62 64 75 80 84 91 94 93 92 93 96 97 98 98 98 97 97 96 95 96 96 97 97 98 98 97 98 97 96 94 90 86 80 69 60 53 48 45 45 41 35 29 27 29 26 24
36 39 40 41 43 44 45 47 49 50 51 53 58 61 66 68 75 87 92 96 97 97 98 97 98 98 98 98 98 98 98 98 97 97 97 96 92 86 79 71 60 56 54 50 47 45 39 33 32 29 24 18 18 21
38 42 41 41 43 44 46 47 45 46 47 49 50 50 49 50 53 59 63 68 76 84 90 96 97 98 98 98 98 98 98 97 94 92 88 82 75 68 63 59 58 52 46 43 41 37 33 25 23 24 23 20 18 21
40 43 44 44 45 46 47 48 49 50 51 51 52 52 53 54 55 59 62 64 65 68 72 75 76 80 85 88 89 86 87 86 80 76 70 66 61 58 54 49 45 42 38 32 28 20 19 20 20 18 19 20 20 22
44 44 40 42 42 44 48 51 53 56 58 59 59 60 61 63 63 64 66 67 69 72 75 76 76 78 81 85 85 85 84 80 77 75 71 67 60 55 50 45 42 40 32 22 20 19 18 17 18 19 21 24 26 28
44 41 39 39 41 45 47 49 50 51 50 53 55 59 63 66 69 71 74 76 77 77 79 81 84 87 85 80 77 74 74 73 73 71 68 61 54 49 44 38 33 27 24 22 21 20 19 20 22 26 26 26 26 26
47 45 44 46 50 53 53 54 53 54 54 54 54 54 57 61 64 70 74 79 81 85 89 89 89 91 93 94 89 79 70 65 61 57 52 48 43 38 35 29 26 25 24 23 22 21 21 28 31 32 29 27 26 25
38 37 36 38 41 43 46 48 49 52 56 60 64 67 69 69 70 72 74 78 81 82 86 90 90 88 84 81 74 68 62 57 52 47 41 38 33 29 28 27 26 26 25 23 23 22 24 27 28 28 28 28 25 26
36 35 35 37 39 45 43 47 46 48 52 54 56 61 69 76 81 83 84 84 85 85 86 88 86 81 74 66 59 54 50 42 36 33 31 31 30 29 29 28 27 26 25 24 25 26 27 28 28 28 27 25 26 28

GFSWCAN_prec_cthk_081.txt.gz
RH
69 54 56 75 88 94 97 98 98 98 98 98 98 95 90 76 81 88 67 80 98 98 89 84 85 85 80 82 77 66 62 52 64 57 64 74 76 72 77 72 77 73 85 90 88 91 89 67 60 57 53 46 40 43
57 80 90 95 98 98 92 91 94 93 94 96 98 99 99 95 86 96 88 73 96 99 92 88 82 84 87 84 80 76 57 52 61 60 60 69 72 70 61 75 60 66 56 72 73 75 68 66 66 66 58 60 57 52
89 97 97 88 72 74 82 91 92 91 86 82 90 98 99 99 94 92 85 86 99 99 96 94 82 77 84 82 86 83 63 56 61 70 64 59 60 48 56 58 57 59 62 67 69 66 69 68 70 60 66 64 59 58
97 92 75 85 89 92 89 94 98 97 94 90 92 97 98 98 96 97 95 86 96 99 98 85 82 81 85 89 88 85 78 66 61 77 95 90 71 43 43 43 55 46 51 57 64 64 65 67 63 65 71 69 67 65
91 69 86 91 69 62 70 81 96 98 95 92 94 97 98 99 98 98 98 92 95 95 90 79 86 88 90 92 81 80 74 69 71 72 92 94 77 70 53 45 48 42 43 59 74 69 68 63 58 57 61 69 67 67
78 93 92 74 59 68 84 88 96 92 88 90 96 96 98 99 99 99 99 99 97 96 91 93 89 91 90 85 78 71 63 65 68 73 72 74 79 79 74 59 41 38 42 52 62 60 63 60 58 59 63 67 66 61
83 95 93 68 60 61 64 68 74 84 87 92 96 98 99 99 98 92 80 81 97 98 93 97 95 86 84 82 79 76 63 64 68 77 77 73 86 88 86 70 49 47 49 50 53 49 53 57 60 61 54 60 61 63
87 98 91 82 72 73 72 76 83 90 97 98 98 98 98 99 99 98 92 90 99 94 90 93 94 91 85 85 78 69 66 62 61 71 76 84 82 80 81 60 52 50 51 52 52 51 52 55 54 52 55 58 57 58
88 98 95 94 94 94 94 95 96 97 98 98 98 99 99 99 98 98 98 98 98 96 89 80 81 86 85 77 74 75 69 71 67 81 86 85 98 91 72 65 52 47 48 44 49 48 48 50 55 53 53 61 65 64
91 96 97 96 98 98 98 99 97 96 99 99 99 97 98 99 98 98 99 98 94 86 79 76 80 80 76 80 91 85 80 79 81 80 85 91 94 88 78 69 56 47 45 43 42 51 48 47 44 47 52 53 56 62
97 93 95 95 97 95 93 93 97 98 97 94 95 96 99 98 94 94 97 97 96 92 84 78 73 74 78 84 92 93 96 82 77 75 78 96 95 89 82 85 80 65 61 59 53 48 46 46 48 55 61 63 65 67
98 98 97 98 98 98 98 98 95 90 86 85 86 93 96 94 94 95 95 91 86 81 72 72 71 71 77 84 89 93 97 96 84 72 89 95 96 91 81 81 82 84 76 74 68 66 64 61 60 63 68 70 71 75
97 97 96 97 98 98 98 97 94 90 88 87 87 91 91 89 89 90 90 85 76 75 68 68 72 79 88 88 93 95 96 94 83 91 87 85 92 94 91 88 86 88 83 79 75 72 68 68 68 70 66 64 63 69
97 97 97 97 98 97 99 97 93 88 82 83 82 86 89 91 92 91 84 79 78 79 74 74 87 94 98 98 92 96 95 79 74 72 75 75 81 79 82 88 87 87 83 81 78 73 68 69 69 68 68 68 67 66
90 93 93 93 94 91 88 84 80 75 77 82 81 87 90 91 92 88 87 77 74 77 88 95 96 98 98 98 97 89 96 88 85 85 84 81 80 81 81 79 80 79 75 73 71 67 69 70 71 74 81 86 89 91
86 82 80 83 86 86 81 78 74 73 79 79 78 81 80 79 83 81 81 72 72 86 97 99 99 98 98 98 98 93 91 90 80 79 84 89 92 88 82 77 75 71 69 69 72 75 82 89 91 95 97 97 97 97
76 80 79 77 76 73 70 66 70 76 74 74 75 76 80 83 77 80 82 86 95 98 98 98 98 97 98 95 94 92 91 93 95 90 87 91 97 92 88 85 81 77 75 79 85 89 96 97 97 97 96 97 96 96
77 79 75 70 71 71 67 64 67 67 72 75 84 82 80 86 92 89 96 95 96 97 97 98 97 96 97 96 96 95 93 93 93 95 96 97 93 90 89 94 93 91 89 90 97 97 97 97 96 96 96 95 93 92
78 72 69 71 72 73 74 76 73 73 73 83 84 87 92 97 95 95 94 92 96 97 97 97 96 96 97 97 97 97 97 97 97 95 96 97 97 97 97 97 97 97 97 97 96 96 96 97 95 93 91 89 87 85
71 71 74 79 78 79 84 88 83 80 89 91 93 96 96 97 97 95 93 93 95 96 96 96 97 97 97 97 96 96 97 97 97 97 97 97 97 97 97 97 96 97 97 97 97 95 94 92 91 88 84 80 75 68
95 95 91 86 82 82 90 90 90 91 92 94 95 93 95 93 89 85 85 87 90 96 96 97 97 97 97 97 97 97 97 97 97 97 97 96 97 97 97 97 97 97 96 96 94 93 89 85 83 78 71 59 50 45
98 98 97 94 94 93 94 95 94 93 92 89 85 83 85 87 86 84 84 88 94 97 97 97 97 97 97 97 97 97 97 97 97 97 97 97 97 97 97 97 98 97 95 92 88 86 82 72 60 50 45 45 42 40
89 92 95 96 96 96 97 97 97 95 96 93 94 92 90 90 90 85 89 92 96 97 97 97 96 97 97 97 97 97 97 97 97 97 97 97 97 97 97 97 95 91 87 83 76 66 57 51 49 45 43 39 36 34
44 50 60 70 80 89 90 94 97 96 96 97 96 95 95 96 95 93 96 97 98 97 97 97 97 97 97 97 96 97 97 97 97 97 97 97 97 97 95 93 88 82 74 63 54 50 47 44 43 42 41 38 34 28
25 38 43 49 53 58 60 61 62 63 68 73 76 83 91 91 95 96 97 97 97 97 97 97 97 97 97 97 97 97 97 97 98 97 97 97 96 94 90 85 78 70 61 52 49 46 44 42 40 37 32 29 28 28
37 41 41 43 45 46 48 50 52 56 58 58 62 62 62 65 69 76 82 90 94 96 97 97 97 97 97 97 97 97 97 97 98 97 98 95 87 81 77 72 67 65 61 54 49 45 40 38 35 30 27 28 27 24
40 43 43 43 44 45 46 46 46 47 50 52 54 53 54 55 59 62 65 68 71 75 78 83 85 89 94 97 98 98 98 98 97 97 94 87 78 71 67 63 62 60 59 51 45 41 38 36 31 29 25 21 20 21
42 44 45 45 44 44 48 48 49 52 52 53 53 55 57 59 60 62 64 65 66 66 68 72 75 76 76 78 81 81 80 78 74 71 69 66 65 65 61 59 55 51 49 45 41 38 34 30 28 22 20 21 21 21
44 41 37 40 38 40 45 48 50 52 53 54 56 58 59 60 61 63 65 67 69 72 74 76 76 77 78 80 83 86 86 86 74 68 63 64 63 62 60 58 52 49 45 41 36 32 30 26 21 20 22 23 22 21
44 39 36 38 41 46 48 48 47 46 45 46 48 51 54 58 62 65 66 69 71 74 78 78 80 84 86 87 86 83 79 78 76 71 69 67 62 59 55 51 49 44 39 35 32 28 23 22 22 24 25 24 23 23
44 40 39 42 46 48 46 44 45 47 48 49 50 51 55 59 61 66 68 71 77 78 79 81 85 89 89 85 82 78 78 76 71 67 62 60 56 52 50 45 40 37 34 30 26 24 23 23 24 25 25 24 24 24
35 33 33 38 40 40 43 45 45 45 47 50 51 53 58 63 68 71 74 75 79 80 82 87 90 90 87 83 79 78 72 69 64 60 55 52 49 44 41 38 33 30 29 28 26 24 23 25 27 27 25 24 25 27
38 35 35 37 41 44 43 48 45 48 51 51 53 56 57 61 66 70 77 82 85 86 86 87 89 85 80 73 69 65 61 57 53 51 48 44 40 36 33 32 31 30 28 27 25 24 26 28 28 25 25 26 28 29

GFSWCAN_prec_cthk_084.txt.gz
RH
87 82 77 71 62 58 60 65 70 71 70 72 72 69 70 75 82 87 98 98 98 97 88 83 79 77 77 80 80 80 79 74 70 69 65 68 66 59 66 58 70 98 91 86 87 97 92 71 70 69 67 61 58 55
65 56 61 73 81 87 92 95 96 97 98 98 96 91 87 87 89 87 78 78 96 99 89 86 80 76 70 78 80 84 81 74 68 67 67 59 64 64 51 69 68 81 81 79 69 71 68 67 75 67 67 65 61 58
75 84 91 93 91 85 83 85 84 85 93 98 98 98 97 97 96 96 95 81 77 77 70 89 87 69 80 79 86 89 84 81 74 61 66 68 63 67 84 71 59 62 69 68 63 56 62 65 70 73 72 69 64 59
94 95 87 76 85 90 91 90 93 96 95 91 96 97 97 98 98 98 96 83 83 80 80 82 89 81 76 78 75 78 84 85 78 71 66 75 77 57 53 47 61 54 60 65 62 57 60 62 65 66 67 67 68 67
96 86 95 90 76 60 61 69 76 79 94 98 99 98 97 97 98 99 99 88 89 85 74 80 86 84 85 82 82 85 90 89 78 76 80 82 80 74 72 53 55 49 54 58 57 48 61 60 65 66 61 60 63 68
87 97 90 70 59 60 73 77 98 98 96 98 96 87 83 89 99 99 99 97 90 82 98 94 77 84 83 82 82 89 95 96 86 84 80 80 78 81 88 72 59 53 41 42 43 53 61 66 73 68 64 62 61 65
97 89 78 69 60 65 76 80 96 99 98 96 88 84 88 99 98 88 73 69 81 82 94 96 88 84 84 89 90 97 92 91 89 80 73 75 79 89 95 95 71 53 51 50 50 57 65 63 70 73 72 71 69 70
95 94 84 76 69 67 73 81 88 91 93 93 96 98 98 99 98 95 86 78 82 98 98 98 93 95 94 96 96 92 84 80 79 70 65 66 68 75 81 68 63 57 56 56 56 54 57 66 70 65 65 66 68 67
95 93 94 88 89 83 81 83 88 92 96 98 98 99 99 99 98 93 91 90 82 95 98 85 83 90 94 90 87 82 75 80 75 73 66 60 64 70 55 65 63 62 54 56 59 58 59 66 66 66 66 65 58 61
94 91 95 95 92 92 90 88 92 94 94 96 98 98 99 98 95 96 99 97 96 99 92 87 82 84 81 84 85 83 83 83 82 69 60 61 54 46 57 62 63 71 64 57 63 68 63 60 59 58 59 59 55 58
95 93 95 97 97 97 97 97 92 89 92 89 91 93 98 98 98 99 98 98 98 95 83 81 77 78 86 87 85 82 82 79 76 65 69 68 66 63 59 77 78 87 73 62 64 63 62 60 57 59 59 54 55 59
98 98 96 98 98 98 98 98 97 92 85 83 89 88 96 97 97 94 93 93 82 82 79 78 75 75 83 79 77 83 84 85 76 73 73 71 70 74 79 82 92 96 84 69 60 59 65 65 67 64 62 62 64 67
96 97 98 97 95 95 96 94 94 94 92 86 86 90 90 88 89 88 91 86 80 76 73 76 77 71 72 74 78 87 94 84 92 94 81 73 76 80 80 85 93 98 90 87 84 83 86 86 90 80 75 72 71 70
98 96 97 96 97 96 97 95 92 88 84 84 85 88 89 89 87 85 82 82 83 83 76 72 73 73 77 80 89 94 87 90 82 83 85 77 78 81 90 94 94 96 98 97 99 93 90 90 87 84 80 75 75 73
95 97 97 96 97 95 90 86 83 79 77 80 79 86 88 89 89 88 87 84 84 84 77 76 80 86 92 95 97 98 97 98 92 85 82 82 80 84 85 87 92 93 96 99 99 93 92 94 86 77 71 69 72 74
90 90 92 92 90 87 84 80 76 74 78 80 87 92 93 93 90 88 83 82 81 82 93 98 98 98 98 98 98 97 95 85 87 90 85 79 80 83 83 89 91 91 93 94 93 90 89 86 80 75 75 84 91 95
80 81 85 87 84 80 78 76 75 77 82 81 84 84 85 85 84 81 78 75 75 94 98 98 98 97 98 97 96 96 96 91 86 88 80 76 76 76 79 84 85 88 91 90 88 84 79 79 81 86 88 93 97 97
77 75 73 70 66 63 63 71 74 70 73 75 77 83 85 83 81 82 84 90 94 98 97 97 97 96 97 96 96 95 97 93 87 87 85 82 84 85 85 87 86 86 87 87 85 83 81 83 89 95 97 97 96 95
70 67 65 63 61 60 62 65 64 69 75 78 82 84 86 87 92 95 96 97 97 98 97 96 96 96 97 95 95 96 97 98 98 97 97 97 97 96 97 97 93 91 89 88 87 88 91 96 96 96 96 93 89 86
63 62 66 71 72 70 70 70 66 71 79 83 85 93 96 97 97 95 94 97 97 96 96 96 97 97 97 97 96 96 97 97 97 96 97 97 97 97 97 97 97 97 97 97 97 97 96 96 95 91 87 81 73 60
79 80 82 83 83 86 87 84 81 80 90 95 96 96 97 94 93 93 92 95 95 96 97 97 97 97 97 97 97 96 97 97 97 96 97 96 97 97 97 97 97 97 97 97 96 96 94 90 86 80 66 52 47 46
96 94 90 82 84 92 95 96 96 97 96 97 96 96 97 95 91 87 86 91 96 97 97 97 97 97 97 97 97 97 97 97 97 97 97 97 97 97 97 97 97 96 96 96 93 89 84 76 63 53 47 47 46 43
96 94 93 94 91 93 97 97 97 95 92 93 91 93 91 91 89 86 93 96 98 98 97 97 97 97 97 97 97 97 97 97 97 97 97 97 97 97 97 97 97 95 91 87 78 66 55 51 49 47 46 44 41 38
69 76 83 86 89 95 94 95 97 97 97 97 97 97 96 96 91 89 95 96 98 98 97 97 97 97 97 97 97 97 97 97 97 97 97 97 97 97 97 96 91 85 75 66 59 54 53 52 50 47 43 39 36 34
31 45 50 59 61 65 69 73 77 79 83 83 83 88 93 94 96 97 97 97 98 98 97 97 97 97 97 97 97 97 97 97 97 97 97 98 98 96 91 85 77 69 64 60 57 53 51 50 47 42 39 37 34 30
38 42 42 46 48 50 53 53 55 58 60 62 66 68 61 64 71 79 84 91 95 97 97 97 97 97 97 97 97 97 97 98 98 97 97 97 94 86 79 73 70 67 63 59 54 50 48 47 43 39 37 35 33 30
42 45 44 44 47 47 47 45 45 49 51 54 54 53 52 58 62 65 67 70 72 74 77 82 83 87 91 95 97 97 98 98 98 97 94 87 83 79 73 70 68 63 61 57 51 48 47 44 40 39 36 33 30 28
40 40 43 42 41 43 45 47 48 51 52 53 52 54 54 56 57 60 63 65 67 70 71 73 75 76 76 78 80 83 86 87 87 84 76 72 72 69 67 65 61 62 59 54 49 47 44 41 39 35 31 29 27 24
42 38 36 41 38 39 43 45 46 47 48 49 50 51 53 55 58 61 63 64 67 68 69 73 76 77 79 82 85 88 87 83 79 73 72 68 67 67 65 62 60 57 52 49 48 44 41 37 33 31 29 26 24 24
41 38 38 42 44 48 49 47 46 45 45 45 46 48 51 54 57 61 65 65 67 70 74 77 77 78 81 85 88 87 84 77 75 73 69 69 68 65 62 61 58 53 51 48 43 39 35 34 31 26 26 26 25 23
37 32 35 39 44 45 43 41 40 39 40 43 45 47 52 56 59 61 66 67 69 75 77 78 79 82 87 88 87 83 81 79 77 74 71 69 65 62 62 58 54 51 47 43 39 38 33 27 26 27 28 27 25 25
32 31 32 38 43 43 44 45 43 43 45 48 49 51 53 56 60 64 68 70 70 73 78 80 81 86 88 84 82 79 78 79 75 71 69 64 61 57 54 51 47 44 42 38 33 31 29 27 27 28 28 26 25 25
35 34 34 36 41 43 44 47 46 49 50 51 54 56 57 58 61 65 68 71 76 79 82 84 84 85 83 78 74 72 70 69 65 62 59 56 54 50 48 45 40 37 36 35 32 29 28 28 29 30 28 26 26 28

GFSWCAN_prec_cthk_087.txt.gz
RH
98 97 96 92 88 84 81 79 78 76 73 74 76 80 87 93 98 98 97 97 95 92 91 87 84 85 89 88 89 79 83 84 87 86 82 75 72 59 53 55 74 70 86 90 94 97 89 63 68 67 63 64 68 61
90 88 82 73 69 69 70 69 66 63 63 64 65 62 63 71 84 98 98 97 99 98 91 91 87 86 83 79 82 84 84 87 84 81 75 73 72 69 56 57 56 68 60 79 81 81 61 62 58 69 75 73 72 72
71 69 74 79 79 81 84 87 90 92 91 93 90 86 80 75 72 81 97 97 99 97 96 94 89 85 84 82 82 83 81 83 87 86 84 76 69 62 57 55 64 54 61 72 71 62 59 58 59 66 78 77 72 75
89 93 95 94 90 86 86 83 79 77 83 91 97 98 97 95 96 87 82 78 93 96 97 79 77 80 82 79 79 81 82 89 90 89 90 83 76 66 61 55 75 71 64 70 66 59 63 57 62 63 69 75 78 76
97 94 87 91 92 84 71 65 66 76 90 94 94 96 98 98 98 98 99 92 91 81 74 63 61 65 74 77 77 83 91 92 92 89 93 89 79 70 64 71 59 67 57 63 58 55 60 58 64 69 78 75 76 79
93 94 86 73 64 59 62 61 62 69 71 81 94 98 96 99 99 99 98 96 95 93 84 72 63 44 50 73 79 83 86 87 88 93 90 85 71 82 83 72 68 56 53 55 50 55 53 56 56 66 78 78 72 71
94 90 84 73 67 70 63 60 70 88 96 88 90 98 99 99 98 91 81 74 90 94 90 93 85 60 69 83 93 91 94 95 95 96 93 87 77 81 83 75 66 65 60 54 49 49 52 49 55 70 68 76 80 72
97 94 88 76 77 70 77 76 87 97 95 90 98 99 99 99 100 98 89 82 88 94 96 92 94 84 82 97 98 96 94 94 98 99 97 86 80 70 66 54 61 64 61 53 52 56 54 50 70 73 67 76 79 80
98 96 87 81 80 74 82 92 95 98 98 99 99 99 99 99 99 95 95 91 91 93 88 93 98 84 84 98 98 97 98 99 96 92 86 78 72 60 43 51 59 68 65 65 62 59 55 57 68 77 76 72 79 77
98 95 91 88 87 83 83 89 91 87 87 87 85 92 96 96 98 97 99 98 95 95 95 92 96 90 87 97 99 98 92 93 90 84 79 75 60 46 41 44 52 59 70 70 65 63 59 59 66 74 75 73 77 74
98 97 95 91 92 89 93 96 97 96 96 96 97 92 95 97 94 96 98 94 94 91 92 88 99 95 98 96 95 88 93 91 87 75 74 67 61 49 43 39 42 54 63 68 64 61 60 70 71 69 73 74 70 67
97 97 96 95 94 96 97 98 96 91 88 87 83 91 96 98 99 98 92 98 89 83 87 95 96 96 95 92 89 89 85 83 79 76 79 65 54 47 50 48 50 56 70 65 65 62 69 68 75 73 72 73 71 68
95 96 95 95 94 94 96 95 94 90 92 90 92 93 98 98 97 97 90 88 86 79 80 82 88 87 90 84 84 86 84 82 80 79 69 61 59 64 58 62 67 75 78 74 90 84 75 76 80 76 75 77 78 75
96 98 97 93 95 96 92 97 96 93 91 87 83 91 89 84 80 80 79 77 75 78 78 79 81 81 78 80 81 77 77 84 85 78 68 68 69 73 71 77 86 84 79 86 94 93 87 84 81 85 91 95 92 84
97 97 98 94 93 92 91 85 81 80 78 80 79 86 85 83 82 80 78 80 80 81 80 80 82 80 80 79 78 81 87 85 78 73 72 74 77 84 84 93 92 90 92 93 95 97 96 96 98 99 98 93 90 84
95 96 95 93 88 86 82 79 76 76 79 82 86 90 90 92 88 87 86 89 89 88 86 84 84 83 85 87 89 89 92 88 90 93 93 88 88 95 97 94 91 95 93 96 98 98 98 97 97 96 95 94 87 80
91 92 91 90 87 84 81 78 76 80 82 90 97 97 97 94 92 88 86 85 85 89 89 91 94 96 95 96 96 96 94 93 92 92 93 96 97 98 97 96 97 92 92 95 96 97 97 96 95 92 89 92 89 82
82 84 86 84 82 81 80 79 80 83 84 84 84 85 85 83 83 82 81 81 84 92 97 97 97 97 97 97 97 97 97 97 97 95 95 97 97 96 93 91 92 95 96 93 95 96 95 93 91 90 88 85 83 89
69 69 67 64 63 67 75 80 71 74 78 80 81 82 81 82 81 80 81 81 89 97 97 97 96 96 97 97 97 97 97 97 97 97 97 95 90 88 86 85 86 88 89 90 91 94 94 93 91 89 87 88 93 93
65 62 64 65 60 61 66 71 67 67 77 82 83 85 87 92 96 97 97 97 97 97 96 96 97 97 97 97 97 97 97 95 94 97 97 97 95 96 96 97 96 93 91 89 91 91 91 90 89 90 93 90 82 70
62 67 70 69 69 65 69 68 70 73 78 91 95 94 95 93 95 96 97 96 95 97 97 97 97 97 97 97 97 97 97 97 97 96 96 96 97 97 97 96 95 96 97 97 95 96 97 96 93 88 76 60 52 49
86 86 85 83 86 80 78 78 79 85 92 96 97 96 97 96 95 95 94 95 97 97 97 97 97 97 97 97 97 98 98 98 97 97 97 97 97 97 97 97 97 97 97 97 97 96 91 84 70 59 50 47 46 44
91 90 91 91 92 91 94 96 95 97 97 97 96 96 95 95 93 91 95 97 97 98 97 97 98 98 97 97 97 97 97 97 97 97 97 97 97 97 97 97 97 97 97 96 91 80 66 58 51 48 46 45 43 41
88 89 91 93 95 97 96 97 97 97 96 97 96 97 97 97 94 94 97 98 98 98 98 98 98 97 97 97 97 98 97 97 97 97 97 97 97 97 97 97 97 92 83 70 61 56 53 51 49 47 46 44 43 40
52 66 71 79 81 83 86 88 87 85 89 88 88 93 96 94 97 97 98 98 98 98 97 97 98 98 97 98 97 98 98 97 98 97 97 98 98 98 96 90 80 71 65 60 59 56 53 51 49 47 46 44 42 39
41 51 52 55 57 54 56 59 63 65 66 67 68 70 64 72 79 88 94 98 98 98 98 98 97 97 98 98 98 98 98 98 98 98 98 98 98 91 83 75 69 68 65 61 59 57 55 52 48 46 45 43 40 36
39 43 42 43 46 45 46 45 46 48 51 54 55 54 52 59 64 66 70 73 78 83 89 92 95 97 98 98 98 98 98 98 98 98 97 92 84 81 77 71 70 67 64 61 59 56 52 49 47 46 42 38 37 35
38 39 40 39 40 41 45 46 48 50 51 51 51 52 53 55 57 61 64 65 67 67 68 71 74 76 78 80 83 87 89 89 90 91 89 87 82 81 78 72 70 65 61 59 58 54 50 48 46 42 39 37 36 33
38 37 36 40 38 40 43 45 46 46 45 46 46 49 51 53 56 59 62 64 66 67 68 71 72 75 77 77 78 81 84 85 81 74 71 71 69 68 67 67 63 61 60 56 52 50 50 49 45 41 39 36 35 32
39 38 38 42 43 45 45 45 45 43 44 43 44 47 50 53 54 56 59 62 64 65 68 71 75 76 77 78 80 82 81 81 78 76 71 70 68 67 68 65 62 61 59 55 53 51 50 45 41 39 36 35 31 28
34 32 35 40 45 45 42 41 40 40 40 42 44 47 51 55 57 59 61 64 66 67 68 73 77 77 78 79 82 83 83 79 76 74 73 71 69 70 69 66 63 62 59 55 53 48 45 44 41 37 32 31 30 28
32 32 35 40 44 45 45 44 42 42 43 44 46 49 51 51 55 61 64 66 67 70 71 73 76 78 79 80 81 80 76 75 75 76 74 72 71 67 63 61 59 56 54 50 47 46 43 38 34 32 32 31 29 27
35 34 35 39 42 43 44 47 47 48 49 49 51 53 55 56 58 61 64 67 68 69 74 77 78 75 74 72 71 72 71 68 68 69 68 65 63 60 57 55 53 50 48 47 42 39 37 34 31 32 32 30 29 29

GFSWCAN_prec_cthk_090.txt.gz
RH
97 97 98 98 98 98 98 98 98 98 98 98 97 97 98 97 98 98 96 98 98 95 91 87 84 86 90 91 93 87 92 94 95 95 92 88 84 74 71 56 55 73 95 98 97 98 89 69 70 95 81 70 62 62
98 98 96 95 94 92 93 90 89 89 90 92 92 94 97 98 98 98 97 98 98 98 91 90 88 86 82 81 84 87 87 91 94 91 88 81 80 80 74 78 56 59 77 80 89 92 67 63 69 71 77 80 75 67
87 85 82 81 82 83 83 83 85 85 83 81 82 84 83 88 95 97 99 99 99 98 96 94 89 85 88 86 85 86 87 86 90 94 96 88 82 74 74 67 60 50 53 60 71 58 64 60 67 70 66 66 75 75
90 90 89 89 88 87 86 86 86 84 82 81 81 76 73 73 76 81 90 94 97 98 98 95 91 88 86 87 87 89 85 87 86 88 94 94 90 78 74 66 63 49 46 54 64 59 67 63 59 61 63 62 70 81
99 99 97 95 94 93 91 89 88 90 91 93 96 96 93 87 88 87 84 82 88 93 95 89 86 83 84 87 88 91 91 92 91 95 96 95 91 87 78 70 64 47 43 63 65 74 65 62 61 63 64 68 67 75
96 98 95 90 82 75 69 64 61 67 81 94 92 90 97 99 97 99 98 88 80 87 92 95 88 78 75 80 85 87 89 91 98 98 97 89 80 81 84 72 52 43 44 53 60 69 64 56 55 54 60 74 71 77
98 98 94 86 78 75 69 65 62 62 67 70 92 98 98 99 98 95 86 76 87 93 88 86 78 70 63 62 69 84 88 86 96 99 94 87 86 88 77 66 57 52 51 61 62 67 61 58 52 53 62 76 81 79
98 94 85 82 79 68 66 66 61 64 67 75 81 98 99 99 99 99 94 83 88 98 97 95 83 76 76 61 64 70 85 89 96 98 96 92 90 90 80 66 56 53 47 48 51 58 60 55 53 51 63 75 86 80
95 90 86 84 75 78 82 80 87 98 97 89 88 99 99 99 98 98 94 94 94 95 93 87 80 88 95 77 86 96 90 98 97 97 94 97 89 84 68 65 56 44 45 58 62 70 71 60 58 54 65 76 81 78
94 91 87 82 83 83 85 94 95 98 99 97 98 99 98 99 97 97 99 98 97 96 91 82 87 94 99 90 91 98 95 98 98 93 97 97 78 65 63 62 51 40 45 61 78 78 64 66 62 58 65 71 77 77
96 93 91 90 92 85 87 98 98 98 99 99 98 97 97 97 94 97 98 93 91 89 77 79 82 89 86 93 92 95 98 97 96 88 88 76 63 57 59 56 47 45 47 54 73 75 67 66 64 61 62 62 71 79
97 96 96 95 94 94 86 87 93 90 88 85 87 93 97 97 93 90 93 92 85 79 81 80 82 87 95 99 98 98 98 94 90 83 83 66 59 61 59 55 51 46 44 46 62 75 72 71 65 63 66 68 71 78
98 96 98 98 93 96 98 97 95 89 85 84 86 96 96 96 89 91 87 82 81 76 80 89 96 98 99 98 96 94 88 84 81 85 71 65 63 60 59 57 56 52 49 48 57 71 73 68 68 66 65 68 76 79
97 97 98 94 93 94 96 95 92 89 86 84 84 86 95 85 88 83 80 79 79 79 82 79 83 91 91 90 90 86 83 84 83 78 68 67 66 63 64 66 59 59 60 60 69 72 77 71 69 66 69 78 82 85
96 96 96 98 95 85 86 84 80 82 85 89 90 92 83 76 76 79 81 79 80 80 80 83 86 85 88 87 85 84 86 84 77 71 73 75 77 71 70 70 66 71 77 87 87 86 85 81 75 80 80 82 91 97
95 93 93 94 89 87 82 80 78 76 79 81 86 87 85 85 82 81 80 80 82 86 90 90 92 92 92 91 90 87 86 83 80 82 85 91 79 74 76 77 77 93 98 98 90 93 98 95 94 96 97 96 97 98
92 91 89 88 83 80 79 76 75 79 83 87 95 94 94 91 89 86 86 86 88 87 89 92 92 93 91 91 89 88 90 90 91 90 89 87 92 87 82 86 96 98 96 97 96 97 97 97 97 96 97 96 95 95
87 88 87 85 83 81 80 77 78 83 93 96 96 97 97 97 95 93 93 93 95 96 96 95 94 94 94 94 97 97 97 98 97 96 95 96 97 95 96 97 97 96 97 97 97 97 97 97 96 94 94 95 96 96
79 80 80 79 79 80 81 79 76 79 84 85 86 87 88 89 88 90 89 88 90 94 96 97 97 97 97 97 97 97 96 96 96 95 95 97 97 97 97 97 97 97 97 97 97 97 97 97 94 93 93 95 95 94
65 61 61 63 67 70 76 74 66 67 78 81 85 87 85 84 86 86 84 84 86 88 94 96 97 97 97 97 97 96 96 96 94 94 96 97 97 97 97 97 97 97 96 95 96 95 93 92 92 92 92 92 83 76
61 65 65 64 62 64 70 69 69 72 77 86 89 86 92 96 97 97 97 96 95 97 97 97 97 97 97 97 97 97 97 95 93 94 97 97 97 96 97 97 97 97 97 97 96 93 92 92 94 94 88 74 61 58
65 70 73 71 72 72 71 70 75 80 90 94 96 95 96 97 97 97 96 95 97 98 97 98 97 97 98 97 98 97 98 97 97 97 97 97 97 97 97 97 98 98 97 97 97 97 96 91 82 69 60 58 54 49
86 86 91 85 77 74 81 83 87 95 97 97 97 96 97 96 96 95 96 97 98 98 98 97 98 98 97 97 97 97 97 98 98 98 97 97 96 97 97 97 97 97 97 97 95 89 77 67 60 56 50 48 47 47
91 91 92 90 91 94 95 96 97 97 96 97 97 97 96 97 96 95 97 98 98 98 98 98 98 98 98 98 97 97 97 97 97 97 97 98 98 97 98 97 97 97 95 87 74 63 59 57 53 50 49 48 47 46
71 82 84 89 89 90 92 93 94 93 96 94 93 96 97 96 97 97 98 98 98 98 97 97 97 97 98 98 98 98 98 98 98 97 98 98 98 98 97 97 91 80 73 65 62 59 58 58 56 52 49 47 45 44
52 56 55 59 60 61 64 67 68 68 68 66 69 72 67 73 81 92 96 98 98 98 98 98 98 98 97 97 98 98 98 98 98 98 98 98 98 96 88 79 72 72 69 64 60 59 58 56 53 50 48 46 45 43
42 49 51 53 54 51 53 52 51 52 54 56 57 57 56 64 67 68 72 75 80 85 90 94 97 98 98 98 98 98 98 98 98 98 97 92 87 83 80 74 72 69 69 67 62 60 57 55 53 50 47 46 45 44
37 36 40 41 41 41 44 45 46 47 48 48 47 50 51 53 57 61 64 65 66 67 69 73 75 79 81 85 91 96 98 98 98 98 98 93 90 84 82 76 73 70 68 63 60 59 58 56 52 50 48 47 44 42
38 37 36 40 38 40 43 44 45 45 45 46 45 49 50 53 56 58 60 63 65 66 66 67 69 72 75 77 77 79 81 82 82 81 77 78 76 76 74 73 71 69 66 61 60 60 57 54 52 50 48 46 43 41
37 36 37 40 43 47 47 47 47 46 46 45 47 51 54 56 58 59 62 64 66 66 67 69 72 75 76 77 78 79 81 83 84 79 78 75 74 70 68 68 69 68 64 62 61 59 56 53 52 50 45 43 43 43
36 34 38 42 47 47 45 45 43 43 43 45 47 51 54 56 58 60 62 64 66 67 67 69 71 75 77 77 78 79 82 82 80 78 77 74 74 72 70 70 71 68 64 63 60 56 54 53 50 47 46 45 41 37
33 33 36 40 44 44 45 42 42 43 45 46 49 50 51 53 56 60 62 64 66 67 67 68 70 73 75 74 71 70 72 76 73 71 72 73 74 72 72 68 65 63 61 56 55 55 52 49 48 46 41 37 36 35
35 34 35 37 40 41 41 43 44 46 47 48 50 51 53 55 58 60 62 65 67 68 68 69 67 68 69 67 64 64 65 65 66 64 64 63 62 61 62 61 58 57 56 55 52 50 48 46 42 38 37 36 33 31

GFSWCAN_prec_cthk_093.txt.gz
RH
97 97 97 97 97 97 96 92 85 81 82 87 88 88 91 94 93 95 94 96 95 92 92 90 90 93 93 92 96 91 95 96 98 98 97 93 87 76 69 64 58 68 86 90 82 89 80 82 80 83 83 89 85 84
97 97 97 98 98 98 98 98 97 97 96 95 98 98 98 98 99 98 98 98 99 96 89 90 90 91 88 86 87 90 91 91 97 95 91 86 84 79 72 69 63 62 50 71 98 91 84 86 80 80 81 80 81 85
80 82 86 89 91 93 92 93 95 96 97 97 97 98 98 98 98 98 99 99 99 98 94 91 88 83 86 86 84 86 89 89 91 95 97 94 91 79 79 69 66 59 55 53 60 70 84 83 77 78 80 75 76 83
94 94 94 93 91 91 91 90 91 91 89 89 92 93 95 98 98 98 98 98 99 98 98 91 85 81 77 82 85 85 85 89 90 94 96 95 90 90 80 70 66 61 55 49 46 51 64 73 75 67 66 68 75 79
98 98 98 98 98 98 97 92 90 89 89 89 89 90 87 93 97 99 99 98 98 96 97 94 85 81 80 82 84 87 90 93 96 98 94 88 87 91 84 81 73 65 63 59 45 40 56 66 70 66 67 70 73 75
99 98 98 98 97 96 95 92 92 93 91 91 90 89 88 89 93 97 97 97 98 99 98 96 89 83 82 81 82 87 89 94 97 98 96 89 80 82 82 75 65 64 61 53 42 42 48 63 68 67 61 72 69 70
98 98 97 94 86 81 79 77 73 69 77 93 94 97 99 98 95 89 83 74 81 88 89 87 77 71 72 76 83 88 93 97 99 98 95 91 86 86 81 71 62 62 60 59 50 48 52 60 64 64 58 66 79 73
96 92 89 87 83 78 70 66 62 62 66 69 86 99 98 99 99 98 95 91 90 96 94 91 80 75 74 73 77 78 80 97 98 96 91 90 91 89 78 61 59 60 58 55 49 45 44 53 65 67 62 71 83 77
94 89 85 81 73 65 66 66 61 60 63 68 79 99 99 98 96 93 97 97 96 95 93 87 80 83 80 83 86 78 72 82 92 93 88 91 87 80 64 60 59 59 59 50 40 40 45 48 66 67 68 70 84 88
92 92 91 79 81 83 80 82 71 73 82 85 97 98 98 99 98 97 99 98 98 95 89 84 82 83 86 96 84 87 80 82 87 78 89 94 77 62 60 60 62 63 59 45 42 42 56 62 64 72 72 78 89 89
95 95 90 86 93 85 91 97 98 99 99 94 98 96 96 98 98 99 98 95 90 87 80 80 82 82 85 93 88 86 98 93 87 80 88 87 71 63 65 61 63 65 58 49 46 46 61 80 76 76 73 81 89 84
98 94 90 92 93 93 98 97 96 97 91 93 88 94 97 98 97 97 88 86 79 77 76 79 83 84 82 85 86 92 91 96 97 90 94 79 64 68 70 66 62 62 59 53 48 44 50 77 84 81 79 85 86 82
99 97 95 93 92 93 95 98 98 96 94 91 90 94 94 94 90 83 80 81 81 77 79 79 81 82 86 85 92 98 93 95 96 98 87 75 77 75 71 68 65 62 57 53 52 47 46 74 87 82 83 81 89 80
98 98 97 94 92 92 93 95 95 93 89 85 85 88 86 83 81 78 76 77 83 89 83 90 96 95 92 93 97 97 96 97 97 95 84 82 82 79 76 73 70 65 60 57 54 52 51 56 81 86 85 92 88 84
97 97 95 92 86 88 90 86 82 79 74 76 74 78 77 78 83 84 81 83 83 83 86 92 92 93 97 98 93 89 92 92 88 83 85 84 84 83 79 75 69 68 62 61 63 63 69 68 73 90 91 93 91 85
97 97 96 86 84 81 80 80 83 81 82 82 79 74 75 75 77 80 80 80 83 84 86 88 89 89 91 92 90 91 91 87 87 89 90 88 91 92 79 76 72 71 69 70 74 81 87 78 82 90 91 91 91 92
94 93 92 88 84 83 82 77 77 81 87 88 87 83 81 80 81 79 80 79 81 84 84 88 88 92 89 89 91 92 91 91 90 95 96 93 94 91 89 76 77 78 83 86 90 95 98 91 89 91 96 96 95 97
89 88 87 86 86 85 82 77 80 88 95 97 95 97 94 89 85 85 85 85 86 88 89 94 95 95 95 94 93 93 92 93 97 97 97 97 96 96 95 86 80 84 92 96 97 97 98 95 96 97 97 97 97 97
83 84 84 83 82 81 82 81 81 88 94 93 95 96 96 96 95 94 95 95 96 97 97 97 96 96 96 95 96 97 97 96 97 96 96 97 97 96 95 97 92 96 97 97 97 97 97 97 97 97 97 97 96 97
67 67 72 74 72 71 76 77 69 74 84 88 93 95 94 92 91 91 92 94 95 95 96 96 97 97 98 97 97 97 97 96 96 96 97 97 97 96 96 96 97 97 97 97 97 97 97 97 97 97 97 97 97 93
57 59 58 60 63 67 72 75 71 74 78 85 89 88 88 96 97 97 97 94 91 93 95 97 98 98 97 97 97 97 97 98 97 94 95 94 95 94 94 95 96 97 97 97 97 97 97 97 97 97 97 86 71 65
58 61 62 63 64 66 68 69 75 81 86 90 92 95 97 97 97 97 96 96 97 98 98 98 98 98 98 98 98 98 97 95 89 90 91 93 92 95 97 97 97 97 98 98 98 97 97 97 93 81 69 63 60 57
67 76 76 73 71 72 79 82 86 96 96 97 96 96 97 97 97 96 97 98 98 98 98 98 98 98 98 98 98 98 98 95 95 96 94 95 96 98 98 97 97 97 97 97 97 97 88 78 70 64 59 57 52 49
93 91 81 81 81 86 88 94 96 96 95 97 96 97 97 97 97 96 97 98 98 98 98 98 98 98 98 98 97 97 98 98 98 98 98 98 97 97 98 98 98 98 97 95 85 73 69 63 60 58 56 54 53 51
77 86 86 90 89 91 92 94 93 89 94 93 93 96 97 97 96 97 98 98 98 98 98 98 98 98 98 98 98 98 97 98 98 97 97 98 98 98 98 98 96 88 80 70 68 64 61 60 59 58 58 56 52 49
57 62 62 66 67 67 70 71 72 70 70 72 78 73 70 73 79 88 93 97 98 98 98 98 98 98 98 98 98 98 97 97 97 97 97 98 97 97 95 88 83 80 76 74 69 65 63 62 60 58 57 54 51 49
47 54 55 56 57 55 56 56 56 55 56 57 56 54 54 64 67 69 71 72 76 81 86 90 94 97 98 98 98 98 98 98 98 98 97 94 91 90 85 83 80 77 75 73 71 67 62 60 58 58 55 52 50 49
39 40 42 44 43 43 44 44 45 46 47 48 46 50 52 55 58 62 64 65 66 66 68 70 73 76 79 81 86 92 97 98 98 98 98 95 91 89 86 83 80 76 72 71 68 65 62 60 60 58 54 51 50 50
40 39 37 40 39 42 44 46 47 47 47 47 48 50 51 54 57 61 63 64 66 66 66 67 69 72 75 76 77 78 80 84 87 87 87 85 82 81 79 78 74 72 71 69 66 63 62 61 59 57 55 53 52 51
38 37 37 40 43 47 48 47 46 45 45 45 46 50 53 57 59 61 64 66 67 67 67 69 71 74 77 77 77 78 80 83 85 82 80 80 76 75 75 73 73 73 73 71 66 63 62 62 61 58 54 53 51 49
38 36 38 43 48 49 46 45 44 42 42 44 46 50 54 56 60 62 63 65 67 67 67 68 69 71 74 77 76 77 79 82 84 81 80 79 78 76 76 73 72 73 72 69 66 64 63 60 57 55 53 50 48 47
36 37 38 42 45 44 44 43 43 44 46 46 49 51 53 54 57 60 63 65 67 68 68 69 70 71 72 72 71 70 70 69 69 71 73 73 72 72 71 70 71 70 67 65 64 61 58 57 55 52 50 49 46 43
36 34 34 37 40 41 41 42 43 44 45 46 48 49 51 54 58 61 63 65 68 69 68 65 64 62 63 62 62 62 62 62 63 64 64 65 64 63 61 60 60 60 60 58 57 56 55 52 50 48 44 41 40 39

GFSWCAN_prec_cthk_096.txt.gz
RH
73 85 94 97 98 97 97 93 81 72 62 59 60 63 66 66 64 58 54 71 79 80 71 72 79 91 96 97 97 98 96 89 98 98 94 88 86 78 73 69 82 77 79 78 86 89 71 58 72 86 89 80 76 75
91 95 96 97 98 98 97 97 97 88 79 71 65 64 64 65 66 68 77 81 90 97 93 88 81 82 89 89 91 95 90 93 97 93 91 88 87 83 76 74 64 65 58 61 70 77 67 66 87 93 95 88 79 81
85 87 89 92 91 90 93 97 98 98 98 93 88 87 88 89 91 96 96 97 99 98 96 93 90 83 90 89 90 95 91 89 92 91 96 95 89 80 80 74 70 65 66 64 63 59 74 86 92 90 90 84 86 84
91 94 96 96 95 93 91 94 94 95 97 97 97 96 96 98 99 98 97 97 99 99 96 89 85 87 86 90 90 91 90 91 89 94 96 93 87 85 77 76 71 68 66 61 58 50 55 66 81 81 80 82 83 87
98 98 97 96 95 96 96 92 91 92 94 93 96 97 98 98 98 99 99 97 98 96 95 89 86 78 79 86 89 92 94 95 96 98 94 90 84 83 75 75 70 67 65 63 61 56 52 55 58 68 76 73 73 90
99 98 98 96 94 96 94 96 95 92 95 94 94 95 96 98 98 99 97 96 98 99 97 92 85 81 78 84 88 90 91 94 96 96 93 88 84 86 79 69 65 64 62 59 57 54 51 44 52 66 69 73 67 83
98 96 94 89 90 90 90 91 93 97 96 95 96 97 97 96 98 96 95 85 93 99 99 97 87 79 80 84 88 89 93 96 97 94 90 88 83 86 77 68 61 62 58 55 51 49 47 45 48 61 72 73 68 79
95 90 84 79 77 77 76 75 76 80 83 96 99 98 98 99 99 98 95 90 92 99 98 97 90 80 73 73 77 81 86 90 92 91 88 88 84 86 78 64 63 63 60 54 52 53 48 43 42 46 63 77 75 75
94 90 83 76 72 71 68 67 70 75 81 86 98 99 99 98 97 98 95 96 96 97 93 86 82 84 79 75 74 76 79 82 80 83 83 86 81 75 61 61 60 62 64 62 58 56 48 43 44 46 58 74 78 75
93 82 81 83 78 74 67 70 71 71 76 94 99 98 97 96 97 98 99 98 98 97 90 85 78 82 78 83 85 88 89 79 74 63 67 84 70 65 64 60 56 64 65 64 64 58 47 48 45 50 56 70 83 83
85 86 83 84 84 75 73 74 87 88 83 93 98 95 94 99 98 98 98 97 92 88 80 76 75 81 85 89 94 92 98 88 76 68 75 60 49 55 62 64 64 63 67 67 68 62 54 49 48 57 66 68 78 85
90 89 86 89 86 92 97 93 99 92 80 90 86 91 98 98 98 95 91 88 81 75 73 74 76 81 83 84 93 92 94 98 93 87 88 66 72 71 73 74 72 69 66 65 65 61 55 52 49 54 75 79 80 90
88 86 89 93 88 96 96 98 98 91 97 95 91 98 96 93 89 83 78 78 75 71 75 76 78 82 86 89 91 95 94 91 85 88 79 77 87 80 83 84 81 73 68 66 66 63 59 53 49 49 69 91 91 91
89 87 93 97 94 99 97 96 97 97 96 89 90 88 87 81 79 77 70 71 73 76 76 77 83 89 89 88 90 86 94 93 89 87 85 91 93 94 93 87 81 76 73 71 66 62 58 54 51 48 66 94 93 95
91 88 91 96 94 91 94 95 94 91 85 83 80 83 80 76 75 72 72 74 77 84 85 91 91 95 93 97 92 91 95 94 86 87 90 92 92 89 85 80 78 76 75 74 69 65 62 60 59 55 59 95 97 97
92 88 84 83 81 81 80 81 82 78 77 80 79 78 76 74 76 75 77 85 89 87 90 93 97 97 98 98 93 93 94 85 89 90 90 90 90 88 90 89 81 78 75 72 73 70 67 66 66 70 70 79 97 98
95 89 85 80 82 81 79 77 78 78 77 77 79 76 75 77 80 84 82 84 82 85 88 90 89 88 89 91 91 89 89 91 92 92 93 96 95 90 89 89 83 78 78 75 73 75 77 80 88 84 83 86 93 97
92 91 90 86 89 84 77 78 82 85 88 84 79 77 76 78 78 79 79 81 83 86 86 86 86 85 89 87 86 89 90 93 93 93 93 96 97 94 94 91 86 78 76 79 80 85 89 96 96 86 93 97 96 97
86 87 85 85 84 81 81 82 85 91 95 93 89 85 84 83 82 82 82 83 84 89 91 93 94 93 95 95 96 97 97 96 96 96 96 96 96 96 94 93 90 87 80 82 93 96 96 95 94 95 97 97 96 97
80 81 81 79 77 74 80 77 78 81 88 93 95 94 94 94 92 92 93 96 97 97 97 96 96 97 97 97 97 98 97 97 97 96 97 96 96 97 97 96 93 91 90 91 96 97 96 97 97 97 97 97 97 97
61 64 66 67 65 67 75 75 75 78 82 87 92 90 92 93 93 93 94 94 94 97 97 98 98 98 97 97 97 97 98 97 97 97 97 95 95 97 98 97 97 97 96 97 97 97 97 97 97 97 97 97 93 79
60 62 64 66 66 66 69 73 79 84 91 90 90 94 97 97 97 97 97 96 97 98 98 98 98 97 97 97 98 97 97 98 95 95 96 92 93 94 95 98 97 97 97 97 97 97 97 97 97 97 88 77 69 66
62 66 72 73 71 71 77 84 92 97 95 97 96 95 96 97 97 97 97 98 98 99 98 98 98 97 97 98 98 98 95 92 90 89 89 91 91 90 92 95 97 97 98 97 97 98 97 94 84 74 69 64 58 56
75 75 76 74 75 80 86 93 95 95 96 95 94 95 96 97 97 95 96 98 99 99 99 99 98 98 98 98 99 98 96 95 94 94 94 94 92 92 95 97 98 98 98 98 95 87 79 73 68 63 58 56 55 54
75 81 83 84 89 90 92 92 90 87 91 90 89 93 96 96 94 94 96 97 98 99 98 99 99 98 98 97 98 98 98 98 98 98 97 98 97 97 97 98 97 96 89 81 74 70 68 65 62 59 58 58 57 56
63 69 70 74 74 72 73 70 69 71 74 75 76 72 72 72 74 80 84 90 95 97 98 98 98 98 98 98 98 98 98 98 98 98 98 97 97 98 97 92 89 86 82 78 72 69 68 67 67 67 66 61 58 56
52 57 57 59 59 58 58 58 58 59 61 63 61 57 58 62 63 66 70 72 74 78 82 86 88 92 96 98 98 98 98 98 98 98 98 98 95 93 91 87 84 82 82 81 79 79 74 70 69 65 61 59 58 56
43 44 43 45 42 42 41 42 43 46 47 48 47 50 51 53 56 61 65 66 67 67 67 69 72 75 77 78 83 88 93 96 98 98 98 98 97 94 91 84 83 84 81 77 74 70 69 68 66 63 60 58 57 54
41 41 38 40 39 42 44 45 46 46 47 47 47 49 51 56 59 63 65 67 67 67 67 68 69 72 75 77 77 78 80 85 88 87 88 88 89 91 90 89 85 82 79 74 72 70 68 64 62 60 60 59 57 55
40 39 38 41 44 47 48 48 47 46 47 48 49 53 56 58 60 63 65 67 68 68 69 70 71 74 76 78 78 78 80 82 86 88 87 83 83 82 77 77 78 80 79 76 72 70 67 64 64 63 62 58 55 54
40 40 40 42 46 48 47 45 45 45 45 47 50 53 55 57 60 62 65 66 67 67 68 68 69 71 73 76 77 78 78 81 83 84 83 82 81 80 79 79 79 77 75 73 73 71 69 66 65 63 60 57 56 55
38 37 37 41 44 45 44 44 44 45 46 46 47 48 51 54 56 59 62 64 67 68 68 68 69 68 67 67 68 70 69 69 69 70 71 71 73 73 72 71 69 67 66 64 62 62 61 60 58 56 56 55 53 51
36 36 37 38 41 41 40 41 41 43 44 45 47 48 50 52 55 57 60 62 65 64 63 62 61 60 58 57 58 59 59 59 59 58 58 58 59 59 60 59 59 57 57 56 55 55 55 55 55 54 52 51 49 45

GFSWCAN_prec_cthk_099.txt.gz
RH
48 59 69 79 86 91 95 97 97 91 83 72 66 63 56 59 63 67 77 85 84 87 86 85 85 96 96 94 94 93 94 91 99 96 90 83 90 80 76 73 91 91 94 90 77 87 86 67 52 65 72 76 77 76
52 64 80 87 93 97 98 98 98 98 84 73 62 58 60 62 64 66 75 82 91 94 86 79 71 78 83 93 96 89 91 91 99 97 88 94 91 84 80 82 70 89 76 84 83 75 71 70 78 85 72 76 80 77
73 82 81 84 89 94 95 96 97 98 97 83 71 58 55 60 66 68 76 89 92 95 92 92 85 81 77 73 78 88 86 89 93 98 98 97 97 86 88 76 75 77 72 67 66 67 72 74 73 71 88 90 88 83
76 75 87 95 98 98 98 98 98 97 97 95 85 75 64 58 63 69 81 84 94 97 97 84 83 84 82 85 85 85 85 90 96 96 98 97 93 84 84 87 79 77 77 74 72 72 72 71 73 81 84 82 82 83
80 91 96 98 99 99 99 99 97 98 97 97 97 89 82 77 82 96 98 97 97 94 95 94 92 87 84 82 86 93 94 96 97 98 96 93 87 87 81 80 77 73 72 73 73 74 73 67 70 71 71 72 83 79
93 94 97 98 99 99 98 97 99 97 98 94 97 97 94 98 99 99 98 98 97 98 98 96 92 93 90 90 89 91 94 96 98 97 93 86 81 87 85 74 70 75 76 71 70 67 64 58 53 57 62 78 77 77
95 96 96 94 95 90 94 98 97 98 96 96 93 97 96 98 99 97 96 87 89 99 98 97 86 87 87 86 91 93 93 96 98 96 91 86 83 88 82 77 74 70 67 67 64 63 59 58 58 53 50 62 70 76
96 96 89 83 80 80 80 87 95 98 97 96 97 96 98 99 99 99 98 90 94 99 99 98 89 92 87 86 89 87 89 92 96 94 91 86 80 81 75 64 63 67 67 63 63 64 66 61 55 47 46 51 62 79
93 92 85 82 78 74 72 78 85 90 97 99 99 98 99 98 97 95 98 96 97 97 96 89 85 86 84 82 81 83 78 83 77 85 81 78 78 74 65 62 61 64 63 61 66 65 66 66 60 51 46 50 56 64
82 77 76 76 76 79 79 77 84 90 93 99 99 98 98 97 97 98 99 98 98 98 97 87 78 87 79 79 77 80 81 76 71 67 66 70 66 63 59 59 59 65 64 65 61 59 63 66 65 55 49 46 53 58
88 84 78 82 82 77 76 80 85 92 96 99 98 98 95 96 98 98 98 97 95 92 82 78 82 88 84 81 80 81 92 86 81 65 67 59 52 60 54 53 61 65 65 65 61 61 62 64 61 54 48 49 51 58
88 85 81 79 79 76 73 79 83 77 95 94 89 96 96 98 97 95 96 93 85 77 75 73 76 82 92 88 98 95 90 91 86 87 84 69 77 74 74 69 61 63 67 66 63 63 64 62 62 58 53 51 50 66
94 88 86 85 90 94 98 95 90 83 98 97 96 98 96 95 93 84 82 80 77 76 78 72 78 85 90 87 91 94 95 85 87 89 76 80 81 79 77 77 70 68 71 70 69 67 65 65 63 58 54 53 52 66
96 95 95 97 97 98 99 99 94 96 99 97 96 95 95 85 82 82 69 71 74 72 71 72 78 79 83 86 89 88 83 87 86 79 77 77 79 88 91 90 81 74 74 78 79 75 70 67 66 62 60 56 52 56
97 96 98 97 97 97 97 97 96 90 88 88 86 88 84 78 75 73 73 73 72 73 76 79 80 86 91 93 88 88 94 84 89 92 85 85 89 95 95 96 96 91 87 82 78 76 75 73 70 65 60 56 54 56
95 95 91 95 95 98 95 96 91 84 84 83 84 85 80 74 73 73 71 72 74 76 83 88 94 93 96 94 95 90 86 86 87 89 87 89 92 94 94 93 91 91 92 85 80 75 73 73 70 66 64 63 62 64
91 92 90 86 83 82 85 85 84 84 85 83 83 79 79 76 74 73 74 75 81 88 92 95 97 96 94 95 91 86 83 84 89 90 91 92 94 96 94 92 91 93 91 86 84 85 79 76 74 74 72 70 71 74
92 91 90 90 92 85 81 80 78 80 82 83 80 78 76 76 76 78 79 84 85 84 85 87 87 88 86 81 79 85 88 88 89 89 90 93 96 95 95 95 93 94 94 88 82 83 81 79 78 80 84 88 85 83
91 93 94 90 92 88 85 92 90 84 87 81 79 77 76 77 78 79 80 81 83 85 85 87 87 83 83 82 85 89 93 93 94 95 96 96 96 97 97 97 97 95 93 90 81 80 83 84 87 88 97 90 89 94
88 89 87 85 83 82 80 88 89 88 86 83 83 80 80 80 79 78 79 81 82 83 83 85 89 92 93 96 97 98 97 97 97 97 97 97 96 95 97 96 95 93 90 90 88 81 81 86 90 93 95 96 90 95
74 75 75 73 74 76 83 80 83 87 90 91 88 85 86 85 87 89 90 92 94 97 97 98 98 98 97 97 97 97 97 97 98 98 97 96 95 95 96 95 95 95 94 93 89 88 93 96 95 95 97 97 97 97
68 68 69 68 70 71 78 82 83 84 85 89 92 90 92 93 94 96 98 97 97 98 98 98 98 98 98 97 97 97 97 97 98 98 98 98 98 99 95 94 96 97 97 98 98 97 97 97 97 97 97 97 93 87
66 68 73 76 74 73 79 86 90 94 95 93 94 94 96 96 97 97 96 98 98 99 98 98 98 97 97 97 98 98 95 91 92 92 94 95 95 95 94 95 98 98 98 98 97 97 97 97 97 97 89 79 70 63
67 74 79 76 76 78 83 92 94 94 96 95 93 95 95 96 96 95 96 97 98 99 99 98 98 98 98 98 98 98 94 94 95 93 92 92 94 94 93 95 98 98 98 98 98 98 98 94 87 79 74 70 66 63
78 78 81 83 88 91 93 93 93 88 89 88 90 93 95 94 92 92 94 96 98 98 98 98 98 98 97 97 97 98 98 98 98 99 97 95 96 96 95 97 98 97 98 98 96 91 85 79 76 71 68 66 64 62
80 84 84 84 84 79 76 74 75 74 72 71 73 73 74 72 73 78 82 89 93 95 97 98 99 98 98 98 97 97 97 97 97 98 98 98 98 98 98 98 94 92 86 83 80 76 75 72 67 67 69 68 68 68
59 63 65 65 64 62 64 64 63 64 64 64 64 63 62 62 63 64 67 69 70 73 76 80 83 85 88 92 95 97 97 97 97 98 98 98 98 98 98 98 96 95 91 85 82 81 78 77 78 73 69 67 64 61
45 46 47 47 44 43 43 43 44 48 49 50 51 53 53 54 57 62 66 66 68 68 68 69 71 74 77 78 78 79 83 89 93 96 98 98 99 98 96 96 92 92 93 90 87 84 80 76 71 69 68 66 62 60
45 44 40 42 40 42 45 47 48 47 48 50 49 50 52 57 61 64 67 68 69 70 70 71 71 74 76 77 77 77 78 81 84 87 88 88 89 90 90 94 96 92 88 84 81 79 77 74 71 69 65 62 61 60
45 44 42 43 45 47 48 47 48 47 47 48 49 52 55 58 61 63 65 67 68 69 70 71 73 75 77 78 79 79 80 82 86 88 89 89 89 88 86 83 81 85 86 81 77 74 72 71 68 67 65 64 63 62
46 43 42 44 47 48 47 46 46 46 45 45 47 49 52 54 56 59 62 64 65 66 67 68 69 71 73 75 77 78 78 80 83 86 88 88 86 85 87 88 88 86 83 80 77 76 75 77 74 69 67 65 61 58
44 41 39 41 45 45 43 47 45 44 45 44 45 47 49 50 53 56 58 60 63 66 67 68 68 66 66 67 68 70 70 70 71 70 72 72 74 74 74 74 73 71 69 66 64 62 59 59 60 59 55 53 51 51
41 39 39 40 41 41 40 40 40 41 42 43 45 47 49 50 52 55 58 59 62 62 60 60 59 58 57 57 57 58 58 59 58 58 58 57 57 57 56 56 56 57 57 57 57 55 54 53 52 52 52 52 51 51

GFSWCAN_prec_cthk_102.txt.gz
RH
38 33 32 40 48 61 75 84 86 88 91 86 81 70 69 66 65 68 75 79 86 80 81 75 78 89 91 92 90 98 93 88 94 94 88 79 77 78 78 75 97 91 91 88 81 84 80 57 55 64 71 76 89 84
38 33 35 43 53 72 82 87 91 95 95 84 74 69 67 65 61 62 67 70 79 84 79 77 80 78 82 87 93 93 97 96 99 98 94 97 95 88 89 90 86 97 74 86 75 73 70 69 72 74 67 61 71 74
29 27 33 46 73 78 77 84 93 97 97 95 81 70 64 63 62 61 62 71 86 91 89 82 66 66 68 74 80 83 81 87 89 98 98 98 96 95 98 87 93 80 85 84 91 80 89 84 73 68 67 69 65 62
30 33 45 72 74 78 88 94 97 98 98 97 91 77 66 58 59 59 65 78 93 97 92 74 76 75 74 70 70 74 80 77 80 92 96 96 93 87 92 95 96 89 80 79 77 71 67 80 76 78 70 71 72 76
32 56 74 72 81 90 95 98 98 98 98 97 97 88 76 61 58 60 76 89 96 96 91 92 91 85 77 77 74 75 82 89 86 95 97 97 90 90 86 84 80 77 75 75 84 90 84 84 82 71 73 74 84 86
72 79 79 88 92 97 98 99 98 99 98 98 97 97 87 75 61 74 92 91 92 96 97 92 88 91 89 89 89 87 83 89 96 96 95 92 85 91 90 82 74 79 82 77 81 81 74 70 64 64 66 75 75 80
84 90 93 94 96 98 98 97 97 99 98 98 98 97 94 84 78 82 86 84 85 96 98 95 83 76 82 91 93 92 89 94 98 96 92 89 85 89 94 86 75 73 79 75 70 66 60 62 61 63 57 55 59 69
97 96 97 97 93 88 89 89 92 98 98 99 98 97 98 98 99 97 95 99 97 98 98 96 88 86 87 91 92 90 94 96 97 94 91 87 82 83 83 73 69 68 68 69 73 70 72 72 76 62 61 57 52 55
98 97 94 91 87 83 79 79 87 98 98 98 98 98 99 98 97 96 98 98 98 98 97 91 84 85 91 90 94 94 89 89 86 89 83 80 79 81 71 65 66 70 70 66 64 72 74 62 70 68 63 51 53 50
91 86 82 78 76 77 77 77 80 95 99 99 99 96 96 94 92 97 99 99 99 99 97 91 80 84 90 87 95 90 88 86 81 70 67 69 64 57 60 62 61 63 67 67 70 69 68 62 63 76 74 61 51 47
87 87 83 79 76 80 81 81 81 97 99 98 97 97 94 94 97 99 98 98 97 95 85 82 78 83 90 93 89 84 85 84 83 69 72 69 66 77 70 66 61 60 62 65 68 69 67 63 62 60 66 63 53 50
90 83 77 76 80 86 86 86 85 94 97 96 90 94 97 98 98 98 97 94 90 81 77 73 74 79 91 89 88 84 82 85 77 78 90 77 79 75 74 71 68 65 66 65 66 67 66 65 63 65 64 63 60 56
85 86 82 75 79 90 88 91 88 97 99 99 97 98 97 96 96 88 87 83 80 79 80 73 85 84 88 88 88 89 90 79 74 86 85 90 85 81 76 74 73 71 69 65 63 65 65 66 64 65 66 67 62 58
89 91 84 87 95 97 94 97 99 99 98 98 98 96 96 88 85 78 78 74 80 79 72 74 79 81 88 89 86 85 81 85 84 84 81 83 84 84 82 79 82 84 78 70 66 65 68 70 71 70 69 68 68 63
92 87 91 98 98 98 98 93 98 97 93 92 90 92 89 81 82 78 80 83 81 75 72 76 78 78 86 84 81 81 87 83 82 83 84 90 87 85 83 81 89 91 90 91 82 77 72 74 76 75 72 70 69 65
92 97 98 98 97 97 98 98 93 91 89 86 89 88 86 83 76 78 76 77 76 74 74 79 82 87 87 83 88 82 80 83 81 88 90 90 90 87 89 92 94 94 94 92 94 90 85 82 77 74 72 70 69 67
93 97 97 98 99 93 87 88 89 91 92 88 89 87 81 79 76 74 74 74 74 77 80 85 90 86 92 89 95 91 85 83 86 87 89 91 92 92 92 93 94 93 92 92 94 95 92 88 85 82 78 75 74 72
97 94 92 88 87 88 85 82 84 86 89 87 84 84 82 82 79 76 74 74 77 81 83 86 90 91 88 85 82 85 87 88 87 90 89 89 89 89 91 94 95 96 95 93 93 95 94 89 90 87 82 79 77 76
94 95 94 98 96 95 89 88 85 84 86 85 83 80 79 78 75 75 76 78 81 84 86 87 86 84 85 86 87 87 86 87 88 89 92 90 90 92 92 92 95 95 95 95 95 95 90 85 89 88 85 84 85 86
96 98 97 96 92 88 89 91 81 79 81 80 78 77 76 76 77 77 78 79 82 83 83 83 83 85 87 88 90 90 90 92 96 97 94 95 94 92 92 91 92 92 92 93 93 94 94 88 81 83 86 90 89 91
88 88 88 87 87 87 89 92 90 89 85 82 80 77 77 75 75 77 79 80 80 81 82 84 87 90 92 94 96 97 97 97 98 98 97 95 95 95 93 92 90 90 94 93 94 93 92 91 90 89 95 95 97 98
78 79 79 75 78 82 86 85 87 88 87 84 85 81 81 81 82 86 91 93 95 96 97 98 98 97 98 97 97 97 97 97 97 98 97 98 98 97 98 96 94 93 95 96 97 96 96 94 95 98 98 98 97 97
70 73 79 82 82 82 90 91 90 90 90 91 92 92 94 95 97 97 97 97 98 98 98 98 98 97 97 97 97 97 97 97 95 94 94 94 96 98 98 98 98 97 97 98 98 98 97 96 98 97 98 98 98 93
67 75 85 81 79 87 86 89 92 95 97 96 95 96 96 97 97 96 97 98 98 98 98 98 98 99 98 98 98 98 96 95 96 94 93 93 94 96 97 98 97 98 98 98 98 98 98 98 98 96 88 82 75 70
75 81 82 85 86 88 94 95 95 92 95 92 92 95 96 97 94 95 96 98 98 99 99 98 98 98 98 98 99 99 98 98 98 97 97 96 96 96 95 96 98 98 98 98 98 98 98 97 89 82 78 75 69 64
82 85 90 92 90 87 85 84 81 76 73 74 75 75 76 74 74 80 84 89 94 97 98 98 98 98 98 98 98 98 98 98 98 97 98 97 98 98 98 98 98 98 97 95 92 89 85 80 78 75 71 69 68 70
68 72 72 71 69 68 68 68 66 65 65 65 65 66 64 63 64 66 69 71 71 71 72 74 75 77 79 80 84 88 93 96 98 98 99 99 99 98 98 98 98 98 98 95 89 87 83 80 80 82 82 80 75 71
47 51 55 53 53 52 51 52 51 51 52 55 53 54 54 57 59 65 67 69 69 70 71 72 73 75 77 78 78 78 79 79 81 84 89 91 94 97 99 99 98 98 96 97 96 95 92 89 83 80 75 72 71 71
49 49 45 46 43 44 49 49 50 48 49 52 49 50 53 57 61 64 67 69 70 70 71 72 72 74 76 78 79 79 79 80 82 85 88 89 89 89 89 90 92 94 93 91 90 87 85 84 82 81 79 74 71 69
45 45 42 43 45 48 51 51 50 48 47 47 48 51 54 57 59 61 63 65 66 67 67 68 69 70 72 75 77 79 80 81 83 86 90 90 90 90 91 91 92 93 87 83 82 80 78 75 72 71 70 68 67 66
47 44 42 45 49 50 48 47 46 45 45 45 46 47 49 51 53 55 56 60 62 64 65 66 67 69 70 72 74 76 77 78 78 81 84 87 88 88 87 90 94 96 94 91 88 85 81 82 79 76 76 74 69 67
46 44 41 44 46 45 47 50 48 47 45 43 42 45 47 50 51 54 55 57 59 62 64 66 67 68 68 67 68 67 68 69 70 70 71 72 73 75 76 75 76 75 73 71 69 67 67 68 66 64 61 59 56 56
46 42 40 40 43 45 42 46 43 43 45 44 43 45 46 48 49 52 55 57 58 60 61 62 60 55 55 55 58 58 56 56 56 57 56 57 57 57 56 56 56 56 58 59 58 56 56 57 57 55 54 53 50 49

GFSWCAN_prec_cthk_105.txt.gz
RH
43 44 45 43 38 37 40 44 52 72 87 94 94 89 81 66 74 70 65 75 84 82 71 83 79 76 80 86 95 97 92 96 95 89 88 85 87 84 86 76 85 97 70 64 73 85 79 62 60 68 78 69 59 56
46 45 45 46 43 42 45 50 71 83 88 91 91 80 71 65 66 70 62 68 75 79 78 75 72 69 74 76 80 89 98 98 98 98 99 98 95 92 93 96 98 94 75 76 66 62 72 77 76 83 77 67 60 55
49 50 50 43 35 31 36 58 77 79 86 91 95 84 69 60 60 66 66 67 76 76 73 66 63 70 71 69 71 76 83 90 85 88 93 92 98 98 95 96 96 98 95 97 87 77 80 78 83 78 73 63 58 63
52 53 48 40 36 34 45 72 78 87 91 93 97 93 77 63 58 63 65 64 66 75 77 73 74 70 67 64 62 66 74 74 79 81 84 89 88 85 87 86 91 89 95 97 97 95 94 95 89 79 71 67 65 71
57 54 40 30 30 48 73 75 85 92 95 97 97 97 88 71 61 63 64 66 68 83 90 87 81 74 70 66 67 67 72 78 84 92 91 92 89 86 85 86 85 90 93 95 99 95 96 86 77 74 71 72 78 79
54 43 33 33 53 76 79 89 95 98 98 98 98 98 97 81 69 69 71 65 78 95 97 93 83 85 88 82 77 77 79 78 82 94 95 91 87 91 92 87 75 76 77 85 85 82 79 76 78 75 75 76 77 78
43 37 52 74 83 87 92 97 99 99 99 98 98 98 98 91 73 61 59 75 83 94 96 94 85 74 79 82 88 93 91 96 94 95 97 93 87 91 93 88 74 72 71 71 75 79 80 80 75 76 75 68 67 65
55 77 91 94 97 97 97 98 98 98 98 99 98 98 98 98 85 63 80 88 88 92 93 93 82 78 82 87 96 94 98 97 96 98 96 92 90 89 90 74 75 73 73 73 74 81 79 81 75 87 83 72 65 54
97 98 98 98 99 98 98 95 93 97 98 98 99 98 99 95 76 71 80 90 98 97 94 86 85 87 84 90 95 96 94 98 96 92 91 93 88 85 73 74 78 79 80 78 74 77 77 75 82 77 75 69 71 60
98 99 99 98 98 96 92 87 84 93 99 99 99 96 94 88 91 93 99 98 97 96 91 85 83 81 83 88 96 99 96 96 92 81 79 77 72 74 71 70 70 72 74 73 72 71 73 74 73 68 59 65 69 66
96 94 92 92 90 91 90 89 86 98 99 98 95 95 90 92 96 99 98 96 94 92 81 81 81 84 82 87 95 92 90 89 86 78 81 84 85 81 76 74 71 71 71 71 70 69 69 68 66 64 62 59 62 63
92 90 91 88 86 83 81 82 84 88 96 93 90 94 96 98 98 97 96 93 89 82 78 78 80 79 85 91 96 91 87 84 79 81 91 87 88 86 81 80 75 74 71 70 69 69 68 66 65 65 65 63 65 66
89 85 82 82 84 87 87 85 85 96 98 98 97 98 96 95 96 91 89 86 85 75 76 76 77 82 91 91 95 92 87 81 76 86 88 89 94 91 87 85 78 75 73 72 69 66 64 62 62 64 65 68 69 69
82 81 78 79 89 98 98 95 95 99 99 97 98 97 96 86 85 79 74 70 74 79 79 81 86 88 87 91 88 85 80 82 83 86 81 81 87 90 88 86 85 78 73 74 74 71 68 64 61 62 63 67 69 70
87 84 90 98 99 99 99 98 96 98 97 97 92 95 91 81 78 78 80 82 85 83 82 81 82 82 88 86 83 81 81 78 77 75 79 87 88 89 88 84 82 83 84 84 83 78 79 78 71 66 65 70 72 73
92 90 98 98 97 96 98 96 99 94 90 89 89 91 89 87 84 84 85 86 87 85 81 78 79 80 79 79 79 78 80 81 78 86 90 87 90 91 91 91 90 89 87 88 87 87 87 89 83 77 76 74 74 75
95 94 97 98 98 98 96 98 96 95 93 90 93 91 87 84 84 81 80 80 81 82 79 77 77 78 82 83 84 85 84 85 84 87 87 87 86 86 90 91 90 89 89 89 91 91 91 92 95 94 87 86 84 81
95 97 98 95 94 94 95 94 94 92 93 91 90 88 85 84 82 79 77 77 77 77 77 80 81 84 86 83 83 87 91 91 92 91 87 83 83 83 84 85 85 86 87 89 92 93 94 94 96 96 94 93 90 88
97 97 95 94 93 90 89 90 87 90 91 89 88 84 82 82 81 78 76 75 76 76 78 83 83 85 88 90 92 92 93 92 91 91 90 84 82 83 86 87 85 85 87 87 91 91 92 94 96 95 97 97 97 95
98 98 97 98 93 87 89 91 86 88 89 88 85 85 83 83 81 80 78 79 80 84 85 84 85 88 92 92 93 92 93 91 91 90 86 87 88 87 87 88 87 86 86 86 87 88 91 95 96 96 92 93 96 96
96 97 95 93 91 88 93 85 84 87 89 87 84 81 82 79 79 79 80 81 81 83 83 84 86 86 87 87 89 91 93 93 94 96 97 95 93 93 93 95 93 92 89 89 89 90 93 95 94 94 92 91 90 93
89 89 87 84 86 88 90 91 87 85 84 84 86 82 81 80 79 78 78 79 83 86 89 91 92 94 96 97 97 97 98 97 97 97 97 98 97 97 97 98 97 97 93 91 92 95 97 97 98 96 95 96 98 98
79 83 86 87 86 86 94 94 92 90 86 85 82 82 84 83 85 85 88 92 96 98 98 98 98 98 98 97 98 98 98 97 97 96 94 93 93 95 98 98 98 98 97 95 98 98 98 98 98 98 97 98 98 98
72 80 88 87 88 90 87 90 90 92 92 93 95 97 97 97 97 97 97 98 98 98 98 98 98 98 98 97 97 97 98 97 97 97 96 92 91 91 93 94 96 97 97 97 98 98 98 98 98 98 98 98 98 98
76 86 85 86 89 90 92 96 97 95 97 97 97 97 98 97 97 97 98 98 98 98 98 98 98 98 98 98 97 98 97 98 97 97 98 98 98 95 93 93 94 96 97 98 98 98 98 98 97 91 85 80 74 71
86 88 93 94 94 93 93 89 85 83 80 79 80 78 77 76 78 83 84 86 89 92 94 95 97 96 96 96 97 97 98 98 98 97 98 98 98 99 98 98 98 98 98 98 98 98 96 91 86 81 78 75 72 69
76 78 75 72 71 69 72 70 66 65 68 69 67 67 66 68 71 70 70 70 70 71 72 73 75 77 79 80 80 81 81 82 85 88 92 96 98 98 98 98 98 99 98 97 94 92 87 85 81 79 80 82 84 83
56 57 59 57 58 58 58 55 54 56 58 58 56 58 58 59 60 65 68 69 71 71 72 72 72 73 75 76 79 80 80 80 80 82 85 87 88 88 89 91 95 98 99 98 96 93 93 94 92 89 84 82 79 77
52 52 48 49 45 47 50 51 52 51 51 52 53 54 55 57 60 64 67 69 68 68 69 69 70 71 71 72 74 77 80 80 81 81 84 88 89 89 89 90 91 93 95 97 98 96 94 92 89 89 88 86 83 82
46 44 42 45 48 51 52 47 47 45 44 45 48 50 52 56 57 58 59 61 62 63 65 65 66 66 68 70 72 75 77 78 78 80 82 85 88 89 90 90 90 89 88 89 89 86 84 83 81 78 74 73 73 73
42 41 43 48 53 53 49 47 46 45 43 41 42 43 45 48 51 53 54 56 57 59 62 64 66 67 68 70 72 74 76 78 78 78 79 81 84 88 89 89 89 89 88 86 82 82 84 84 82 80 79 77 74 70
40 41 44 50 52 50 50 51 46 44 43 42 43 43 46 48 49 51 53 54 56 56 58 58 58 59 59 60 61 63 65 67 68 69 70 70 70 71 72 74 75 75 74 74 73 73 72 70 68 65 61 59 58 55
46 44 43 44 48 48 46 46 41 43 41 42 43 45 44 46 48 49 51 53 54 54 52 51 52 53 54 55 54 55 55 54 54 55 55 56 56 56 57 57 56 56 55 55 54 54 55 56 56 54 53 51 50 49

GFSWCAN_prec_cthk_108.txt.gz
RH
45 42 40 35 35 38 42 43 39 45 46 51 76 94 97 90 79 74 75 77 83 80 79 76 76 76 73 75 82 80 82 92 91 92 88 86 88 87 90 82 94 98 97 94 73 84 76 64 73 76 83 78 77 77
51 46 44 43 44 43 43 40 40 42 46 62 86 94 96 82 73 69 72 72 71 75 68 76 72 77 77 73 76 77 80 88 96 96 96 94 97 96 97 97 92 97 95 79 58 56 59 74 77 86 84 74 64 62
53 49 48 46 44 45 49 44 43 49 61 76 87 92 92 75 68 64 70 71 71 70 66 64 66 68 62 66 72 75 74 77 87 91 88 86 91 86 96 91 94 98 95 90 72 68 66 76 79 82 85 73 69 69
53 51 51 48 46 48 47 39 38 43 63 84 85 92 93 77 67 64 66 70 72 70 73 60 65 65 67 65 65 63 64 72 79 83 90 87 88 88 89 87 91 98 98 99 94 96 95 85 86 81 76 71 67 72
53 54 53 47 50 50 47 44 39 56 75 86 91 94 96 90 75 68 67 67 73 68 67 70 70 68 67 66 64 68 69 72 78 82 87 88 88 87 88 90 91 95 94 89 97 98 95 88 79 74 72 71 72 77
53 54 53 53 54 51 41 35 50 72 87 93 97 97 98 97 83 72 70 65 67 66 77 83 74 74 74 76 76 74 73 73 78 82 87 90 86 94 97 96 81 79 77 81 83 80 81 81 83 79 74 81 82 74
71 62 56 55 54 48 39 52 72 88 93 97 98 98 98 98 91 73 63 57 56 80 95 91 82 80 85 80 74 78 82 86 89 90 87 86 86 93 92 89 77 75 78 78 78 79 86 84 81 83 84 85 81 77
64 58 55 55 48 52 67 81 91 94 98 98 98 98 98 99 95 83 63 68 74 95 95 92 85 80 75 84 91 94 97 98 97 98 94 93 91 93 96 90 84 82 82 82 84 84 87 85 86 87 89 92 82 74
61 61 56 56 71 84 94 97 97 97 98 99 99 99 99 95 94 76 69 95 96 94 89 90 89 84 84 91 95 99 98 98 97 98 96 97 95 96 93 88 85 85 86 86 88 85 84 85 85 86 84 81 72 68
45 59 92 98 98 98 98 98 99 98 99 99 99 96 91 91 94 78 89 97 97 92 90 87 83 84 84 89 93 98 97 96 97 94 92 90 87 84 82 83 84 82 81 81 79 81 80 80 78 77 75 73 71 68
98 98 98 98 98 98 98 98 94 98 99 98 96 92 91 95 92 82 93 92 88 84 78 75 78 82 80 87 92 93 95 95 94 87 89 90 91 89 85 81 80 80 78 78 79 78 76 73 70 69 68 70 70 68
98 98 98 97 98 98 98 97 91 93 97 92 90 95 97 98 91 93 96 92 86 78 72 75 75 77 83 88 90 96 92 87 85 89 95 89 86 89 87 83 82 81 76 75 73 72 72 71 69 66 64 64 67 69
94 91 90 92 95 96 98 96 93 99 98 97 98 98 96 96 96 91 90 85 76 67 71 76 83 84 90 90 97 94 93 89 83 89 83 81 85 92 90 86 83 81 77 75 73 71 69 68 67 65 63 62 62 65
85 89 93 95 93 92 88 89 95 98 98 97 97 96 95 90 89 77 69 64 64 69 78 83 87 86 88 92 93 89 87 91 89 82 78 83 82 80 83 86 86 82 78 75 74 73 71 71 71 71 67 63 60 60
79 81 88 93 95 97 94 91 87 95 95 98 93 92 90 84 81 79 75 77 78 77 78 84 89 89 95 93 87 86 84 79 76 73 76 81 85 88 87 86 84 82 81 79 77 75 74 74 76 76 75 72 69 65
85 98 98 98 99 99 97 92 89 95 95 88 85 88 87 84 82 83 84 85 86 86 84 85 88 87 88 85 80 77 80 76 76 81 82 88 89 83 83 84 85 86 86 84 84 81 83 85 84 83 83 84 80 76
95 92 96 96 98 98 99 97 97 98 94 90 91 90 89 87 88 88 89 90 90 89 87 84 82 79 80 82 78 77 76 85 90 88 84 81 80 82 84 81 79 82 85 84 84 83 83 86 88 90 89 90 93 90
84 93 97 97 96 99 98 98 97 94 91 92 92 92 91 90 89 86 84 86 88 85 84 85 82 80 80 78 80 81 84 90 92 91 89 86 82 80 78 77 76 76 76 78 78 80 81 84 87 89 92 94 95 96
91 91 95 98 97 95 97 96 88 91 93 92 93 90 91 92 89 88 87 86 85 83 81 77 79 79 80 80 81 84 87 87 89 88 89 87 84 81 80 78 78 77 78 80 81 81 82 83 85 88 93 96 97 97
98 96 94 95 86 89 92 94 91 90 93 93 92 93 91 90 89 87 85 83 82 81 80 78 78 81 83 85 86 87 88 88 87 87 87 86 85 86 87 88 88 87 86 86 85 84 83 85 87 88 95 97 97 97
98 98 98 94 88 86 84 85 88 90 93 89 90 89 89 87 86 86 84 84 82 80 78 80 82 84 86 87 87 87 86 88 92 95 96 94 94 95 93 93 95 94 92 90 89 88 87 88 89 91 96 97 97 94
98 97 94 90 92 91 91 88 87 87 88 89 91 86 85 84 83 81 79 78 80 80 80 81 83 87 91 92 96 97 97 97 96 96 95 96 97 96 94 96 98 98 98 97 96 93 91 91 93 95 97 97 98 97
90 89 89 89 89 91 96 93 90 87 84 85 84 85 84 83 82 80 80 82 83 85 89 92 94 96 97 98 98 97 96 96 96 95 95 95 94 93 93 92 95 97 98 98 98 96 95 97 99 99 98 98 99 98
82 91 95 94 90 95 92 94 92 90 89 89 87 88 88 88 87 87 93 94 97 98 98 98 98 98 97 97 96 96 96 96 97 97 97 97 97 95 94 93 93 93 94 96 96 97 98 98 97 97 98 99 99 98
83 88 87 92 92 89 91 94 93 92 96 97 96 98 98 97 97 97 98 98 98 98 98 98 97 97 97 97 97 97 97 97 97 97 98 98 98 98 98 98 96 95 96 95 95 96 96 97 98 98 99 97 96 93
94 93 92 93 93 93 96 97 96 95 92 93 94 88 82 82 82 83 83 83 84 85 88 91 93 93 94 95 93 92 91 91 92 93 95 96 96 98 98 98 98 98 98 98 98 98 98 93 90 86 82 78 75 73
84 85 82 79 78 74 71 66 64 64 68 69 67 66 62 67 69 70 72 73 73 73 72 72 73 75 76 77 79 80 80 80 80 81 82 84 88 90 91 93 96 98 98 98 98 98 94 92 89 87 85 82 79 81
65 61 62 62 61 59 58 56 56 59 60 60 56 58 58 59 59 63 68 70 71 71 71 71 71 72 72 73 75 76 77 79 80 80 80 81 84 87 89 89 89 90 92 96 98 97 95 94 96 98 97 93 87 85
55 54 51 53 49 49 51 51 52 52 52 54 52 54 55 57 59 61 64 66 66 66 66 66 66 67 68 68 70 72 74 76 78 79 79 80 82 85 88 90 89 90 90 92 95 97 99 97 94 93 93 93 93 93
47 43 44 48 48 51 49 47 46 45 45 44 45 48 50 52 54 55 54 55 56 57 60 62 64 65 66 67 68 69 72 74 76 77 77 78 81 84 86 88 89 88 88 88 89 90 92 94 93 89 86 83 81 79
38 38 43 49 54 54 49 45 42 41 41 41 42 42 43 46 49 51 52 54 55 55 57 59 61 64 66 67 68 70 72 74 77 79 79 80 81 82 84 86 88 89 88 86 84 84 82 80 80 81 83 83 81 79
37 39 44 51 55 52 50 48 46 47 46 44 43 43 45 46 47 47 49 52 54 54 53 52 52 53 54 55 58 59 60 62 64 66 67 68 68 70 70 71 72 73 74 75 74 73 72 71 69 68 66 64 62 61
39 41 46 49 52 53 50 49 46 46 43 42 43 43 43 44 45 46 48 49 50 48 47 47 48 48 50 52 54 54 54 54 54 54 54 55 55 56 56 56 56 56 56 56 56 57 58 58 58 57 55 54 54 52

GFSWCAN_prec_cthk_111.txt.gz
RH
52 47 42 43 43 42 36 33 34 38 39 47 47 57 66 83 96 95 74 72 74 74 68 75 78 78 79 76 77 73 72 82 84 94 92 89 95 92 97 86 97 98 98 97 97 81 67 60 65 85 90 85 85 84
57 52 49 47 47 45 36 35 36 41 44 47 46 58 73 89 98 88 74 72 73 71 62 66 68 72 71 70 74 76 75 79 81 91 94 92 94 95 90 96 94 98 98 96 85 70 61 71 78 86 94 84 81 79
73 67 57 55 52 46 47 46 43 40 43 43 47 62 77 93 98 85 74 70 71 70 60 55 52 60 59 65 66 74 76 71 78 87 93 92 88 87 94 96 96 98 98 98 78 71 67 64 68 88 96 91 86 80
84 80 69 61 57 54 51 46 46 47 48 48 61 73 81 92 95 79 69 66 69 69 64 50 53 56 61 63 64 67 69 72 74 81 88 89 89 86 90 89 96 98 98 98 96 97 87 83 75 78 82 85 82 78
73 81 76 67 62 57 52 49 47 46 43 45 62 78 89 93 97 78 68 65 68 71 65 55 52 53 64 67 67 67 67 71 72 82 87 87 87 90 90 93 98 97 91 98 98 95 98 96 91 90 85 84 89 88
58 61 68 68 64 59 52 49 46 47 48 58 71 84 90 95 98 86 73 65 69 69 70 61 62 62 66 65 65 68 65 72 75 81 85 85 87 91 93 96 82 82 81 87 91 89 93 96 92 90 89 90 89 87
64 58 55 61 60 55 50 46 47 48 48 63 87 95 98 98 97 92 74 66 62 69 70 75 78 79 83 76 74 75 78 83 88 92 92 92 91 89 92 90 88 85 87 86 85 87 92 94 95 95 98 97 93 89
64 65 59 63 64 59 52 53 52 52 63 81 97 98 98 99 98 95 84 71 65 69 84 90 85 86 77 82 90 90 94 94 96 97 98 98 97 95 94 95 96 91 89 90 92 93 95 93 93 93 93 92 85 82
66 73 71 70 63 54 52 52 50 65 83 98 98 98 99 93 96 96 90 75 73 77 89 89 91 89 86 93 96 99 99 98 98 99 99 99 97 99 96 94 90 87 87 86 87 87 89 89 88 87 87 86 82 84
76 75 71 63 57 53 57 59 71 91 99 99 99 98 89 91 97 97 95 83 89 92 90 87 81 85 88 96 97 96 99 98 97 95 96 95 93 91 92 92 91 88 84 85 87 88 89 88 84 82 81 78 76 76
69 67 63 62 63 64 70 87 98 99 99 98 95 94 95 97 97 97 89 80 88 88 80 78 75 79 81 90 94 94 98 97 96 91 95 91 92 90 90 89 86 85 83 82 81 81 80 80 78 74 72 71 70 69
66 65 61 66 87 97 98 98 99 98 97 94 87 97 99 98 97 95 86 73 77 72 72 74 78 80 82 87 92 96 96 92 87 91 93 91 89 90 92 91 88 82 79 75 74 72 71 70 70 70 68 66 65 65
92 96 98 98 98 98 98 98 98 99 99 99 98 99 96 94 96 89 78 71 72 68 71 75 80 79 90 91 96 97 95 90 83 88 82 79 83 84 84 85 83 83 80 77 73 71 70 68 67 66 64 65 63 61
98 99 99 99 99 99 98 98 97 99 99 98 98 97 96 92 85 76 67 65 64 67 76 81 85 87 91 95 98 96 92 94 90 83 79 83 82 80 78 79 79 79 75 72 73 74 72 69 67 68 70 68 68 64
99 99 99 98 98 98 98 98 98 98 98 98 93 92 89 80 82 79 77 74 72 74 77 85 90 93 95 95 93 92 89 84 78 75 76 80 81 81 81 77 73 72 74 74 74 74 73 71 71 72 73 76 74 72
92 99 98 99 98 98 99 99 99 99 97 94 89 88 85 86 85 87 85 81 82 84 86 88 92 93 94 91 88 85 83 76 75 77 76 74 75 79 79 77 76 78 78 77 76 77 78 79 78 78 80 81 81 80
90 90 98 99 98 95 95 97 98 98 97 91 90 88 88 86 87 86 87 88 89 92 92 90 88 87 90 87 81 77 76 76 77 78 79 80 79 77 78 75 74 76 76 72 70 72 72 74 77 78 80 82 84 87
93 93 95 98 96 96 96 96 97 95 95 91 91 91 90 91 89 90 91 93 95 93 90 91 89 89 86 80 75 74 75 78 79 83 85 86 85 85 84 81 78 76 74 71 70 69 68 70 73 75 79 82 83 88
86 91 97 99 97 96 96 94 91 90 93 92 92 92 95 95 94 93 93 93 93 94 89 86 84 80 77 76 76 78 79 80 83 85 86 86 84 82 80 79 76 74 73 73 73 72 71 70 72 75 78 82 85 88
92 93 98 96 96 93 97 93 91 88 92 92 92 94 94 96 95 93 91 92 91 90 86 80 77 77 77 79 80 81 82 83 83 82 82 83 84 85 86 87 88 88 88 87 86 84 82 79 78 79 81 85 87 89
96 95 95 96 93 86 90 90 90 91 92 90 90 90 93 94 90 89 86 85 83 81 79 79 78 78 78 79 81 83 85 85 86 88 90 91 93 94 93 90 91 93 95 96 96 95 92 88 87 87 87 88 90 93
98 97 95 91 86 87 89 86 86 88 91 93 91 89 90 89 87 85 83 83 83 82 81 80 80 81 81 82 85 89 94 96 96 94 93 92 94 94 94 92 90 91 92 96 97 98 96 94 93 91 91 92 93 96
97 97 96 97 96 91 90 90 86 86 85 88 86 86 86 85 83 81 81 81 80 80 81 81 83 85 88 92 95 96 95 95 93 93 94 94 95 97 95 92 91 91 91 92 94 96 96 96 96 94 94 96 98 98
97 97 96 94 91 96 92 91 87 87 85 85 84 85 85 82 80 80 83 84 87 89 92 95 97 97 97 97 96 96 95 95 94 94 94 95 96 96 97 97 96 95 94 95 95 95 95 95 96 97 97 97 97 98
91 93 92 94 93 92 91 91 89 86 89 88 88 89 90 91 91 95 97 98 98 98 98 97 97 97 97 98 98 98 97 96 96 94 93 94 95 97 97 98 98 98 97 98 98 98 98 98 98 98 98 98 98 98
95 96 94 94 93 90 91 92 92 94 94 96 97 96 91 92 93 94 90 87 85 83 84 84 83 86 87 89 90 90 89 88 86 84 83 84 85 85 88 91 94 96 98 98 98 98 98 98 96 93 91 90 89 85
91 95 94 93 92 89 91 88 86 85 84 82 76 73 66 68 70 70 71 72 73 73 73 73 74 74 74 75 76 78 78 79 80 80 80 79 80 80 82 84 86 88 89 91 95 98 99 96 94 92 87 85 81 81
72 69 72 72 66 63 62 61 62 61 58 59 55 59 58 57 59 62 66 69 70 71 70 70 70 70 70 70 71 72 72 74 77 79 79 79 80 81 82 85 88 90 90 89 89 89 91 94 93 93 95 96 97 95
57 57 54 58 56 55 54 53 53 56 56 55 52 54 53 54 56 59 61 62 62 62 61 61 62 63 64 65 66 67 68 69 71 73 76 77 77 79 81 84 87 88 89 89 90 91 92 93 95 97 97 96 94 95
53 49 50 50 49 51 50 49 47 48 46 44 44 47 49 51 53 54 53 52 53 53 54 55 55 57 60 62 64 65 66 68 70 72 75 78 78 79 80 82 85 87 88 88 88 90 92 94 95 96 95 93 91 87
39 39 43 48 52 52 49 46 44 43 42 42 43 43 44 44 45 46 47 48 49 51 52 54 55 56 57 59 62 64 66 67 69 70 73 77 79 80 81 82 84 86 88 89 87 85 83 83 83 82 82 81 81 82
36 38 41 48 53 53 50 47 45 46 45 44 43 41 42 42 44 44 45 47 48 48 48 49 49 48 48 48 50 53 56 59 60 59 59 61 62 63 64 65 66 66 69 71 72 72 71 70 69 68 66 65 64 63
40 39 42 46 53 53 51 51 48 46 45 43 42 42 42 41 41 41 43 43 43 40 39 39 40 41 43 45 48 49 50 50 51 51 52 53 53 54 54 55 56 56 57 57 56 57 58 58 57 56 55 54 53 52

GFSWCAN_prec_cthk_114.txt.gz
RH
35 32 31 44 38 33 38 37 37 39 35 34 37 42 46 51 59 70 82 93 70 62 58 64 70 76 80 81 75 67 66 75 71 89 92 88 94 96 97 86 97 98 97 98 97 94 81 57 71 77 82 92 97 97
43 44 42 44 39 37 39 39 40 40 41 39 40 46 50 57 69 76 90 93 72 66 56 58 61 68 67 66 71 68 68 79 82 87 89 92 95 91 95 95 98 97 98 97 95 84 68 72 81 83 88 98 96 91
70 61 55 53 50 42 42 43 44 42 42 44 43 49 49 55 73 81 95 94 73 66 57 56 52 52 54 56 56 66 66 74 83 87 91 94 92 90 96 94 96 97 98 94 88 83 80 69 77 85 91 97 94 91
79 78 74 69 60 51 51 47 43 45 49 46 45 48 46 63 77 86 97 92 73 67 62 48 47 47 52 56 58 64 66 76 79 83 85 93 92 89 91 89 96 98 97 97 98 95 94 82 79 79 87 93 91 90
87 86 84 80 78 65 58 53 53 56 52 55 55 50 57 74 82 90 98 91 71 67 62 54 46 43 41 51 58 60 70 78 81 82 86 89 92 91 91 92 97 95 98 98 98 98 98 96 98 96 96 98 98 93
62 81 89 88 84 79 66 61 64 60 65 59 49 45 65 82 87 95 97 84 67 65 68 63 43 51 56 59 69 68 68 73 76 84 82 85 89 93 93 94 88 88 98 99 98 98 99 98 99 99 99 100 99 97
62 65 64 75 86 83 77 77 71 66 66 54 48 56 76 87 91 94 98 80 68 70 74 62 60 70 78 78 71 69 72 79 82 89 91 92 89 93 92 90 86 93 91 94 95 95 92 90 94 96 94 97 97 94
70 65 63 62 63 80 82 79 74 62 60 51 51 72 92 94 97 94 97 91 74 74 73 70 76 79 80 81 85 86 92 95 96 97 97 97 96 96 94 91 92 89 82 80 82 88 87 88 87 90 92 94 92 92
70 68 68 65 61 72 85 77 69 66 57 54 64 92 96 95 91 91 94 94 80 74 69 79 87 88 86 92 92 98 99 98 97 98 98 99 98 98 95 96 94 91 87 82 79 82 85 86 87 88 89 88 88 88
63 64 69 71 68 74 77 74 71 64 57 68 96 97 94 87 92 94 95 94 81 75 75 83 83 85 83 92 99 95 98 99 97 96 97 98 97 96 97 97 95 92 89 86 85 84 83 83 83 82 83 83 83 83
58 62 69 76 79 83 79 70 61 57 74 96 98 97 93 96 96 98 94 92 84 76 76 78 80 82 78 85 93 97 98 98 97 94 99 97 96 95 97 96 93 89 86 84 82 82 79 78 77 78 78 77 74 76
65 70 77 82 78 73 68 60 64 76 94 97 96 96 99 98 98 94 87 86 75 69 73 78 79 80 80 85 94 96 97 95 92 93 98 94 94 96 93 94 90 82 79 77 74 73 72 71 68 67 67 70 70 67
72 70 70 71 69 61 59 71 82 97 99 99 98 98 99 97 93 80 79 78 68 62 71 76 81 83 88 88 95 97 97 92 86 91 89 86 86 86 84 81 80 80 77 73 71 71 71 69 69 66 65 67 68 66
70 67 67 73 77 75 79 92 99 99 99 98 97 98 90 88 76 74 71 69 60 62 75 81 82 87 94 97 97 98 93 92 93 89 85 83 84 84 79 75 75 73 70 68 66 67 68 69 69 67 66 67 70 71
88 87 86 86 86 96 98 98 99 99 99 98 93 87 80 73 74 76 76 68 64 66 76 86 92 92 95 98 95 93 89 88 87 84 82 80 78 75 74 75 73 68 66 68 69 70 72 72 72 71 71 72 75 78
99 99 98 98 98 98 98 99 99 98 98 92 87 83 81 85 85 86 84 82 79 81 85 87 93 96 97 96 93 89 89 84 81 80 78 74 74 74 73 73 73 71 72 70 71 73 72 70 69 70 73 76 79 82
96 98 99 99 99 99 98 99 98 98 96 92 93 88 86 89 88 90 89 86 86 88 90 93 92 91 93 93 90 86 82 77 77 79 78 79 78 79 80 80 79 78 75 73 70 70 70 66 65 67 71 74 76 78
98 98 98 95 95 98 99 98 98 97 95 92 88 90 91 92 92 93 91 92 93 94 94 93 91 93 90 88 84 82 80 78 78 77 79 80 81 81 82 81 79 75 72 72 70 68 66 64 64 64 65 68 72 75
91 95 98 98 98 96 98 98 92 91 93 90 87 90 92 95 95 93 94 95 95 97 95 94 94 88 87 85 82 80 79 81 82 82 81 82 83 82 80 78 76 75 74 75 75 75 73 71 70 70 69 69 69 72
98 99 99 99 95 91 91 91 88 86 89 90 90 93 93 96 97 97 96 96 97 97 96 92 89 87 83 81 80 80 81 82 83 83 82 82 82 82 83 85 85 86 86 86 86 87 89 90 89 86 83 78 76 76
94 97 97 95 93 89 83 83 85 85 90 94 94 92 91 91 93 95 93 92 91 90 89 88 85 84 83 82 81 81 81 82 83 82 82 87 90 91 90 88 88 89 89 87 86 87 91 94 96 94 89 86 85 84
88 91 90 86 87 86 85 82 86 87 88 91 89 87 88 89 89 90 89 86 86 86 86 86 86 86 85 83 83 83 83 82 85 88 91 90 91 91 92 93 93 92 88 86 86 87 90 94 94 93 91 90 89 89
96 94 94 94 92 87 89 91 89 88 87 93 90 88 88 87 86 85 86 86 86 87 87 86 85 84 83 84 84 86 89 92 93 92 91 91 93 93 94 94 94 94 93 91 88 87 89 91 93 94 94 94 94 94
98 98 97 97 92 91 88 88 87 87 88 88 87 89 88 85 82 82 84 85 85 85 86 86 87 88 92 95 96 97 97 96 95 94 94 94 94 94 95 95 96 96 95 94 93 93 93 94 95 96 96 96 96 96
95 96 95 93 91 91 90 89 88 86 87 87 87 87 87 85 84 85 87 90 92 95 97 98 97 97 98 98 98 98 98 98 98 96 96 95 92 87 86 86 87 89 93 95 96 97 97 97 96 97 98 99 99 99
96 96 93 93 92 89 89 89 88 88 86 88 91 92 89 93 95 97 96 98 97 96 91 86 83 82 81 83 82 82 81 82 82 82 82 82 82 81 81 81 80 80 81 83 86 88 90 94 97 98 98 99 98 97
93 96 94 93 92 89 90 90 90 91 94 96 97 94 88 85 77 73 72 72 72 72 72 73 74 74 74 74 75 75 75 76 77 78 78 79 80 80 80 80 81 82 83 84 86 88 89 89 88 87 87 87 87 86
88 92 91 88 86 85 86 84 83 79 72 65 59 58 56 55 57 60 63 66 68 70 69 68 68 67 67 67 67 68 68 68 69 70 72 74 76 77 77 77 78 80 83 85 88 89 89 90 88 88 89 89 88 91
66 68 65 65 62 59 60 58 56 58 60 57 55 55 53 52 54 57 58 59 60 59 59 57 56 56 57 58 60 62 64 65 66 67 68 70 72 74 76 77 78 81 83 86 88 88 89 89 90 92 94 96 97 99
58 55 55 55 54 52 52 51 51 51 48 44 44 47 49 51 52 53 53 51 50 50 51 52 52 52 53 54 56 59 61 63 65 66 67 68 70 72 75 77 78 79 82 85 88 89 89 89 90 91 92 94 95 95
51 46 45 48 51 51 50 48 46 44 43 43 43 43 44 45 44 43 43 44 46 47 48 50 51 53 54 55 56 58 61 63 65 66 67 68 68 70 73 76 78 78 80 82 84 86 86 86 86 86 86 85 84 84
38 38 40 46 48 49 50 47 45 45 45 43 43 41 41 39 40 42 42 43 42 41 42 42 41 42 42 42 42 44 46 48 51 52 53 53 53 54 55 57 59 60 62 65 66 66 66 65 65 65 65 65 64 63
38 36 38 42 47 50 50 50 47 46 44 44 43 41 40 39 39 39 40 42 39 36 35 34 35 37 38 39 40 42 44 45 47 48 49 49 49 50 51 51 51 52 53 54 54 55 56 56 55 54 54 53 52 51

GFSWCAN_prec_cthk_117.txt.gz
RH
52 51 46 42 45 45 42 33 32 34 33 35 30 36 40 46 48 48 51 61 70 78 50 46 53 61 62 70 76 65 62 62 67 75 87 83 90 86 96 94 97 98 97 97 96 97 90 71 82 66 72 74 94 99
45 42 46 43 38 44 44 36 36 34 34 34 35 39 43 47 50 51 58 67 75 84 51 47 46 49 54 61 62 61 67 67 67 84 86 92 90 88 92 95 96 97 98 95 96 86 71 67 76 83 89 94 98 96
53 46 42 42 41 38 45 38 38 35 35 38 39 43 46 49 52 56 64 73 79 88 55 49 41 45 46 47 54 60 58 62 70 89 93 91 95 89 95 90 96 93 95 98 98 96 94 84 79 77 86 88 96 95
72 63 49 47 46 44 45 39 36 36 39 40 42 47 52 53 53 59 66 74 85 89 61 46 42 42 45 46 49 54 56 64 75 83 85 86 90 89 92 90 93 98 97 97 97 98 98 89 86 88 87 94 94 93
89 84 78 71 63 54 49 45 39 42 41 42 49 53 55 53 56 64 71 79 89 91 63 49 41 38 40 43 43 53 56 65 78 83 86 87 84 94 92 93 96 96 97 98 98 98 98 97 98 98 99 97 96 93
91 91 87 86 85 80 73 60 49 46 56 59 58 60 56 57 59 67 78 79 87 92 67 55 40 38 45 50 52 58 62 70 77 81 83 83 86 92 93 93 90 94 98 98 98 99 98 98 98 98 96 95 96 95
68 73 86 92 91 90 88 81 72 69 70 65 66 64 61 60 66 77 79 84 86 86 67 62 48 54 68 77 75 66 67 70 72 85 88 91 90 93 90 87 87 92 95 94 93 93 93 91 91 92 93 91 92 92
70 71 69 71 83 91 91 89 77 77 74 72 71 65 60 63 74 83 85 90 91 87 68 66 54 70 77 83 85 82 80 84 89 94 95 95 93 92 91 89 92 91 88 84 82 83 83 84 85 85 85 85 84 84
74 67 70 72 65 72 81 90 90 88 82 77 72 68 72 76 80 88 88 89 93 86 69 60 72 85 89 94 96 97 95 97 95 96 97 96 94 94 93 94 94 94 91 87 82 84 84 85 86 85 83 82 81 80
79 73 73 75 74 68 66 85 96 92 84 74 75 79 77 76 89 92 95 88 89 84 70 61 71 80 79 92 88 89 99 99 97 97 98 97 96 95 96 96 94 92 90 86 84 83 82 80 80 80 79 80 81 75
79 79 78 78 75 70 70 87 98 96 93 89 83 80 83 88 97 96 95 89 87 80 64 58 72 76 73 82 85 92 98 98 98 96 99 97 93 96 97 97 95 89 84 81 79 77 78 77 76 73 72 73 74 75
80 78 76 78 78 79 76 92 98 95 79 78 88 88 93 97 98 94 86 82 81 75 62 67 76 79 79 80 89 96 98 97 95 95 97 93 94 97 96 96 96 90 84 82 78 76 75 75 73 70 69 67 66 68
71 66 67 76 80 80 84 97 93 78 78 94 96 98 96 95 96 81 78 79 77 67 63 74 80 87 87 87 93 96 96 93 90 94 92 88 90 88 84 81 77 74 74 71 68 68 68 68 68 68 67 66 66 67
59 65 72 77 85 89 95 87 72 70 97 99 98 97 94 86 74 72 70 70 68 65 76 81 88 89 91 93 96 97 96 95 94 92 89 88 87 84 80 78 72 70 69 64 63 64 65 66 68 68 68 69 69 69
70 73 80 86 90 88 82 70 70 98 99 99 94 90 79 73 74 75 75 76 76 62 71 82 91 94 96 97 94 95 93 92 90 89 90 90 83 77 75 74 73 73 72 70 68 67 67 68 70 71 70 69 70 72
75 79 76 75 73 69 67 83 98 98 98 98 86 85 80 78 81 85 85 88 77 63 76 81 92 95 93 91 94 90 89 86 87 86 84 80 78 74 73 74 72 72 71 72 73 71 68 66 65 68 70 69 69 72
91 87 82 83 89 92 98 98 98 98 97 92 86 84 85 86 86 89 91 92 85 80 83 86 90 91 95 94 93 91 89 86 84 81 79 79 79 78 78 79 78 76 74 72 70 69 68 66 66 66 67 67 68 68
95 92 93 94 97 98 98 99 98 97 95 90 89 86 89 91 93 94 94 92 90 88 86 86 88 92 93 89 88 89 89 87 86 84 82 80 79 78 77 76 76 74 72 71 71 70 69 68 68 68 67 67 68 69
99 99 99 97 96 97 98 98 97 95 91 89 89 92 93 95 94 95 93 91 92 94 95 94 93 89 90 91 90 90 89 86 83 81 80 79 80 80 79 78 77 77 78 79 81 82 82 81 82 83 86 86 84 78
99 99 99 99 98 95 97 96 88 87 91 91 92 93 92 94 95 96 94 93 96 96 96 94 93 93 92 92 90 87 85 83 81 80 79 79 79 79 80 83 86 86 86 86 86 85 82 80 82 86 91 94 93 90
98 99 99 98 93 87 87 89 89 90 89 90 92 92 94 95 95 96 96 96 96 94 94 95 97 95 93 90 87 84 83 82 81 80 79 78 77 79 83 86 87 88 90 91 90 86 84 82 82 88 92 96 95 92
92 94 96 95 89 87 87 86 86 85 86 88 92 92 92 92 90 91 93 93 94 94 93 93 92 90 89 88 87 86 84 83 81 80 80 80 82 85 86 87 88 91 92 92 91 89 88 86 84 85 90 91 92 92
95 94 92 92 85 82 88 86 86 90 91 92 90 90 90 89 87 88 89 91 92 92 91 90 89 88 87 86 85 84 84 86 89 92 93 92 91 90 91 92 92 92 90 91 92 92 91 91 91 90 90 91 92 93
92 91 90 89 87 89 87 88 86 88 87 86 87 90 89 85 84 85 88 89 90 90 89 88 87 87 86 87 91 96 98 97 97 96 96 96 96 96 96 95 90 85 84 83 84 87 90 93 94 95 95 95 95 95
98 97 94 90 86 88 88 87 86 86 90 90 89 90 89 84 86 86 86 87 87 87 88 91 97 98 98 98 98 96 95 92 89 86 86 85 85 86 85 84 82 81 81 82 81 82 83 84 86 88 91 95 98 98
96 92 85 85 87 87 87 89 87 88 88 89 89 88 85 86 85 87 88 94 97 98 98 97 94 88 85 84 82 81 80 79 79 79 78 78 79 79 79 80 80 80 80 80 81 82 82 82 85 88 89 90 90 92
94 95 91 88 88 85 87 86 86 87 89 91 92 93 95 96 95 88 81 75 73 73 72 72 73 74 73 73 72 71 70 70 69 69 69 69 70 71 73 74 75 77 78 78 78 80 83 85 86 86 85 86 87 87
90 94 94 92 92 91 91 91 93 95 96 96 89 82 68 57 57 58 61 65 66 66 66 66 65 64 63 62 61 62 62 63 64 65 66 66 68 68 70 72 75 77 77 77 78 79 83 86 88 88 87 86 84 86
85 88 85 87 84 83 83 80 74 68 63 57 58 59 55 52 53 56 57 58 58 57 56 53 52 52 53 54 55 57 58 60 62 63 65 66 67 68 69 71 73 76 77 78 79 80 83 87 88 89 89 90 91 92
68 66 63 64 62 61 59 54 55 55 50 46 45 47 49 50 51 51 51 50 48 47 48 49 50 50 52 53 54 55 56 58 60 62 64 65 66 68 68 70 72 75 77 79 80 81 83 86 89 90 90 90 91 92
58 54 52 52 52 52 52 50 48 46 44 44 45 44 45 47 46 44 42 42 42 44 45 46 47 48 50 52 53 54 56 58 59 61 61 60 59 60 61 62 63 66 70 76 79 79 80 80 82 85 87 86 85 84
48 44 42 46 47 47 48 47 47 47 47 45 44 43 42 42 40 40 40 42 42 42 42 40 38 38 38 38 39 40 39 40 43 44 45 48 49 50 51 51 52 53 54 54 57 59 60 60 61 62 62 63 63 64
42 39 38 41 44 45 44 47 48 48 46 45 44 43 41 37 37 37 39 39 37 36 35 34 33 33 34 35 36 38 38 39 41 42 43 44 45 46 46 47 48 49 49 49 48 48 49 49 49 48 48 47 47 46

GFSWCAN_prec_cthk_120.txt.gz
RH
74 72 69 63 56 54 57 49 43 40 45 42 34 28 27 33 36 41 45 43 56 59 56 49 44 44 51 52 62 57 52 55 53 63 74 72 83 82 92 91 96 96 96 95 92 94 91 81 77 89 85 75 87 95
80 79 68 59 56 50 49 49 45 36 41 39 33 28 29 35 39 45 49 50 58 63 60 52 39 40 44 48 54 55 54 54 58 68 78 84 90 90 92 93 92 95 98 97 95 89 83 84 87 84 89 98 97 99
74 69 64 56 50 45 47 47 44 38 39 36 32 30 32 36 43 48 52 55 62 66 62 60 40 38 36 37 46 50 51 49 58 73 85 86 87 86 92 89 95 94 96 98 97 95 96 92 88 90 95 93 96 96
61 59 57 54 51 46 43 47 47 43 41 34 32 32 35 40 48 52 53 59 64 68 69 62 39 34 37 38 40 43 45 50 56 67 80 81 83 82 88 90 92 97 97 95 97 96 97 97 95 98 98 98 97 91
71 62 56 53 48 45 45 45 46 43 39 35 33 36 41 46 54 58 54 61 66 72 71 63 46 35 34 39 40 44 47 54 60 70 77 81 78 85 90 90 96 94 97 95 96 97 98 98 98 98 98 95 95 94
92 84 75 65 56 53 50 47 47 44 38 35 36 44 46 51 55 60 64 65 68 71 74 70 45 36 40 42 50 48 50 58 67 73 75 77 81 92 91 88 94 95 98 97 96 94 97 98 95 97 96 94 94 90
77 93 93 86 79 71 64 55 48 43 39 37 46 49 53 55 57 60 68 70 66 69 75 64 46 45 49 67 74 67 62 70 73 74 75 81 86 92 89 84 91 95 98 96 93 88 90 90 89 90 91 89 86 85
59 73 90 95 95 94 88 77 63 51 50 56 57 60 61 60 64 70 75 77 73 73 76 62 47 54 68 83 88 80 77 73 74 81 88 88 90 92 88 90 90 93 92 92 88 86 85 84 83 84 83 79 77 77
50 66 78 83 91 95 97 95 91 82 79 79 76 74 71 67 67 75 76 76 76 76 77 61 53 70 74 85 90 96 94 92 91 91 89 91 87 90 91 91 93 93 90 87 86 86 85 83 82 83 81 79 78 79
63 77 79 76 78 82 90 94 94 90 89 88 86 78 73 69 75 80 86 81 78 77 76 59 54 69 69 79 84 84 89 95 94 90 91 91 90 90 93 95 95 92 88 86 82 81 79 79 78 79 78 77 76 74
78 87 83 79 78 76 78 81 87 93 96 91 84 77 76 75 89 91 88 82 76 75 70 56 53 68 70 75 78 78 94 95 95 94 96 95 91 91 94 95 94 92 87 83 82 79 76 75 74 72 70 68 67 68
94 90 83 84 84 76 76 75 84 89 83 82 75 85 90 93 95 91 85 80 75 72 71 58 56 70 79 76 82 92 95 97 96 94 98 90 88 91 93 91 92 93 87 83 80 76 73 71 70 68 67 65 64 63
94 89 85 86 87 82 75 76 82 88 88 84 94 97 97 93 96 83 73 74 76 74 67 62 70 81 83 83 88 92 95 91 88 92 87 87 87 89 87 82 80 77 73 72 68 64 62 62 61 60 61 62 62 62
94 89 89 88 84 77 77 80 83 94 93 98 99 96 94 87 74 65 64 68 69 66 69 72 80 85 90 90 93 95 92 93 92 88 87 87 86 86 81 77 74 72 70 68 66 63 61 61 60 60 60 63 65 65
86 85 85 87 87 84 83 84 97 96 92 98 95 95 78 73 67 70 73 77 76 75 73 78 83 91 94 96 95 95 96 90 87 89 87 87 86 81 76 73 71 68 66 65 65 65 65 64 63 60 59 59 61 65
77 78 82 89 90 86 94 99 99 95 96 98 98 88 78 73 77 83 81 82 80 83 81 78 91 91 97 94 95 94 89 85 87 86 84 82 80 76 75 73 72 72 71 70 68 67 66 62 60 60 60 60 60 62
67 80 82 88 93 99 98 98 95 96 98 94 88 88 85 85 81 80 84 89 89 86 79 82 86 85 94 94 91 88 87 86 85 87 85 82 82 79 75 74 73 71 69 68 67 66 65 64 64 65 67 67 65 64
86 86 90 95 95 96 92 90 92 94 87 84 88 96 91 88 89 92 94 96 94 85 79 84 85 89 88 85 85 86 88 89 89 89 87 83 79 77 75 76 75 73 72 72 73 74 75 76 77 77 76 76 78 80
76 76 78 80 80 82 85 90 91 89 83 87 86 90 92 93 93 96 96 98 97 92 91 90 91 85 82 82 86 90 92 92 91 88 83 79 76 76 75 75 75 74 73 75 79 81 82 82 81 78 76 76 80 85
93 88 87 80 90 92 92 87 81 85 94 94 95 95 93 95 98 98 98 97 98 97 96 93 90 89 91 92 95 95 94 92 89 85 82 79 78 77 76 75 74 73 75 80 84 86 87 86 83 82 80 80 84 89
99 99 99 97 95 96 94 94 86 89 95 97 97 97 98 98 97 98 98 97 97 94 92 92 92 93 94 96 96 94 91 89 86 84 82 82 79 77 76 75 77 80 84 86 88 87 87 86 84 83 83 84 84 87
96 98 97 99 97 95 93 94 94 92 92 93 95 96 96 96 97 97 96 96 96 96 96 95 95 95 95 94 92 90 88 87 85 85 82 81 82 85 89 90 90 90 90 91 89 87 86 87 87 87 87 87 88 87
96 98 98 99 95 92 96 93 91 90 92 94 93 93 94 94 93 94 91 91 92 94 94 94 92 91 90 89 89 88 87 87 86 86 89 93 94 94 94 95 95 95 94 91 85 82 80 79 79 81 84 87 90 92
98 98 97 96 94 94 93 91 89 91 92 92 92 94 91 93 90 88 87 87 89 92 92 92 92 91 91 90 89 89 91 95 97 97 97 95 91 87 84 83 84 84 83 83 81 81 81 80 80 80 81 82 84 88
96 96 94 94 92 87 84 83 84 83 87 89 90 89 90 90 89 88 87 87 89 90 91 91 90 90 92 95 97 98 97 94 88 85 83 82 81 80 79 79 78 78 78 79 79 79 78 78 78 79 80 82 84 87
89 87 83 82 83 84 86 88 87 86 86 88 87 87 88 88 86 85 84 88 90 92 95 97 98 97 96 92 84 79 78 77 76 74 72 71 71 71 71 71 72 72 73 74 75 77 77 76 78 79 81 83 85 88
89 86 86 86 87 84 86 86 86 85 87 87 87 90 90 89 89 91 95 93 85 78 72 71 72 73 72 72 69 67 65 64 64 64 63 64 65 65 65 67 68 69 70 72 74 76 77 78 77 77 78 82 85 87
86 87 86 89 86 85 86 86 85 88 90 93 93 96 95 92 78 61 57 60 62 62 61 61 61 59 58 56 55 55 56 56 57 58 60 61 62 63 65 66 67 68 69 71 73 75 76 78 78 80 81 83 83 85
88 90 90 92 91 91 93 93 94 96 97 91 76 69 59 54 53 54 56 56 56 55 52 50 50 49 50 51 52 53 54 55 56 57 59 60 62 63 64 66 67 68 69 72 73 75 77 79 79 80 82 85 89 89
88 91 89 89 87 86 86 79 71 65 61 57 52 49 48 49 50 50 49 47 46 44 43 43 44 45 47 48 50 51 53 54 55 56 59 61 62 64 65 67 68 69 71 73 74 76 78 80 81 82 84 86 89 91
71 70 69 68 64 63 57 55 54 49 45 45 45 46 46 47 47 46 44 42 40 41 42 42 43 43 45 46 48 50 52 53 54 54 52 51 50 50 51 52 53 54 56 59 62 66 68 71 74 76 76 76 76 76
61 56 52 50 50 52 49 47 48 49 50 49 48 44 44 45 43 40 38 38 39 39 40 39 38 37 36 35 35 36 36 37 38 38 40 42 43 45 46 47 47 47 49 50 52 53 53 53 53 54 54 55 55 56
53 49 44 44 45 45 45 45 46 48 48 48 47 45 43 42 40 37 36 38 39 38 35 33 32 31 31 32 32 33 34 35 35 37 38 40 41 42 42 43 43 42 42 41 41 41 41 41 41 40 39 40 40 40

GFSWCAN_prec_cthk_123.txt.gz
RH
81 79 86 73 58 54 60 56 52 50 39 35 32 26 24 29 30 35 40 35 44 45 50 41 40 40 46 43 51 54 47 60 52 53 66 69 79 84 89 86 97 95 91 86 93 88 95 85 70 98 96 87 87 92
89 83 71 80 85 73 58 56 58 52 48 45 41 34 24 28 33 38 43 43 46 49 54 46 40 38 37 41 44 43 47 48 51 60 68 74 87 83 90 92 92 95 98 95 95 94 97 93 93 93 92 94 95 97
99 97 83 76 68 64 59 63 63 53 43 44 44 39 28 27 34 41 47 44 47 49 49 49 49 40 32 30 39 44 45 48 54 66 74 80 80 77 90 85 91 96 97 97 98 96 97 98 98 98 97 98 98 98
96 98 95 82 77 72 66 67 58 50 46 44 42 37 29 29 34 43 49 50 51 58 58 57 50 43 35 32 34 37 40 46 50 51 62 73 76 79 82 85 89 96 96 94 98 93 90 96 98 98 98 99 98 98
84 93 94 89 79 60 52 47 50 50 48 47 41 35 33 32 39 45 54 52 55 62 66 60 51 49 39 34 38 42 47 46 51 57 62 68 71 78 83 82 95 90 95 96 94 97 96 97 96 95 95 96 95 92
79 85 87 82 74 66 58 47 45 48 48 45 38 35 35 37 46 54 55 50 56 60 64 62 59 48 37 35 40 47 52 50 54 59 65 67 69 83 87 84 93 92 96 96 95 93 93 95 97 95 94 90 85 84
86 75 75 77 71 65 62 54 56 54 49 45 39 38 41 42 47 58 58 62 59 65 65 60 58 51 43 48 58 62 59 56 56 68 65 68 76 87 85 81 92 89 92 95 93 93 94 91 89 86 84 82 81 79
83 93 87 72 67 66 63 61 56 51 49 44 42 46 44 46 54 59 59 62 64 67 65 63 55 51 46 71 80 78 72 73 72 68 74 81 82 86 83 86 85 86 88 90 88 89 86 83 81 81 79 77 75 74
51 79 97 98 93 78 68 62 60 53 47 46 50 50 57 58 60 65 68 71 72 72 70 64 59 62 64 77 91 84 83 80 81 87 83 82 84 86 87 84 85 87 86 84 81 81 81 81 80 79 77 77 79 78
42 57 78 96 98 98 96 82 65 56 53 59 58 59 59 58 63 66 74 77 77 75 69 62 55 54 61 80 88 80 81 85 92 84 84 84 81 84 83 84 86 86 84 82 81 79 76 76 75 75 75 73 71 69
51 46 67 87 94 98 98 96 93 88 78 71 68 66 71 62 75 84 84 81 76 73 66 59 56 51 63 71 76 73 85 93 91 92 90 90 93 84 85 88 89 88 86 84 80 79 77 76 73 70 69 66 64 63
61 51 75 84 89 90 93 96 95 95 95 88 85 83 86 91 91 86 82 78 74 68 64 61 62 51 66 71 75 77 85 91 88 93 92 85 89 83 82 87 88 84 81 79 75 71 66 62 60 58 59 60 61 62
65 68 86 88 88 88 87 85 83 90 95 93 92 94 96 93 96 81 77 73 72 67 70 66 68 56 67 74 77 86 92 86 84 87 80 81 82 80 80 81 80 75 72 72 69 67 65 62 60 58 59 59 60 60
85 92 91 90 88 88 84 81 82 88 95 94 95 99 94 93 78 68 66 68 72 74 75 70 71 70 77 82 87 91 86 87 89 86 85 84 80 82 83 79 74 72 69 64 63 63 60 58 58 58 57 57 58 57
98 96 94 92 91 88 88 88 87 89 91 94 98 91 82 87 78 79 75 77 81 80 76 79 81 79 86 91 90 90 97 90 85 93 90 84 83 81 80 77 74 71 66 66 64 63 62 60 58 57 57 57 56 57
98 98 98 94 90 88 88 89 90 89 88 97 98 98 91 85 84 82 80 82 81 86 87 88 88 86 91 91 97 91 88 84 94 88 86 83 80 77 75 73 70 66 64 65 64 62 61 56 55 56 57 59 61 63
94 92 92 89 86 87 88 90 89 92 96 95 91 90 95 87 86 85 89 87 87 88 89 89 90 87 91 92 88 86 90 88 87 86 86 85 84 82 79 75 71 68 68 66 65 63 63 64 65 69 71 71 70 71
91 88 88 92 92 93 96 93 94 94 92 88 90 86 90 94 91 88 88 91 94 91 90 90 90 89 89 91 94 88 87 88 88 88 87 87 84 81 77 72 69 68 66 65 64 63 65 67 72 75 78 77 74 73
81 81 88 87 88 92 96 96 89 84 84 85 87 88 94 96 94 94 93 91 95 97 96 89 94 90 92 87 85 85 85 86 88 90 89 87 85 80 75 72 70 71 69 67 66 65 67 70 76 80 81 80 79 77
82 81 89 97 97 93 90 90 83 90 90 88 87 87 87 89 94 93 92 96 98 98 98 93 82 80 83 86 88 90 92 93 95 93 90 88 84 79 77 74 73 71 72 72 73 73 76 79 81 82 81 81 81 81
92 91 95 93 94 90 90 88 84 85 86 90 96 97 95 94 93 93 96 98 98 97 95 94 92 92 92 93 92 95 96 96 94 91 89 85 83 82 80 76 76 79 83 85 85 86 86 86 84 78 76 77 77 80
95 95 94 95 94 94 89 87 82 77 76 82 89 97 95 94 96 97 97 97 97 97 97 96 96 96 95 94 94 95 95 92 89 89 87 85 84 81 81 84 88 90 90 89 91 90 88 81 77 75 75 76 76 76
96 93 89 90 92 91 92 91 96 88 84 84 86 91 94 95 94 94 94 93 94 96 97 97 98 96 95 93 92 90 89 90 90 89 86 86 88 92 93 92 88 83 81 80 78 78 77 77 76 76 76 77 78 78
98 96 95 96 93 96 96 94 92 95 95 91 91 92 91 91 90 91 90 90 92 93 93 93 94 93 92 92 92 91 90 89 89 92 96 96 93 89 84 81 80 78 76 75 74 74 74 74 73 73 74 75 75 76
98 97 98 93 95 98 97 95 94 91 88 87 89 91 92 93 92 90 88 89 90 91 92 92 92 91 91 90 91 92 95 98 98 93 84 80 80 78 75 73 71 69 69 70 70 70 71 71 72 73 74 75 75 76
97 94 93 93 93 92 92 90 88 88 87 87 87 88 91 92 91 87 84 90 89 89 90 92 94 97 96 91 87 84 80 78 76 73 68 67 66 66 66 66 66 65 65 66 67 68 69 71 72 74 75 75 76 77
93 90 86 86 88 85 86 87 88 88 87 88 88 89 90 90 88 87 89 92 94 95 87 79 75 73 72 68 65 63 61 59 58 57 56 57 58 59 61 62 63 63 65 65 67 68 69 71 72 74 75 76 77 79
87 89 88 88 85 84 84 84 85 86 86 86 88 90 93 93 94 96 86 63 60 62 62 59 58 56 55 52 50 50 50 51 51 52 53 55 56 57 57 60 61 62 64 65 66 67 69 70 72 74 76 77 78 79
87 87 87 88 87 87 91 89 88 90 92 93 94 96 96 92 69 54 55 55 54 54 51 48 46 43 42 43 44 45 47 49 51 53 54 56 57 58 58 59 62 64 66 67 68 68 69 72 73 75 77 79 80 81
90 88 86 87 89 91 94 95 96 97 98 96 82 69 61 52 50 49 50 48 46 45 42 41 40 41 42 42 43 43 45 46 48 51 54 56 57 57 57 58 59 60 64 68 70 71 73 74 76 77 79 81 82 83
94 90 91 94 96 97 97 93 86 75 69 65 55 48 48 47 47 47 45 43 40 38 39 39 38 40 41 42 43 44 45 45 46 47 47 45 42 41 42 44 45 47 50 53 53 53 54 56 57 58 58 59 60 60
77 81 83 81 78 75 69 62 59 55 50 48 50 48 47 49 48 44 40 39 39 38 38 40 40 39 38 38 36 33 31 31 31 32 33 34 36 38 40 42 42 43 44 49 49 48 48 47 47 46 45 45 44 44
71 71 68 65 62 57 54 50 48 50 49 49 49 48 47 46 45 41 37 37 39 39 38 37 33 30 30 29 29 29 28 29 29 30 32 33 34 36 37 39 39 38 37 37 39 40 40 40 42 40 40 41 42 43